GFSGL_prec_radar_000.txt.gz
Reflectivity
-20 -20 -20 -20 -20 -20 -20 -20 -20 -20 -20 -20 -20 -20 -1 3 13 19 9 1 -14 -20 -20 -20 -20 -17 -20 -20 -20 -20 -20 -20 -20 -20 -20 -20 -20 -20 -20 -20 -20 -20 -20
-20 -20 -20 -20 -20 -20 -20 -20 -20 5 7 -16 6 2 2 10 17 14 -10 -2 -20 -20 -20 -20 -20 -20 -20 -20 -20 -20 -20 -20 -20 -20 -20 -20 -20 -20 -16 -20 -20 -20 -20
-20 -20 -20 -20 -20 -20 -0 3 13 15 14 13 12 13 12 15 17 8 -11 -18 -20 -20 -20 -20 -20 -20 -20 -20 -20 -20 -20 -20 -20 -4 -20 -20 -20 -20 -20 -20 -20 -20 -20
-20 -20 -20 -20 5 0 -6 -19 -8 -4 5 5 -12 -10 -18 -20 -20 -20 -19 -20 -20 -20 -20 -20 -20 -20 -20 -20 -20 -20 -20 -20 -20 -20 -20 -20 -20 -20 -20 -20 -20 -20 -20
-20 -20 -20 -20 -19 -18 -16 -16 -20 -20 -20 -20 -20 -20 -20 -20 -20 -20 -20 -20 -20 -20 -20 -20 -20 -20 -20 -20 -20 -20 -20 -20 -20 -20 -20 -20 -20 -20 -20 -20 -20 -20 -20
-20 -20 -20 -20 -20 -20 -20 -20 -20 -20 -20 -20 -20 -20 -20 -20 -20 -20 -20 -20 -20 -20 -20 -20 -20 -20 -20 -20 -20 -20 -20 -20 -20 -5 -9 -4 -20 -20 -20 -14 -5 -20 0
-20 -20 -20 -20 -20 -20 -20 -20 -20 -20 -20 -20 -20 -20 -20 -20 -20 -20 -20 -20 -20 -20 -20 -20 -20 -20 -20 -19 -18 -4 -20 -20 -20 1 4 3 2 -19 -15 -4 4 3 3
-20 -20 -13 -20 -20 -20 -20 -20 -20 -20 -20 -20 -20 -20 -20 -20 -20 -20 -20 -20 -20 -8 -3 -4 -20 -20 -20 -19 -1 -12 -2 -3 5 6 1 -1 -11 -15 -1 5 8 11 10
-20 -20 -15 -20 -20 -20 -20 -20 -20 -20 -20 -20 -20 -20 -20 -20 -20 -20 -20 -18 -2 -1 -3 -1 0 -4 -20 -15 7 12 10 6 -2 -8 -20 -20 -18 -20 -15 8 16 9 8
-20 -10 -20 -20 -20 -20 -20 -20 -20 -19 -20 -20 -20 -18 -20 -1 -7 -1 0 3 7 7 8 5 -17 5 4 -13 13 14 12 6 6 11 11 16 12 -19 -20 -1 13 13 14
-20 -20 -20 -20 -20 -20 -20 -20 -20 -20 -2 -8 7 5 7 -4 1 3 6 5 12 11 7 8 9 12 -20 -20 -20 4 7 2 0 4 7 -0 6 11 14 2 12 15 12
-20 -20 -20 -20 -20 -20 -20 -20 -20 -2 -11 -20 7 7 0 -13 -6 -6 4 8 12 15 12 11 20 -16 -20 -20 -20 -19 -20 -12 3 8 10 6 7 7 7 10 10 9 14
-20 -20 -20 -20 -20 -20 -19 -20 -20 -4 -20 5 -1 1 -3 -1 1 -20 9 6 5 9 16 7 -20 -20 -20 -20 -19 -20 -20 10 9 6 7 7 7 7 9 13 13 11 10
-20 -20 -20 -20 -20 -20 -20 -2 -20 -5 -4 -3 -5 -4 -1 1 3 7 8 6 7 10 2 18 -4 -6 -3 2 -0 6 4 4 -0 3 1 -1 -1 4 12 12 13 17 15
-20 -20 -20 -20 -20 -20 -20 -20 -20 -12 -17 -20 -20 -3 5 6 6 11 8 8 7 4 2 8 4 7 10 6 3 4 1 -1 4 1 2 1 0 3 11 9 12 15 17
-20 -20 -20 -20 -0 -8 -20 -20 -20 -20 -20 -20 -20 -8 -1 3 6 6 3 3 -1 -15 6 3 8 8 7 1 2 5 4 -3 -1 2 5 2 -3 -11 4 10 -15 10 16
-20 -20 -20 -20 1 -20 -20 -3 -4 -20 -20 -20 -20 -20 -1 0 2 2 -1 -2 -6 -20 1 4 5 6 4 -1 2 4 3 3 5 1 4 0 -6 -19 5 10 12 5 3
-20 -20 -9 -1 -0 -0 -1 -3 1 1 3 2 -13 -20 -10 -1 -1 -1 -5 -7 -9 -16 -4 0 0 2 -0 -2 1 2 5 6 4 3 2 1 -1 -4 -19 -2 6 8 13
-1 -1 -6 1 2 -20 -1 -1 0 -1 -1 -0 -14 -20 -6 -4 -1 -0 0 2 -1 -1 -3 -2 1 2 1 1 4 3 8 4 4 7 4 2 2 2 -5 -3 1 -7 -9
-20 -20 -20 0 -0 -3 -5 1 -1 -2 -1 1 -17 -3 -2 1 3 2 1 2 -17 -20 -20 -17 -1 1 3 4 3 5 0 1 1 3 4 4 2 6 -4 -5 -9 3 1
-3 -9 -20 -5 -3 -1 -1 -2 0 -2 0 -0 -5 2 -20 1 2 3 -2 -20 -20 -20 -20 -20 -2 2 2 2 2 4 0 3 1 0 1 5 9 6 3 -2 -4 -1 -1
-19 5 4 -1 -0 -3 -1 1 -0 2 -0 1 -1 -3 -20 4 2 2 -13 -19 -20 -20 -20 -19 -15 -3 0 3 3 3 1 2 1 1 1 4 4 6 7 2 0 1 -3
4 8 -0 -19 0 -8 -13 -8 -4 2 3 3 1 -3 2 2 1 1 -2 -12 -20 -20 -20 -20 -20 -20 -20 -4 -3 -2 0 1 2 0 0 0 -0 0 4 4 0 4 1
-7 8 6 5 5 1 -11 -17 -3 -9 -0 4 4 2 -1 0 2 1 1 2 -20 -20 -20 -20 -20 -20 -20 -20 -20 -20 -20 -20 -19 -20 -7 -20 -18 -0 2 0 2 -1 1
8 10 10 10 6 2 -5 1 -11 2 1 -0 4 3 -4 -1 -20 -4 3 2 -1 -20 -20 -20 -20 -20 -20 -20 -20 -20 -20 -20 -20 -20 -20 -20 -20 -20 -17 -3 -1 1 -0
6 9 10 10 9 5 -18 -10 -19 -6 -7 -0 4 4 1 -4 -16 -11 -4 -5 -20 -20 -20 -20 -20 -20 -20 -20 -20 -20 -20 -20 -20 -20 -20 -20 -20 -20 -20 -20 -20 -9 -6

GFSGL_prec_radar_003.txt.gz
Reflectivity
-20 -4 -20 -20 -20 -20 -20 -20 -20 -20 -20 -20 -20 -20 -20 -20 -20 8 11 9 11 12 11 9 6 -11 -20 -20 -20 -20 -20 -15 -20 -20 -20 -17 -20 -13 -1 -15 -6 -20 -20
-19 -3 -5 -20 -20 -20 -20 -20 -20 4 5 3 5 -7 3 19 17 13 14 7 5 5 2 5 -19 -10 -14 -20 -20 -20 -20 -20 -20 -20 -20 -20 -20 -20 -20 -20 -20 -20 -20
-20 -20 -20 -20 -20 -20 -20 -20 -20 -20 -20 -20 9 11 -16 -2 -20 -20 -20 -20 -20 -20 -20 -20 -20 -20 -20 -20 -20 -20 -20 -20 -20 -20 -20 -20 -20 -20 -20 -20 -20 -20 -20
-20 -20 -20 -20 -20 -20 -20 -20 -20 -20 -20 -20 -20 -20 -20 -20 -20 -20 -20 -20 -20 -20 -20 -20 -20 -20 -20 -11 -20 -20 -20 -20 -20 -20 -20 -20 -20 -20 -20 -20 -20 -20 -20
-20 -20 -20 -20 -20 -20 -20 -20 -20 -20 -20 -20 -20 -20 -17 -20 -20 -20 -20 -20 -20 -20 -20 -20 -20 -9 -20 -20 -20 -20 -20 -20 -20 -20 -20 -20 -20 -20 -20 -20 -20 -20 -20
-20 -20 -20 -20 -20 -20 -20 -20 -20 -20 -20 -20 -20 -20 -20 -20 -20 -20 -20 -20 -20 -20 -20 -20 -20 -20 -15 2 2 -20 -20 -20 -20 -20 -20 -20 -20 -20 -20 -20 -20 -20 2
-20 -20 -18 -18 -20 -19 -20 -20 -20 -20 -20 -20 -20 -20 -20 -20 -2 -20 -20 -20 -20 -20 -20 -15 -20 -20 -20 -20 -20 -16 -11 -16 -20 -4 -14 -10 -13 -20 -13 -5 -13 5 7
-5 -20 -18 -20 -9 -19 -18 -20 -20 -20 -20 -20 -20 -20 -20 -20 3 -20 -20 -20 -20 -20 -12 -9 -3 -20 -20 -7 -16 -8 -20 -20 2 5 -5 -9 -4 -9 -6 -7 1 -5 8
9 12 13 -13 -20 -5 -20 -20 -20 -20 -20 -20 -20 -20 -20 -20 -20 -20 -20 -6 3 3 2 2 2 -16 -20 -20 -18 9 8 7 3 -18 -20 -20 -20 -20 -17 8 13 17 14
-2 -20 -20 -5 -11 -1 -20 -20 -20 -20 -20 -20 -20 -20 -15 4 11 -20 -20 -18 8 8 11 5 6 6 8 -14 14 14 14 11 4 10 10 12 12 -17 -20 -20 -2 10 8
-20 -20 -18 -6 -12 -12 -20 -20 -20 -20 -20 -20 -13 -3 2 8 6 -19 -9 7 13 16 11 2 -5 18 -9 -7 -9 -6 3 -2 -10 -3 -0 -5 -9 -2 6 6 -20 6 -4
4 -20 -16 -3 -4 -20 -20 -20 -20 -20 -11 -13 -20 -15 -9 8 -13 -5 -20 9 11 14 11 10 17 -17 -20 -20 -20 -20 -20 -20 -0 5 10 8 11 4 0 5 9 18 14
15 -2 -2 -6 -20 -20 -20 -20 -20 -13 -15 -18 -18 -8 -3 -19 -12 -13 -20 8 3 15 16 -2 8 0 -6 -16 12 -20 -20 9 14 9 9 11 11 12 9 11 10 15 16
-0 -13 2 -19 -20 -20 -20 -20 -20 -20 -20 -20 -20 -20 -5 0 -18 -8 -15 9 7 4 3 1 7 5 6 13 16 13 14 12 6 9 11 6 6 10 15 10 14 11 17
-20 -12 -20 -20 -20 -20 -20 -20 -20 -20 -20 -20 -20 -20 -10 2 -1 7 10 8 7 2 -10 9 6 3 6 13 11 10 10 7 8 4 8 5 5 5 1 16 6 15 18
-20 -20 -20 -20 -4 -18 -3 -6 -20 -20 -20 -20 -20 -20 -20 -3 2 4 5 3 2 -5 7 3 6 5 10 12 10 9 7 4 2 3 6 7 7 2 1 13 10 6 9
-20 -20 -20 -20 0 -2 -10 -14 -0 -9 -20 -20 -20 -20 -20 -20 -1 2 1 -4 3 -20 2 2 3 7 -0 -20 -2 1 1 7 6 7 7 3 6 -1 4 9 11 15 11
-8 -18 -19 -20 -20 -2 -20 -1 2 1 2 1 -15 -20 -20 -20 -8 -1 -1 -6 -1 -11 -1 3 2 0 -2 -4 -3 4 6 8 8 10 8 7 5 6 9 6 6 -18 -5
-20 -18 -14 -20 -20 -20 -11 4 5 2 -2 -2 -0 -20 -20 -14 -19 -13 2 2 2 -13 -15 -20 -4 -2 1 3 6 6 11 9 9 9 9 10 5 9 7 6 -17 5 -20
-20 -20 -12 -20 -6 -1 1 -0 -3 -1 -3 -3 2 -5 -20 -7 5 6 3 -1 -20 -20 -20 -20 -5 -1 2 2 4 6 1 6 6 4 6 12 11 9 8 7 6 -0 -2
-20 -20 -20 -20 4 -20 -5 1 -1 1 -0 -1 2 -11 -20 -19 5 4 3 -5 -20 -20 -5 -3 -3 -1 -1 -1 -2 3 3 -19 2 1 3 6 11 10 9 8 8 8 4
-20 -14 -20 -2 -20 5 -0 -19 1 2 4 0 1 1 -20 4 4 4 2 2 -3 -20 -20 -9 -3 -11 -20 -2 -2 -2 -2 -1 -1 2 -12 2 6 5 10 8 6 8 5
3 -14 2 8 5 -19 2 5 -6 6 4 5 4 4 1 1 2 4 5 4 -3 -17 -20 -20 -20 -20 -20 -20 -9 -19 -20 -20 -5 1 -1 3 -2 -11 3 3 6 2 4
4 7 8 11 10 -20 1 7 3 -5 6 4 8 7 4 1 2 2 5 6 4 -1 -20 -20 -20 -20 -20 -20 -20 -20 -20 -20 -20 -20 -19 1 -19 -20 -15 -4 -4 -2 -1
8 10 9 9 11 8 6 4 -1 7 9 7 9 7 4 2 -2 -2 2 -1 2 -2 -20 -20 -20 -20 -20 -20 -20 -20 -20 -20 -20 -20 -20 -20 -20 -20 -20 -20 -20 -6 -12
-6 7 10 11 11 11 9 2 -3 5 7 -2 7 8 6 0 -2 -3 -2 -6 -20 -20 -20 -20 -20 -20 -20 -20 -20 -20 -20 -20 -20 -20 -20 -20 -20 -20 -20 -20 -20 -20 -20

GFSGL_prec_radar_006.txt.gz
Reflectivity
-20 -19 -16 -20 -20 -20 -20 -20 -20 -20 -20 -20 -20 -20 -20 -20 2 -20 -11 -20 -14 -20 -20 3 -13 -3 21 10 5 -19 -14 -5 6 -20 -20 -20 -16 13 9 16 15 4 -16
-20 -20 -20 -20 -20 -20 -20 -20 -20 -20 -20 -20 5 3 7 6 8 18 7 10 6 9 9 5 7 -20 1 -7 -19 8 8 -20 -2 -20 -20 -20 -20 -20 -20 -3 15 15 1
-20 -20 -20 -20 -20 -20 -20 -20 -20 -20 -20 -20 -20 -20 -20 -20 -20 -20 -20 -20 -20 -20 -20 -20 -20 0 -17 -20 -20 -20 -20 -20 -13 -20 -20 -20 -20 -20 -20 -20 -20 -20 -20
-9 -11 -20 -20 -20 -20 -20 -20 -20 -20 -20 -20 -20 -20 -20 -20 -20 -20 -20 -20 -20 -20 -20 -20 -20 -20 -20 0 -10 -18 -20 -20 -20 -20 -20 -20 -20 -20 -20 -20 -20 -20 -20
-13 13 -20 -20 -20 -20 -20 -20 -20 -20 -20 -20 -20 -20 -20 -20 -20 -20 -20 -20 -20 -20 -20 -20 -20 -20 -20 -20 -20 -2 -13 -20 -20 -20 -20 -20 -20 -20 -20 1 3 4 -20
-20 -20 -20 7 22 11 -9 -20 -20 -20 -20 -20 -20 -20 -20 -20 -20 -20 -20 -20 -20 -20 -20 -20 -20 -20 -20 13 5 -20 -20 -20 -20 -20 -20 -20 -20 -20 -20 -20 -20 -20 -20
-20 -17 -20 21 16 7 -19 -20 -20 -20 -20 -20 -20 -20 -20 -20 -20 -20 -20 -20 -20 -20 -20 -20 -20 -20 -20 -19 1 -3 -16 -20 -20 -20 -20 -20 -20 -20 -20 -20 -20 -20 -20
-20 5 12 -13 -11 10 -20 -20 -14 -7 -20 -20 -20 -20 -20 -20 -20 -20 -20 -20 -20 -20 -20 -20 -20 -20 0 -20 -11 -20 -20 -20 -20 -19 -10 -20 -17 -20 -20 -20 -6 -20 -20
-20 -20 18 -6 25 10 -20 -20 -20 -20 -20 -20 -20 -20 -20 -20 -20 -19 -20 -20 -20 -20 -20 -20 5 1 -20 -20 -20 -20 -20 -20 -20 -20 4 9 6 10 2 -20 -19 -16 -7
-20 -20 8 -6 20 -20 -20 -20 -20 -20 -20 -20 -20 -20 -20 -20 -9 -18 -20 -20 -20 -19 -14 -20 -20 10 -5 -18 -2 7 8 10 4 -20 -20 -20 -20 -20 -20 1 -17 -20 -20
-20 -20 -12 21 8 -20 -18 -20 -20 -20 -20 -20 -20 -20 -20 -9 -20 -20 -19 -20 -4 4 -20 -17 -15 19 8 -20 -20 -20 -17 -14 -20 -20 -20 -20 -20 -20 -20 -20 9 8 -20
-20 -20 -15 -11 -20 -20 -20 -20 -20 -20 -20 -20 -20 -20 -20 -20 -20 -14 -20 -20 -11 7 4 8 -12 5 -7 -20 -20 -14 8 -20 -20 -20 -20 -20 -11 -20 -20 -20 -14 12 5
-20 -20 -18 -20 -20 -20 -20 -20 -20 -20 -20 -20 -20 -20 -20 -20 -20 -19 -20 -20 -17 3 5 2 2 -0 -2 -11 -1 7 -20 -20 11 11 -17 6 8 -15 -17 -17 -17 -17 -2
-20 -20 -20 -20 -20 -20 -20 -20 -20 -20 -20 -20 -20 -20 -20 -20 -20 -20 -20 -17 -14 -4 -20 -17 7 -2 -20 2 11 10 8 11 -19 -10 -1 -17 1 -1 5 1 5 13 -20
-20 -20 -20 -20 -20 -20 -20 -20 -20 -20 -20 -20 -20 -20 -20 -20 -20 -3 -3 -20 -3 2 -18 -3 -7 -20 -14 6 -16 3 6 -12 1 -20 -19 1 1 -13 -20 -20 -20 -20 -2
-20 -20 -20 -20 -20 -20 -20 -20 -20 -20 -20 -20 -20 -20 -20 -20 -20 -2 2 3 7 1 1 -1 -20 -20 -14 -6 7 1 -20 8 -16 -9 -4 -6 -3 -20 -20 -20 -11 -1 -20
-20 -20 -20 -20 -19 -20 -20 -20 -20 -13 -20 -20 -20 -20 -20 -20 -15 -1 -1 1 12 -1 -1 -4 4 -20 -20 -7 -8 -5 -20 7 1 -20 4 -20 -20 -20 -18 -20 -20 -20 -20
-20 -20 -16 0 1 -15 -20 -20 3 3 -16 -6 -20 -20 -20 -20 -16 1 3 -20 -15 -20 -13 -20 -13 -12 -20 -19 -20 -14 -20 -2 -20 -20 -7 -16 -16 -20 3 -16 -20 -20 -20
-20 -20 -20 -20 -0 -18 -14 5 -20 -20 3 2 -13 -20 -20 -20 -14 0 4 -20 -20 -20 -20 -20 -20 -15 -12 -20 -20 -20 -15 4 -9 -20 -20 -20 -13 1 -20 -15 -13 -20 -20
-17 -20 -20 -20 -20 -14 -3 3 2 -1 -20 1 -17 -20 -20 -20 -20 -20 -18 -20 -20 -20 -20 -20 -16 -20 -20 -20 -20 -20 -20 -20 -20 -20 -20 -20 -20 -4 -20 1 -16 -1 -20
-3 -20 -20 -20 -8 -9 -1 2 -19 -20 -4 -19 -19 -20 -20 -20 -20 -20 -20 -20 -20 -20 -20 -20 -14 -20 -20 -20 -20 -20 -20 -20 -20 -20 -20 -20 -20 -20 -20 6 -20 -2 -10
-20 -20 -18 -7 -1 -12 -10 -14 -2 -0 -20 -6 -3 -7 -20 -20 -20 -20 -20 -20 -20 -20 -20 -20 -20 -20 -20 -20 -12 -20 -20 -20 -20 -20 -20 -20 -20 -20 -20 -14 2 -20 -20
-11 4 -1 -17 -1 -11 -11 3 -15 -14 8 -10 -2 -12 -12 -1 -20 -20 -20 -20 -20 -20 -20 -20 -20 -20 -20 -20 -20 -20 -20 -20 -20 -20 -20 -20 -20 -20 -20 -20 -20 -20 -18
-9 -16 6 -17 4 8 -7 -15 7 2 3 -20 -20 -18 -20 -19 -20 -20 -20 -20 -20 -20 -20 -20 -20 -20 -20 -20 -20 -20 -20 -20 -20 -20 -20 -20 -7 -20 -20 -20 -20 -20 -20
-20 -11 -20 -17 -11 4 11 -20 -20 -20 -10 6 1 -2 2 2 -18 -20 -20 -20 -20 -20 -20 -20 -20 -20 -20 -20 -20 -20 -20 -20 -20 -20 -20 -20 -20 -20 -20 -20 -20 -20 -20
-20 -6 1 -9 -4 4 -2 12 -20 3 -19 -17 1 -9 -6 -13 -20 -20 -20 -20 -20 -20 -20 -20 -20 -20 -20 -20 -20 -20 -20 -20 -20 -20 -20 -20 -20 -20 -20 -20 -20 -20 -20

GFSGL_prec_radar_009.txt.gz
Reflectivity
-20 -20 -20 -20 -20 -20 -20 -20 -20 -20 -20 -20 -20 -20 -20 -20 -20 -15 -11 -20 -0 -12 -11 -20 -20 -20 -20 3 -2 -8 -5 3 19 -20 -20 -20 -20 -20 -20 4 5 10 28
-20 -20 -20 -20 -20 -20 -20 -20 -20 -20 -20 -20 -20 -20 -20 -20 -20 -20 -20 -20 -20 -20 -20 -20 -20 -20 -20 -20 -20 -19 -20 -20 -20 -20 -20 -20 -20 -20 -20 -20 -19 14 14
-20 -20 -20 -20 -20 -17 -13 -20 -7 -9 -20 -20 -20 -20 -20 -20 -20 -20 -20 -20 -20 -20 -20 -20 -20 -20 -20 -20 -20 -20 -20 -20 -20 -20 -20 -20 -20 -20 -20 -20 -20 -15 19
-20 -20 -20 -20 -20 10 -20 -9 16 17 -15 -20 -20 -20 -20 -20 -20 -20 -20 -20 -20 -20 -20 -20 -20 -20 -20 -20 -20 -20 -20 -20 -20 -20 -20 -20 -20 -20 -20 -20 -20 -20 -20
-20 -20 -20 14 -19 13 22 7 33 13 -17 -20 -20 -20 -20 -20 -20 -20 -20 -20 -20 -20 -20 -20 -20 -20 -20 -20 1 -17 -20 -20 -20 -20 -20 -20 -20 -20 -20 -20 -20 -20 -20
-20 -20 -20 -20 18 22 11 30 4 -20 -20 -20 -20 -20 -20 -20 -20 -20 -20 -20 -20 -20 -20 -20 -20 -20 -20 -10 -16 -20 -20 -18 -20 -20 -20 -20 -20 -20 -20 -20 -20 -20 -20
-20 -20 -20 -20 -20 -20 -20 29 17 -11 -20 -20 -20 -20 -20 -20 -20 -20 -20 -20 -20 -20 -20 -20 -20 -20 -20 -19 3 -14 -20 -20 -20 -20 -20 -20 -20 -20 -20 -20 -20 -20 -20
-20 -20 -20 -20 -20 -20 25 28 4 -20 -20 -20 -20 -20 -20 -20 -20 -20 -20 -20 -20 -20 -20 -20 -20 -20 -20 -5 -20 -20 -20 -20 -20 -20 -20 -20 -20 -20 -20 -20 -20 -18 -20
-20 -20 -20 -20 -20 -20 8 29 -20 -20 -20 -20 -20 -20 -20 -20 -20 -20 -20 -20 -20 -20 -20 -20 -20 -20 -20 4 -10 -3 -20 -20 -20 -20 6 0 4 -12 -12 14 -13 -18 -20
-20 -20 -20 -20 -20 -20 -20 -18 -19 -20 -20 -20 -20 -20 -20 -20 -20 -20 -18 -20 -20 -19 -20 -20 -20 -18 17 16 -7 -20 -20 -20 -20 -20 -20 -20 -20 -20 -20 -20 -20 3 -13
-20 -20 -20 -20 -20 -18 -20 -20 -20 -20 -20 -20 -20 -20 -20 -20 -20 -10 -2 -20 -20 -5 -3 -9 -3 -12 -2 9 8 -9 -20 -11 -0 -20 -20 -20 -20 -20 -20 -20 -20 -20 -14
-20 -20 -20 -20 -20 -20 -20 -20 -20 -20 -20 -20 -20 -20 -20 -20 -20 -17 -20 -20 -7 -9 3 -3 -20 14 -4 -12 -4 5 8 -10 -20 -20 -20 -20 -20 -20 -20 6 11 -17 -20
-20 -20 -20 -20 -20 -20 -20 -20 -20 -20 -20 -20 -20 -20 -20 -20 -20 -20 -20 -6 -0 -20 -19 -11 10 -15 -18 -20 9 5 -20 -18 -4 -14 -20 -12 -12 -18 -20 -20 -20 -19 -20
-20 -20 -20 -20 -20 -20 -20 -20 -20 -20 -20 -20 -20 -20 -20 -20 -20 -20 -20 -20 -20 -20 -20 -19 -20 -20 -20 8 -20 -20 -20 -20 -3 -13 -20 -20 -20 -20 -20 -20 -20 -20 -17
-20 -20 -20 -20 -20 -20 -20 -20 -20 -20 -20 -20 -20 -20 -20 -20 -20 2 -10 -1 6 -20 -20 -20 -20 -20 -20 -16 -20 -20 -20 -20 -20 -20 -20 -20 -20 -20 -20 -20 -19 -20 -19
-20 -20 -20 -20 -20 -20 -20 -20 -20 -20 -20 -20 -20 -20 -20 -20 -20 -0 -0 2 8 -20 -20 -20 -17 -20 -20 -16 -20 -20 -20 1 -20 -20 -20 -20 -20 -20 -20 -20 -20 -20 -20
-20 -20 -20 -20 -20 -20 -20 -20 -20 -20 -20 -20 -20 -20 -20 -20 -20 -20 -1 -20 -20 -20 -20 -20 -20 -20 -20 -20 -20 -20 -20 1 -20 -20 -20 -20 -20 -20 -20 -20 -20 -20 -20
-20 -20 -20 -20 -20 -20 -20 -20 -17 -12 -19 -20 -20 -20 -20 -20 -20 -20 2 -20 -20 -20 -20 -20 -20 -20 -20 -20 -20 -20 -20 -20 -20 -20 -20 -20 -20 -20 -20 -20 -20 -20 -20
-20 -20 -20 -20 -20 -20 -20 -20 -20 -20 1 -20 -20 -20 -20 -20 -20 -20 -20 -20 -20 -20 -20 -20 -20 -14 -20 -20 -20 -20 -20 -20 -20 -20 -20 -20 -20 -20 -20 -20 -20 -20 -20
-20 -20 -20 -20 -20 -20 -1 -20 -20 -20 -4 -2 -20 -20 -20 -20 -20 -20 -20 -20 -20 -20 -20 -20 -20 -20 -20 -20 -20 -20 -20 -20 -20 -20 -20 -20 -20 -20 -20 -15 -20 -20 -20
-20 -20 -20 -20 -20 -14 -20 -20 -20 -20 1 -19 -20 -20 -20 -20 -20 -20 -20 -20 -20 -20 -20 -20 -20 -20 -20 -20 -20 -20 -20 -20 -20 -20 -20 -20 -20 -20 -20 -20 -20 -20 -20
-20 -20 -20 -20 -13 5 1 -19 -20 -20 -1 -14 -20 -20 -20 -20 -20 -20 -20 -20 -20 -20 -20 -20 -20 -20 -20 -20 -20 -20 -20 -20 -20 -20 -20 -20 -20 -20 -20 -20 -20 -20 -20
-20 -20 -20 -20 -11 -20 -20 -20 -19 -4 -4 -12 -10 -20 -20 -20 -20 -20 -20 -20 -20 -20 -20 -20 -20 -20 -20 -20 -20 -20 -20 -20 -20 -20 -20 -20 -20 -20 -20 -20 -20 -20 -20
-20 -20 -20 -20 -20 -20 -20 4 -20 -11 -18 -7 -20 -17 -20 -20 -20 -20 -20 -20 -20 -20 -20 -20 -20 -20 -20 -20 -20 -20 -20 -20 -20 -20 -20 -20 -20 -20 -20 -20 -20 -20 -20
-20 -20 -20 -20 -20 -20 -20 -20 -12 -8 -20 -20 -20 -7 -20 -20 -20 -20 -20 -20 -20 -20 -20 -20 -20 -20 -20 -20 -20 -20 -20 -20 -20 -20 -20 -20 -20 -20 -20 -20 -20 -20 -20
-20 -20 -20 -20 -20 -20 -17 -4 -7 -19 -20 -20 -4 -20 -19 -20 -20 -20 -20 -20 -20 -20 -20 -20 -20 -20 -20 -20 -20 -20 -20 -20 -20 -20 -20 -20 -20 -20 -20 -20 -20 -20 -20

GFSGL_prec_radar_012.txt.gz
Reflectivity
-20 -20 -20 -20 -20 -20 -20 -20 -20 -20 -20 -20 -20 -20 -20 -20 -20 -20 -20 -20 -20 -20 -20 -20 -20 -20 -20 -20 -20 -20 -20 2 9 -20 -6 -14 -20 -20 -20 -20 -20 -20 12
-20 -20 -20 -20 -20 -20 -20 -20 -17 28 15 21 11 -15 -19 -20 -20 -20 -20 -20 -20 -20 -20 -20 -20 -20 -20 -20 -20 -20 -20 -20 -20 -20 -20 -20 -20 -20 -20 -20 -20 -20 -11
-20 -20 -20 -20 -20 -20 11 -20 6 5 -5 31 1 -12 -15 -20 -20 -20 -20 -20 -20 -20 -20 -20 -20 -20 -20 -20 -20 -20 -20 -20 -20 -20 -20 -20 -20 -20 -20 -20 -20 -20 -20
-20 -20 -20 -20 -20 -20 -9 -19 -4 -0 -20 -20 6 -3 -20 -20 -20 -20 -20 -20 -20 -20 -20 -20 -20 -20 -20 -20 -20 -20 -20 -20 -20 -20 -20 -20 -20 -20 -20 -20 -20 -20 -20
-20 -20 -20 -20 -20 -20 -20 -20 -20 -20 -20 -19 -4 -20 -20 -20 -20 -20 -20 -20 -20 -20 -20 -20 -20 -20 -20 -20 -9 -20 4 8 -20 -20 -20 -20 -20 -20 -20 -20 -20 -20 -20
-20 -20 -20 -20 -20 -20 -20 -20 -20 2 -3 1 -12 -20 -20 -20 -20 -20 -20 -20 -20 -20 -20 -20 -20 -20 -20 -20 -20 2 10 -4 -14 6 1 -20 -20 -20 -20 -20 -20 -20 -20
-20 -20 -20 -20 -20 -20 -20 -20 9 -9 -9 -20 -20 -20 -20 -20 -20 -20 -20 -20 -20 -20 -20 -20 -20 -20 -20 -20 -20 -20 -20 -20 9 -13 -5 -20 -20 -20 -20 -20 -20 -20 -20
-20 -20 -20 -20 -20 -20 -20 -20 -20 23 -18 -20 -20 -20 -20 -20 -20 -20 -20 -20 -20 -20 -20 -20 -20 -20 -20 -20 -7 5 -12 -20 -20 -19 -20 -20 -20 -20 -20 -20 -20 -20 -20
-20 -20 -20 -20 -20 -20 -20 -20 -20 -20 -20 -20 -20 -20 -20 -20 -20 -20 -20 -20 -20 -20 -20 -20 -20 -20 1 10 -12 -16 -20 -20 -20 -12 16 9 13 13 8 -20 -10 1 -20
-20 -20 -20 -20 -20 -20 -20 -20 -20 -20 -20 -20 -20 -20 -20 -20 -20 -20 -20 -20 -20 -19 -20 -20 -15 -4 -1 16 15 4 -20 -20 -20 -20 -20 -20 -20 -20 -20 -20 -20 -20 -17
-20 -20 -20 -20 -20 -20 -20 -20 -20 -20 -20 -20 -20 -20 -20 -20 -20 -20 -20 -19 -9 -10 -20 -14 -20 -13 5 5 10 -10 -8 -5 -16 -0 -20 -20 -20 -20 -20 -20 -20 -20 -20
-20 -20 -20 -20 -20 -20 -20 -20 -20 -20 -20 -20 -20 -20 -20 -20 -20 -20 -20 -1 4 -16 -2 -8 -17 5 8 7 -7 7 -7 -20 -20 -20 -20 -20 -20 -20 -20 -20 -20 -20 -20
-20 -20 -20 -20 -20 -20 -20 -20 -20 -20 -20 -20 -20 -20 -20 -20 -20 -20 -20 -19 -18 -0 -20 4 -6 -15 -18 -1 -2 -0 -20 -20 -20 -20 -20 -19 -20 -20 -20 -20 -20 -20 -20
-20 -20 -20 -20 -20 -20 -20 -20 -20 -20 -20 -20 -20 -20 -20 -20 -20 -20 -20 -20 -19 -14 -20 -20 -20 -20 -20 -16 -20 -20 -20 -20 -20 -20 -20 -20 -20 -20 -20 -20 -20 -20 -20
-20 -20 -20 -20 -20 -20 -20 -20 -20 -20 -20 -20 -20 -20 -20 -20 -20 1 -11 -20 -6 -20 -20 -20 -20 -20 -20 -20 -20 -20 -20 -20 -20 -20 -20 -20 -20 -20 -20 -20 -11 -19 -20
-20 -13 -20 -20 -20 -20 -20 -20 -20 -20 -20 -20 -20 -20 -20 -20 -20 -3 -2 -20 -20 -20 -20 -20 -20 -20 -20 -20 -20 -20 -20 -11 -20 -20 -20 -20 -20 -20 -20 -20 -20 -20 -20
-20 -18 -19 -20 -20 -20 -20 -20 -20 -20 -20 -20 -20 -20 -20 -20 -20 -20 -9 -20 -20 -20 -20 -20 -20 -20 -20 -20 -20 -20 -20 -20 -20 -20 -20 -20 -20 -20 -20 -20 -20 -20 -20
-20 4 -20 -19 -20 -20 -20 -20 -20 -20 -20 -20 -20 -20 -20 -20 -20 -20 -20 -20 -20 -20 -20 -20 -20 -20 -20 -8 -20 -20 -20 -20 -20 -20 -20 -20 -20 -20 -20 -20 -20 -20 -20
-20 -19 -20 -20 -20 -20 -20 -20 -20 -20 -20 -20 -20 -20 -20 -20 -20 -20 -20 -20 -20 -20 -20 -20 -20 -20 -20 -20 -20 -20 -20 -20 -20 -20 -20 -20 -20 -20 -20 -20 -20 -20 -20
-20 2 -18 -20 -20 -20 -20 -20 -20 -20 -20 -20 -20 -20 -20 -20 -20 -20 -20 -20 -20 -20 -20 -20 -20 -20 -20 -20 -20 -20 -20 -20 -20 -20 -20 -20 -20 -20 -20 -20 -20 -20 -20
-20 -20 2 -20 -20 -20 -20 -20 -20 -20 -20 -20 -20 -20 -20 -20 -20 -20 -20 -20 -20 -20 -20 -20 -20 -20 -20 -20 -20 -20 -20 -20 -20 -20 -20 -20 -20 -20 -20 -20 -20 -20 -20
-20 -20 -20 -20 -20 -20 -6 -2 -19 -20 -20 -20 -18 -20 -20 -20 -20 -20 -20 -20 -20 -20 -20 -20 -20 -20 -20 -20 -20 -20 -20 -20 -20 -20 -20 -20 -20 -20 -20 -20 -20 -20 -20
-20 -20 -20 -20 -20 -20 -20 -20 -20 -20 -20 -20 -20 -20 -20 -20 -20 -20 -20 -20 -20 -20 -20 -20 -20 -20 -20 -20 -20 -20 -20 -20 -20 -20 -20 -20 -20 -20 -20 -20 -20 -20 -20
-20 -20 -20 -20 -20 -20 -20 -20 -1 -20 -2 -17 -20 -20 -20 -20 -20 -20 -20 -20 -20 -20 -20 -20 -20 -20 -20 -20 -20 -20 -20 -20 -20 -20 -20 -20 -20 -20 -20 -20 -20 -20 -20
-20 -20 -20 -20 -20 -20 -20 -20 -20 6 1 -20 -20 -20 -20 -20 -20 -20 -20 -20 -20 -20 -20 -20 -20 -20 -20 -20 -20 -20 -20 -20 -20 -20 -20 -20 -20 -20 -20 -20 -20 -20 -20
-20 -20 -20 -20 -20 -20 -20 -20 -20 -7 -20 -20 -20 -20 -20 -20 -20 -20 -20 -20 -20 -20 -20 -20 -20 -20 -20 -20 -20 -20 -20 -20 -20 -20 -20 -20 -20 -20 -20 -20 -20 -20 -20

GFSGL_prec_radar_015.txt.gz
Reflectivity
-20 -20 -20 -20 -20 -20 -20 -20 -20 -20 -17 -11 0 -20 5 4 -8 -13 -20 -20 -20 -20 -20 -20 -20 -20 -20 -20 -20 -20 -20 -20 -20 -20 -20 -20 -20 -20 -20 -20 -20 -20 -20
-20 -20 -20 -20 -20 -20 -20 -20 -20 -20 -20 -20 -20 -20 -20 -20 -20 -20 -20 -20 -20 -20 -20 -20 -20 -20 -20 -20 -20 -20 -20 -20 -20 -20 -20 -20 -20 -20 -20 -20 -20 -20 -20
-20 -20 -20 -20 -20 -20 -20 -20 -20 -20 -20 -20 -20 -20 -20 -20 -20 -20 -20 -20 -20 -20 -20 -20 -20 -20 -20 -20 -20 -20 -20 -20 -15 -20 -20 -20 -20 -20 -20 -20 -20 -20 -20
-20 -20 -20 -20 -20 -20 -20 -20 -20 -20 -8 -20 -20 -20 -20 -20 -20 -20 -20 -20 -20 -20 -20 -20 -20 -20 -20 -20 -20 -20 -5 -4 -7 -17 6 -20 -20 -20 -20 -20 -20 -20 -20
-20 -20 -20 -20 -20 -20 -20 -20 -20 -20 -12 -11 -20 -20 -20 -20 -20 -20 -20 -20 -20 -20 -20 -20 -20 -20 -20 -20 -15 -2 -3 1 14 11 10 6 -12 -20 -20 -20 -20 -20 -20
-20 -20 -20 -20 -20 -20 -20 -20 -20 -20 -20 -20 -20 -20 -20 -20 -20 -20 -20 -20 -20 -20 -20 -20 -20 -20 -20 -20 -4 3 8 9 11 13 -20 9 2 -20 -20 -20 -20 -20 -20
-20 -20 -20 -20 -20 -20 -20 -20 -20 -20 -20 3 -20 -20 -20 -20 -20 -20 -20 -20 -20 -20 -20 -20 -20 -20 -20 -20 -20 -20 -20 -20 13 11 7 -17 -20 -9 -20 -20 -20 -20 -20
-20 -20 -20 -20 -20 -20 -20 -20 -20 -20 -20 -20 -20 -20 -20 -20 -20 -20 -20 -20 -20 -20 -20 -20 -13 -20 -6 5 2 -14 -20 -20 -20 -20 4 -11 -20 -20 -20 -20 -20 -20 -20
-20 -20 -20 -20 -20 -20 -20 -20 -20 -20 -20 -20 -20 -20 -20 -20 -20 -20 -20 -20 -20 -20 -20 -20 -3 -13 -20 14 10 3 4 -20 -20 -20 -20 -16 20 -7 8 0 -19 -9 -20
-20 -20 -20 -20 -20 -20 -20 -20 -20 -20 -20 -20 -20 -20 -20 -20 -20 -20 -20 -20 -20 -11 -20 -20 -20 2 10 10 14 -2 -20 -20 -20 -20 -20 -20 -20 -20 -20 -20 -20 -20 -20
-20 -20 -20 -20 -20 -20 -20 -20 -20 -20 -20 -20 -20 -20 -20 -20 -20 -20 -20 -20 -20 -6 -20 -16 -20 7 11 11 2 7 8 1 -11 -9 -20 -20 -20 -20 -20 -20 -20 -20 -20
-20 -20 -20 -20 -20 -20 -20 -20 -20 -20 -20 -20 -20 -20 -20 -20 -20 -20 -20 -1 0 2 -20 -20 -16 4 7 1 -9 11 -1 -20 -20 -20 -20 -20 -20 -20 -20 -20 -20 -19 -20
-20 -20 -20 -20 -20 -20 -20 -20 -20 -20 -20 -20 -20 -20 -20 -20 -20 -20 -20 -18 -2 -20 -20 -5 -7 -19 -20 -20 -18 -4 -20 -20 -20 -20 -20 -20 -20 -20 -19 -20 -20 -20 -20
-20 -20 -20 -20 -20 -20 -20 -20 -20 -20 -20 -20 -20 -20 -20 -20 -20 -20 -20 -20 -20 -20 -20 -20 -20 -20 -20 -20 -20 -20 -20 -20 -19 -20 -20 -20 -20 -20 -20 -17 -18 -20 -20
-20 -20 -20 -17 -20 -20 -20 -20 -20 -20 -20 -20 -20 -20 -20 -20 -20 -2 -14 -20 -20 -20 -20 -20 -20 -20 -20 -20 -20 -20 -20 -20 -20 -20 -20 -20 -20 -20 -14 -8 7 7 -14
-20 -20 -20 -12 -20 -20 -20 -20 -20 -20 -20 -20 -20 -20 -20 -20 -20 -11 -10 -20 -20 -20 -20 -20 -20 -20 -20 -20 -20 -20 -20 -20 -20 -20 -20 -20 -20 -20 -20 -20 -20 -20 -20
-18 -19 -20 -16 -20 -20 -20 -20 -20 -20 -20 -20 -20 -20 -20 -20 -20 -20 -20 -20 -20 -20 -20 -20 -20 -20 -20 -20 -20 -20 -20 -20 -20 -20 -20 -20 -20 -20 -20 -20 -20 -20 -20
-13 10 -20 -20 -20 -20 -20 -20 -20 -20 -20 -20 -20 -20 -20 -20 -20 -20 -20 -20 -20 -20 -20 -20 -20 -20 -20 -20 -20 -20 -20 -20 -20 -20 -20 -20 -20 -20 -20 -20 -20 -20 -20
-19 -19 -20 -20 -20 -20 -20 -20 -20 -20 -20 -20 -20 -20 -20 -20 -20 -20 -20 -20 -20 -20 -20 -20 -20 -20 -20 -20 -20 -20 -20 -20 -20 -20 -20 -20 -20 -20 -20 -20 -20 -20 -20
-19 7 -12 -19 -20 -20 -20 -20 -20 -20 -14 -20 -20 -20 -20 -20 -20 -20 -20 -20 -20 -20 -20 -20 -20 -20 -20 -20 -20 -20 -20 -20 -20 -20 -20 -20 -20 -20 -20 -20 -20 -20 -20
-20 -20 4 -19 -20 -20 -20 -20 -20 -20 5 -20 -20 -20 -20 -20 -20 -20 -20 -20 -20 -20 -20 -20 -20 -20 -20 -20 -20 -20 -20 -20 -20 -20 -20 -20 -20 -20 -20 -20 -20 -20 -20
-20 -18 -20 -20 -20 -20 -20 -20 -20 -20 -20 -20 -20 -20 -20 -20 -20 -20 -20 -20 -20 -20 -20 -20 -20 -20 -20 -20 -20 -20 -20 -20 -20 -20 -20 -20 -20 -20 -20 -20 -20 -20 -20
-20 -20 -20 -20 -20 -20 -20 -20 -20 -20 -20 -19 -20 -20 -20 -20 -20 -20 -20 -20 -20 -20 -20 -20 -20 -20 -20 -20 -20 -20 -20 -20 -20 -20 -20 -20 -20 -20 -20 -20 -20 -20 -20
-19 -20 -19 -20 -20 -20 -20 -20 -20 -20 -18 4 -3 -20 -20 -20 -20 -20 -20 -20 -20 -20 -20 -20 -20 -20 -20 -20 -20 -20 -20 -20 -20 -20 -20 -20 -20 -20 -20 -20 -20 -20 -20
-20 -19 -20 -20 -20 -20 -20 -20 -20 -20 -20 -20 -20 -20 -20 -20 -20 -20 -20 -20 -20 -20 -20 -20 -20 -20 -20 -20 -20 -20 -20 -20 -20 -20 -20 -20 -20 -20 -20 -20 -20 -20 -20
-20 -20 -19 -18 -18 -20 -20 -20 -20 -20 -20 -20 -20 -20 -20 -20 -20 -20 -20 -20 -20 -20 -20 -20 -20 -20 -20 -20 -20 -20 -20 -20 -20 -20 -20 -20 -20 -20 -20 -20 -20 -20 -20

GFSGL_prec_radar_018.txt.gz
Reflectivity
-16 -20 -20 -20 -20 -20 -20 -20 -20 -20 -20 -20 -20 -20 -20 -20 -20 -20 -20 -20 -20 -20 -20 -20 -20 -20 -20 -20 -20 -20 -20 -20 -20 -20 -20 -20 -20 -20 -20 -20 -20 -20 -20
-20 -20 -20 -20 -20 -20 -20 -20 -20 -20 -20 -20 -20 -20 -20 -20 -20 -20 -20 -20 -20 -20 -20 -20 -20 -20 -20 -20 -20 -20 -20 -20 -20 -20 -20 -20 -20 -20 -20 -20 -20 -20 -20
-20 -20 -20 -20 -20 -20 -20 -20 -20 -20 -20 -20 -20 -20 -20 -20 -20 -20 -20 -20 -20 -20 -20 -20 -20 -20 -20 -20 -20 -20 -20 -20 -20 5 -13 -20 -20 -20 -20 -20 -20 -20 -20
-20 -20 -20 -20 -20 -20 -20 -20 -20 -20 -20 -20 -11 -18 -20 -20 -20 -20 -20 -20 -20 -20 -20 -20 -20 -20 -20 -20 -12 -20 -20 -14 -16 -20 -13 8 -8 -20 -20 -0 -16 -20 -20
-20 -20 -20 -20 -20 -20 -20 -20 -20 -20 -20 -3 -12 -20 -20 -20 -20 -20 -20 -20 -20 -20 -20 -20 -20 -20 4 -2 2 1 -14 4 11 9 5 6 -7 -20 -3 10 2 -20 -20
-20 -20 -20 -20 -20 -20 -20 -20 -20 -20 -20 -20 -20 -20 -20 -20 -20 -20 -20 -20 -20 -20 -20 -20 -20 -20 -20 -1 -1 4 6 10 8 8 -20 -20 -20 -20 -20 -16 -4 -20 -20
-20 -20 -20 -20 -20 -20 -20 -20 -20 -20 -20 -20 -20 -20 -20 -20 -20 -20 -20 -20 -20 -20 -20 -20 -20 -20 -20 -20 -20 -15 -20 -20 2 9 -6 -2 6 -20 -19 -17 17 -20 -20
-20 -20 -20 -20 -20 -20 -20 -20 -20 -20 -20 -20 -20 -20 -20 -20 -20 -20 -20 -20 -20 -20 -20 -20 -20 -20 -10 -5 -6 -1 -20 -20 -20 -20 -19 -20 -20 -20 -20 -20 -20 -20 -20
-20 -20 -20 -20 -20 -20 -20 -20 -20 -20 -20 -20 -20 -20 -20 -20 -20 -20 -20 -20 -20 -20 -20 -20 -3 -19 -20 12 12 10 -20 -20 -18 -13 3 -1 -20 -16 -9 -5 -20 -1 -1
-20 -20 -20 -20 -20 -20 -20 -20 -20 -20 -20 -20 -20 -20 -20 -20 -20 -20 -20 -20 -20 -20 -20 -20 -20 1 7 10 8 -5 2 -5 -17 -18 -18 -20 -20 -20 -20 -20 -20 4 -17
-20 -20 -20 -20 -20 -20 -20 -20 -20 -20 -20 -20 -20 -20 -20 -20 -20 -20 -20 -20 -18 -15 -20 -20 -20 3 2 5 1 2 13 -7 -20 -20 -20 -20 -20 -20 -20 -20 -20 -20 -20
-20 -20 -20 -20 -20 -20 -20 -20 -20 -20 -20 -20 -20 -20 -20 -20 -20 -20 -3 -1 -15 -20 -20 -20 -20 -1 -16 -4 -10 8 -2 -20 -20 -20 -20 -20 -20 -20 -20 -20 -20 -20 -20
-20 -20 -20 -20 -20 -20 -20 -20 -20 -20 -20 -20 -20 -20 -20 -20 -20 -20 -20 -19 -20 -20 -20 -20 -20 -20 -20 -20 -19 -19 -20 -20 -20 -20 -20 -20 -20 -20 -20 -20 -20 -20 -20
-20 -20 -20 -20 -20 -20 -20 -20 -20 -20 -20 -20 -20 -20 -20 -20 -20 -20 -20 -20 -20 -20 -20 -20 -20 -20 -20 -20 -20 -20 -20 -20 -20 -20 -20 -20 -20 -20 -11 4 -10 -18 -20
-20 -20 -20 -20 -20 -20 -20 -20 -20 -20 -20 -20 -20 -20 -20 -20 -20 -20 -19 -20 -20 -20 -20 -20 -20 -20 -20 -20 -20 -20 -20 -20 -20 -20 -20 -20 -20 -20 -20 -17 3 8 6
-20 -20 -14 -19 -20 -20 -20 -20 -20 -20 -20 -20 -20 -20 -20 -20 -20 -20 -20 -20 -20 -20 -20 -20 -20 -20 -20 -20 -20 -20 -20 -20 -20 -20 -20 -20 -20 -20 -20 -20 -20 -20 -20
-20 -20 -20 -20 -19 -20 -20 -20 -20 -20 -20 -20 -20 -20 -20 -20 -20 -20 -20 -20 -20 -20 -20 -20 -20 -20 -20 -20 -20 -20 -20 -20 -20 -20 -20 -20 -20 -20 -20 -20 -20 -20 -20
-20 4 -15 -20 -19 -20 -20 -19 -20 -20 -20 -20 -20 -20 -20 -15 -20 -20 -20 -20 -20 -20 -20 -20 -20 -20 -20 -20 -20 -20 -20 -20 -20 -20 -20 -20 -20 -20 -20 -20 -20 -20 -20
-20 -20 -20 -19 -20 -20 -20 -18 -20 -20 -20 -20 -20 -20 -20 -20 -20 -20 -20 -20 -20 -20 -20 -20 -20 -20 -20 -20 -20 -20 -20 -20 -20 -20 -20 -20 -20 -20 -20 -20 -20 -20 -20
-18 8 -20 -20 -19 -20 -20 -20 -20 -19 0 -20 -20 -20 -20 -20 -20 -20 -20 -20 -20 -20 -20 -20 -20 -20 -20 -20 -20 -20 -20 -20 -20 -20 -20 -20 -20 -20 -20 -20 -20 -20 -20
-20 -9 -4 -19 -20 -20 -20 -20 -20 -20 -2 4 -20 -20 -20 -20 -20 -20 -20 -20 -20 -20 -20 -20 -20 -20 -20 -20 -20 -20 -20 -20 -20 -20 -20 -20 -20 -20 -20 -20 -20 -20 -20
-20 -20 -20 -19 -19 -20 -20 -20 -20 -20 -20 -20 -20 -20 -20 -20 -20 -20 -20 -20 -20 -20 -20 -20 -20 -20 -20 -20 -20 -20 -20 -20 -20 -20 -20 -20 -20 -20 -20 -20 -20 -20 -20
-9 -20 -20 -17 -19 -20 -20 -20 -20 -20 -20 -20 -20 -20 -20 -20 -20 -20 -20 -20 -20 -20 -20 -20 -20 -20 -20 -20 -20 -20 -20 -20 -20 -20 -20 -20 -20 -20 -20 -20 -20 -20 -20
-1 -20 -20 -20 -20 -19 -20 -20 -20 -20 -20 -20 -20 -20 -20 -20 -20 -20 -20 -20 -20 -20 -20 -20 -20 -20 -20 -20 -20 -20 -20 -20 -20 -20 -20 -20 -20 -20 -20 -20 -20 -20 -20
3 -20 -20 -20 -20 -20 -20 -20 -20 -20 -20 -20 -20 -20 -20 -20 -20 -20 -20 -20 -20 -20 -20 -20 -20 -20 -20 -20 -20 -20 -20 -20 -20 -20 -20 -20 -20 -20 -20 -20 -20 -20 -20
-20 7 -13 -17 -20 -19 0 1 -10 -9 -9 -16 -1 -6 -20 -20 -20 -20 -20 -20 -20 -20 -20 -20 -20 -20 -20 -20 -20 -20 -20 -20 -20 -20 -20 -20 -20 -20 -20 -20 -20 -20 -20

GFSGL_prec_radar_021.txt.gz
Reflectivity
-19 -8 -20 -20 -20 -20 -20 -20 -20 -20 -20 -20 -20 -20 -20 -20 -20 -20 -20 -20 -20 -20 -20 -20 -20 -20 -20 -20 -20 -20 -20 -20 -20 -20 -20 -20 -20 -20 -20 -20 -20 -20 -20
13 -20 -20 -20 -20 -20 -20 -20 -20 -20 -20 -20 -20 -20 -20 -20 -12 -20 -20 -20 -20 -20 -20 -20 -20 -20 -20 -20 -20 -20 -20 -20 0 -18 -20 -20 0 -1 -1 -7 -20 -20 -20
-20 -20 -20 -20 -20 -20 -20 -20 -20 -20 -20 -20 -20 -20 -15 8 -20 -20 -20 -20 -20 -20 -20 -20 -20 -20 -20 -20 -20 -4 0 -0 1 2 -14 -20 -16 -15 10 8 7 -3 -20
-20 -20 -20 -20 -20 -20 -20 -20 -20 -20 -20 -20 -20 -14 -20 -20 -20 -20 -20 -20 -20 -20 -20 -20 -20 -20 -20 -20 -8 -1 -1 7 5 8 5 1 2 -19 7 13 11 8 -9
-20 -20 -20 -20 -20 -20 -20 -20 -20 -20 -20 -20 -20 -20 -20 -20 -19 -20 -20 -20 -20 -20 -20 -20 -20 -20 -20 -20 -2 -0 1 4 7 11 8 -0 -4 3 5 8 11 11 18
-20 -20 -20 -20 -20 -20 -20 -20 -20 -20 -20 -20 -20 -20 -20 -20 -20 -20 -20 -20 -20 -20 -20 -20 -20 -20 -20 -12 -20 0 2 11 16 12 9 16 15 12 10 8 17 8 12
-20 -20 -20 -20 -20 -20 -20 -20 -20 -20 -20 -20 -20 -20 -20 -20 -20 -20 -20 -20 -20 -20 -20 -20 -20 -20 -20 -2 -2 -4 8 6 5 10 14 11 9 8 9 16 12 10 9
-20 -20 -20 -20 -20 -20 -20 -20 -20 -20 -20 -20 -20 -20 -20 -20 -20 -20 -20 -20 -20 -20 -20 -20 -20 -6 -3 0 13 9 5 2 8 12 15 15 12 11 10 15 16 12 7
-20 -20 -20 -20 -20 -20 -20 -20 -20 -20 -20 -20 -20 -20 -20 -20 -20 -20 -20 -20 -20 -20 -20 -20 -19 -7 -1 10 8 9 3 2 2 0 4 12 13 13 12 10 9 13 7
-20 -20 -20 -20 -20 -20 -20 -20 -20 -20 -20 -20 -20 -20 -20 -20 -20 -20 -20 -20 -20 -20 -20 -20 -20 -0 5 2 -0 6 5 9 4 5 4 10 8 9 -6 4 2 14 13
-20 -20 -20 -20 -20 -20 -20 -20 -20 -20 -20 -20 -20 -20 -20 -20 -20 -20 -20 -18 -3 -4 -20 -20 -20 -1 -11 -4 -2 5 10 1 4 4 4 4 5 8 12 12 5 -20 -3
-20 -20 -20 -20 -20 -20 -20 -20 -20 -20 -20 -20 -20 -20 -20 -20 -20 -20 -20 -20 -15 -4 -20 -20 -18 -20 -20 -20 -6 0 -20 -16 2 2 3 5 3 3 3 4 13 11 1
-20 -20 -20 -20 -20 -20 -20 -20 -20 -20 -20 -20 -20 -20 -20 -20 -20 -20 -20 -20 -20 -20 -20 -20 -20 -20 -20 -20 -20 -20 -20 -20 -1 1 -1 -2 -4 -3 2 11 6 0 10
-20 -20 -20 -20 -20 -20 -20 -20 -20 -20 -20 -20 -20 -20 -20 -20 -20 -20 -20 -4 -20 -20 -20 -20 -20 -20 -20 -20 -20 -20 -20 -20 -20 0 -3 -3 -20 -4 3 7 10 10 9
-20 -20 -20 -20 -20 -20 -20 -20 -20 -20 -20 -20 -20 -20 -20 -20 -20 -20 -11 -2 -20 -20 -20 -20 -20 -20 -20 -20 -20 -20 -20 -20 -20 -20 -14 -20 -20 -20 -3 -5 1 7 10
-20 -20 -20 -20 -20 -20 -20 -20 -20 -20 -20 -20 -20 -20 -20 -20 -20 -20 -20 -20 -20 -20 -20 -20 -20 -20 -20 -20 -20 -20 -20 -20 -20 -20 -20 -20 -20 -9 -2 -0 -8 -1 -1
-20 -20 -20 -20 -20 -20 -20 -20 -20 -20 -20 -20 -20 -11 -1 -20 -20 -20 -20 -20 -20 -20 -20 -20 -20 -20 -20 -20 -20 -20 -20 -20 -20 -20 -20 -20 -20 -19 -1 0 -0 0 -20
-20 -20 -20 -20 -20 -20 -20 -20 -17 -20 -16 -20 -20 -20 -20 -20 -14 1 -20 -20 -20 -20 -20 -20 -20 -20 -20 -20 -20 -20 -20 -20 -20 -20 -20 -20 -20 -8 -1 -3 1 -6 -20
-20 -20 -15 -7 -20 -20 -20 -17 -20 -20 -20 -20 -20 -20 -20 -20 -17 10 -20 -10 -20 -20 -20 -20 -20 -20 -20 -20 -20 -20 -20 -20 -20 -20 -20 -20 -20 -20 -20 -20 -20 -20 -20
-20 -20 -14 -16 1 -20 -20 -19 -20 -20 -13 -0 8 -20 -20 -20 -20 -20 -20 -20 -20 -20 -20 -20 -20 -20 -20 -20 -20 -20 -20 -20 -20 -20 -20 -20 -20 -20 -20 -20 -20 -7 -20
-20 -20 -20 9 -20 -20 -20 -18 -20 -20 2 2 2 8 -20 -20 -20 -20 -20 -20 -20 -20 -20 -20 -20 -20 -20 -20 -20 -20 -20 -20 -20 -20 -20 -20 -20 -20 -16 -20 -20 -20 -20
-20 -20 -20 -4 -20 -19 -20 -20 -20 -20 -20 -20 -20 -20 -20 -20 -20 -20 -20 -20 -20 -20 -20 -20 -20 -20 -20 -20 -20 -20 -20 -20 -20 -20 -20 -20 -20 -20 -9 -20 -20 -20 -20
-16 -20 -20 -19 -12 -20 -19 -20 -20 -20 -20 -20 -20 -20 -20 -20 -20 -20 -20 -20 -20 -20 -20 -20 -20 -20 -20 -20 -20 -20 -20 -20 -20 -20 -20 -20 -20 -20 -20 -20 -20 -20 -20
-17 -17 -5 -7 -20 -20 -19 -20 -20 -20 -20 -20 -20 -20 -20 -20 -20 -20 -20 -20 -20 -20 -20 -20 -20 -20 -20 -20 -20 -20 -20 -20 -20 -20 -20 -20 -20 -20 -20 -20 -20 -20 -20
-20 8 14 12 13 -2 -18 -18 -14 -16 -11 -20 -20 -20 -20 -20 -20 -20 -20 -20 -20 -20 -20 -20 -20 -20 -20 -20 -20 -20 -20 -20 -20 -20 -20 -20 -20 -20 -20 -20 -20 -20 -20
-0 11 13 11 12 10 4 4 6 5 4 3 -11 -20 -8 2 -16 -20 -13 -9 -20 -20 -20 -20 -20 -20 -20 -20 -20 -20 -20 -20 -20 -20 -20 -20 -20 -20 -20 -20 -20 -20 -20

GFSGL_prec_radar_024.txt.gz
Reflectivity
-10 4 -20 -20 -20 -20 -20 -20 -20 -20 -20 -20 -20 -20 -20 -20 -20 -16 13 19 -13 -20 -19 -13 -18 -20 -20 -20 -20 -20 -20 -20 -3 -20 -20 -20 -20 -20 -20 -18 -19 -20 -20
23 -20 -20 -20 -20 -20 -20 -20 -20 -20 -20 -20 -20 -20 -20 4 11 19 21 -20 -20 5 -19 -20 -20 -20 -20 -20 -20 -20 -20 -20 -5 -17 -20 -20 -20 -20 -20 -20 -20 -20 -20
-20 -20 -20 -20 -20 -20 -20 -20 -20 -20 -20 -20 -20 -8 -3 6 -6 -20 -7 -19 -19 -20 -20 -1 -20 -20 -20 -20 -20 -20 -20 -20 3 5 1 -19 -15 -20 -20 -13 -18 -15 -20
-20 -20 -20 -20 -20 -20 -20 -20 -20 -20 -20 -20 -15 -20 -19 -12 4 -20 -20 -19 -20 -20 -20 -20 -20 -20 -20 -20 -20 -20 -20 0 4 4 -9 -2 5 -10 -18 5 -3 -12 1
-20 -20 -20 -20 -20 -20 -20 -20 -20 -20 -20 -20 -9 3 -15 -20 -20 -20 -20 -20 -20 -20 -20 -20 -20 -20 -20 -20 -20 -11 -2 0 5 7 9 8 4 -9 17 15 13 3 -20
-20 -20 -20 -20 -20 -20 -20 -20 -20 -20 -20 -20 -20 5 -20 -20 -20 -20 -20 -20 -20 -20 -20 -20 -20 -20 -20 -20 -11 -2 -8 3 10 1 13 0 -5 9 10 16 14 15 10
-20 -20 -20 -20 -20 -20 -20 -20 -20 -20 -20 -20 5 5 -20 -20 -20 -20 -20 -20 -20 -20 -20 -20 -20 -20 -20 -20 -18 -15 -7 5 -12 7 11 16 11 18 17 18 16 14 18
-20 -20 -20 -20 -20 -20 -20 -20 -20 -20 -20 -20 6 -20 -20 -20 -20 -20 -20 -20 -20 -20 -20 -20 -20 -20 -20 -13 2 3 4 -0 -12 -11 4 -4 -10 -4 4 16 16 10 -5
-20 -20 -20 -20 -20 -20 -20 -20 -20 -20 -20 -20 2 -20 -20 -20 -20 -20 -20 -20 -20 -20 -20 -20 -20 -20 -20 -4 -2 -0 -1 -20 -3 -18 -20 -18 -20 -20 -14 12 13 11 16
-20 -20 -20 -20 -20 -20 -20 -20 -20 -20 -20 -20 -20 -20 -20 -20 -20 -20 -20 -20 -14 -20 -20 -20 -20 -20 -20 -20 -6 -1 5 6 -2 -16 0 5 5 12 -19 -2 8 9 10
-19 -20 -20 -20 -20 -20 -20 -20 -20 -20 -20 -20 -20 -20 -20 -20 -20 -20 -20 -20 -14 -20 -20 -20 -20 -20 -20 -20 -20 -1 3 -2 1 3 5 7 8 8 13 16 21 13 11
7 -20 -20 -20 -20 -20 -20 -20 -20 -20 -20 -20 -18 -20 -6 -20 -20 -20 -20 -20 -20 -16 -20 -20 -20 -20 -20 -20 -20 -20 -20 -16 3 6 8 8 6 7 8 9 9 14 16
-20 -20 -20 -20 -20 -20 -20 -14 -3 -4 -2 1 3 3 4 1 -18 -20 -20 -20 -20 -20 -20 -20 -20 -20 -20 -20 -20 -20 -20 -19 1 4 4 4 1 5 8 15 14 16 8
-15 -19 -20 -20 -20 -20 -20 -20 -9 -20 -1 -0 -3 -2 2 -1 -9 -8 -4 -2 -18 -5 -20 -20 -20 -20 -20 -20 -20 -20 -20 -20 -8 5 4 2 0 3 7 8 12 21 14
-8 -16 -20 -20 -20 -20 -20 -8 -6 -10 -0 -12 -20 -19 -0 -12 -20 -10 -8 -3 -1 -10 -20 -20 -20 -20 -20 -20 -20 -20 -20 -20 -20 -0 3 5 1 -1 -0 8 3 5 16
-20 -20 -20 -20 -12 -5 -3 -7 -20 -20 -20 -20 -20 -20 -20 -13 -20 -20 -20 -20 -20 -20 -20 -20 -7 -5 -20 -20 -20 -20 -20 -20 -20 -20 -1 2 3 3 1 4 4 5 10
-20 -20 -20 -14 -3 2 0 9 9 -6 -20 -20 -20 -20 -20 -19 -5 -20 -20 -20 -20 -20 -1 -0 1 2 -19 -20 -20 -20 -20 -20 -20 -20 -20 -5 -3 1 6 5 4 1 2
-4 -20 -10 -1 2 10 10 11 11 14 12 8 -16 -20 -20 -20 -20 -20 -20 -9 0 -15 -20 2 1 -0 -20 -20 -20 -20 -20 -20 -20 -20 -20 -20 -4 -4 -0 1 4 4 1
-20 -18 -4 9 8 11 10 12 12 15 13 -11 -1 -15 -20 -20 -20 -20 7 12 3 2 2 1 -1 0 -2 -20 -15 -18 -20 -20 -20 -20 -20 -20 -20 -20 -20 -9 2 -0 -18
-20 -20 -14 -2 2 13 14 9 11 14 -1 -6 -20 -2 -3 -20 8 6 9 12 6 -4 2 3 -0 -1 0 1 1 3 0 -20 -20 -20 -20 -20 -7 -8 -20 -20 -2 -2 -3
-20 -20 -20 -6 -3 6 10 11 11 13 9 -20 2 -7 -7 3 7 6 6 13 11 -0 6 -0 4 0 0 2 2 3 1 1 -19 -20 -20 -20 -20 -4 -20 -20 -20 -20 -20
-20 -16 2 12 0 6 10 14 16 13 12 3 1 5 -6 -11 6 6 7 7 10 8 8 6 -5 3 0 -2 -1 2 3 1 2 2 -2 -20 -20 0 -15 -20 -20 -20 -20
-0 7 10 15 12 7 -1 14 16 17 14 11 -1 2 4 10 8 4 8 8 8 10 9 5 6 -0 -0 -1 1 1 0 -0 -0 0 -11 -20 -5 3 3 -5 -20 -20 -20
-6 1 9 13 14 13 11 12 14 -5 7 14 13 12 13 10 9 7 4 4 8 8 8 5 -0 -0 -1 0 -2 1 -6 -20 -5 -2 -20 -20 -20 -0 0 -19 -20 -20 -20
-20 -11 10 10 16 17 15 10 15 16 9 13 13 14 11 11 10 9 8 8 5 8 8 3 2 -13 -20 -20 -20 -3 -20 -20 -20 -20 -20 -20 -20 -20 -20 -20 -20 -3 -19
-2 6 14 15 16 18 17 16 15 13 12 12 12 12 12 12 10 11 12 11 9 4 10 9 -7 -20 -20 -20 -20 -20 -20 -20 -20 -20 -20 -20 -20 -20 -20 -20 -20 -20 -9

GFSGL_prec_radar_030.txt.gz
Reflectivity
-20 -20 -20 -20 -20 -20 -11 -9 -20 -20 -20 -20 -20 -20 -20 -20 -20 -20 -20 -20 -20 -20 -20 -19 -1 19 -20 -20 -20 -20 -20 -20 -20 -20 -20 -20 -20 -20 -20 -20 -20 -20 -20
-20 -20 -20 -20 -7 -17 -20 10 2 -20 -20 -20 -20 -20 -20 -20 -20 -20 -20 -20 -20 -20 -20 -19 -18 -18 -20 -20 -20 -20 -20 -20 -20 -20 -20 -20 -20 -20 -20 -20 -20 -20 -20
-20 -20 -20 -15 7 17 -20 -17 -18 -20 -20 -20 -20 -20 -20 -20 -20 -20 -20 -20 -20 -17 -20 -20 -20 -20 -20 -20 -20 -20 -20 -20 -20 -20 -20 -20 -20 -20 -20 -20 -20 -20 -20
-20 -20 -10 -17 28 -15 -13 4 -20 -20 -20 -20 -20 -20 -20 -20 -20 -20 -20 -20 -20 -20 -20 -20 -20 -20 -20 -20 -20 -20 -20 -20 -20 -20 -20 -20 -20 -20 -4 -10 -6 -20 -20
-20 -20 -15 7 -9 25 -11 -19 -20 -20 -20 -20 -20 -20 -20 -20 -20 -20 -17 -16 -20 -20 -20 -20 -20 -20 -20 -20 -20 -20 -20 -20 -20 -20 -20 -20 -20 -20 -20 5 8 -18 -20
-20 -10 -20 18 19 -8 -9 -20 -20 -20 6 -20 -20 -20 -20 -20 -20 -20 -9 -20 -20 -20 -20 -20 -20 -20 -20 -20 -20 -20 -20 -20 -20 -20 -20 -20 -20 2 4 -8 -20 -20 -8
-20 -17 -11 -2 -1 -19 -15 -3 -17 16 -18 -20 -12 -1 -20 -20 -20 -20 -20 -20 -20 -20 -20 -20 -20 -20 -20 -20 -20 -20 -20 -20 -20 -12 -1 3 3 -20 -20 -20 -20 -20 -20
-17 -0 14 18 -11 3 -3 -20 4 -18 -8 8 -7 -20 -20 -20 -20 -18 -20 -20 -20 -20 -20 -20 -20 -20 -20 -20 -20 -20 -20 -20 -20 -20 -20 -20 -20 -20 -20 -20 -20 -20 -20
-17 6 4 10 12 -1 -20 3 -6 10 9 1 1 -1 -19 -20 -20 -20 -20 -20 -20 -20 -20 -20 -20 -20 -20 -20 -20 -20 -20 -20 -20 -20 -20 -20 -20 -20 -2 -7 -13 -20 -20
0 11 15 25 1 14 17 16 15 8 8 4 -9 -18 -15 -18 -20 -20 -20 -20 -20 -20 -20 -20 -20 -20 -20 -20 -20 -20 -20 -20 -20 -20 -20 -20 -20 -18 10 9 7 2 16
4 8 10 16 29 19 15 14 12 7 -1 -14 -20 -11 -8 -19 -20 -20 -20 -20 -20 -20 -20 -20 -20 -20 -20 -20 -20 -20 -20 -20 -20 -20 -16 -20 -16 -3 -20 -20 -20 7 5
26 21 24 17 16 11 6 3 -4 -4 -6 -3 1 -16 -20 -20 -20 -20 -20 -20 -20 -20 -20 -20 -20 -20 -20 -20 -20 -20 -20 -20 -20 -20 -20 -20 -20 -20 -13 -20 -20 -20 -13
6 15 23 19 13 9 -1 -3 -8 -15 -14 -20 -20 -20 -20 -20 -20 -20 -20 -20 -20 -20 -20 -20 -20 -20 -20 -20 -20 -20 -20 -20 -20 -20 -20 -14 -20 -20 -18 -20 -20 -20 -15
15 14 6 -8 -7 1 3 -20 -20 -20 -20 -20 -19 0 -20 -20 -20 -20 -17 -20 -20 -20 -20 -20 -20 -20 -20 -20 -20 -20 -20 -20 -20 -20 -20 -20 -20 -15 -20 -13 -20 -20 -20
-20 -20 -16 -5 -9 -20 -20 -20 -20 -20 -20 -20 -20 6 5 -9 -20 -20 -20 -14 -16 -13 -20 -20 -20 -20 -20 -20 -20 -20 -20 -20 -20 -20 -20 -20 -20 -20 -20 -20 -20 -20 -17
-16 -4 -8 -20 -20 -20 -20 -20 -20 -20 -20 -20 -20 -20 -20 -13 -20 -20 -20 -20 -20 -20 -20 -20 -20 -20 -20 -20 -20 -20 -20 -20 -20 -20 -20 -20 -16 -20 -20 -20 -2 4 -20
-20 -20 -20 -20 -20 -20 -20 -20 -20 -20 -15 -20 -20 -20 -20 -20 -20 -20 -20 -20 -20 -20 -20 -20 -20 -20 3 -20 -20 -20 -20 -20 -20 -20 -20 -20 -20 -6 -20 -20 -20 -19 -20
-20 -20 -20 -20 -20 -20 -20 -20 -13 -20 -20 -20 -20 -20 -19 -20 -20 -20 -20 -20 -5 -13 -20 -20 -20 -20 -20 -20 -20 -20 -20 -20 -20 -20 -20 -20 -17 -16 -15 -6 -20 -20 -20
-20 -20 -20 -20 -20 -20 -20 -20 -20 -20 -6 -8 -6 -20 -20 -20 -20 -20 -20 -20 -20 -20 -20 -20 -20 -20 -20 -20 -20 -20 -20 -20 -20 -20 -20 -20 -7 -3 -20 -11 -20 -20 -20
-20 -20 -20 -20 -20 -20 -20 -19 -20 -20 -20 -20 2 -18 6 7 -2 -20 -20 -20 -20 -20 -20 -14 -20 -16 -14 -7 -20 -20 -20 -20 -20 -20 -20 -20 -18 -20 -20 -16 -20 -20 -20
-20 9 16 15 -15 7 6 -19 -7 10 8 -20 -20 -20 9 11 8 -20 -20 -20 -20 -20 -20 -20 -20 -20 -20 -7 -20 -20 -15 -19 -20 -20 -20 -20 -20 -20 -20 -7 -4 4 -20
-11 -12 4 12 15 13 -20 -20 -17 -3 13 8 -20 -20 -3 8 8 0 -20 -17 5 -14 -20 -20 -20 -20 -20 -20 -12 -20 -20 -20 -14 -20 -20 -20 -20 -20 -20 -13 -20 -9 -20
2 9 14 12 14 -13 -20 -20 -20 -4 -10 -1 5 11 7 2 10 6 1 -15 1 -7 -15 -20 -19 -20 -20 -20 -20 -20 -20 -11 -20 -20 -20 -20 -20 -20 -20 -20 -20 -20 -20
-20 -18 -2 -17 16 21 17 -1 -20 -20 -6 -4 2 12 -16 5 13 27 26 23 22 -12 -19 -9 -18 -4 -11 -20 -20 -20 -20 -20 -19 -20 -20 -20 -20 -20 -20 -20 -20 -20 -20
-11 1 9 0 13 24 24 9 -20 -3 11 8 11 -7 -3 -5 8 4 13 17 12 7 6 7 5 -13 -16 -11 -2 -19 -20 -16 -20 -20 -20 -20 -20 -20 -20 -20 -20 -20 -20
2 9 10 10 7 4 10 1 -11 -19 -5 -9 -4 -0 -15 -20 -20 -20 -20 -20 -20 -9 1 7 3 0 2 -17 -16 1 3 -20 -10 -13 -20 -20 -20 -20 -20 -20 -20 -20 -20

GFSGL_prec_radar_033.txt.gz
Reflectivity
-20 -20 -20 -20 -20 -19 -16 -3 4 -4 27 -20 -20 -20 -20 -20 -20 -20 -20 -20 -20 -20 -20 -20 -20 -14 -6 -13 -17 -20 -20 -20 -20 -20 -20 -20 -20 -20 -20 -20 -20 -20 -20
-20 -20 -20 -20 -20 -20 -3 -12 -15 9 8 -20 -20 -20 -20 -20 -20 -20 -20 -20 -20 -20 -20 -20 -20 -20 -20 -20 -20 -20 -20 -20 -20 -20 -20 -20 -20 -20 -20 -20 -20 -20 -20
-20 -20 -20 -19 -4 3 8 22 -20 -18 -20 -17 -20 -20 -20 -20 -20 -20 -20 -20 -20 -20 -20 -20 -20 -20 -20 -20 -20 -20 -20 -20 -20 -20 -20 -20 -20 -20 -20 -20 -20 -20 -20
-20 -20 -20 -9 -9 6 5 -3 -18 8 6 -15 -20 -20 -0 -20 -20 -10 -20 -18 -20 -20 -20 -20 -20 -20 -20 -20 -20 -20 -20 -20 -20 -20 -20 -20 -20 -20 -20 -20 -12 -20 -20
-20 -20 -18 -10 -4 15 -8 -14 15 -5 -7 -20 -20 -20 -20 -20 -16 -7 -6 -13 -20 -20 -20 -20 -20 -20 -20 -20 -20 -20 -20 -20 -20 -20 -20 -20 -20 -20 -20 9 -20 -20 -20
-19 -19 -11 -14 -5 8 -20 9 5 1 -20 1 10 12 11 3 -20 -18 -20 -20 -20 -20 -20 -20 -20 -20 -20 -20 -20 -20 -20 -20 -20 -20 -20 -20 -20 6 0 -20 -20 -20 -20
14 -3 -8 8 14 -14 -20 -17 -7 -7 11 19 14 11 -0 -20 -20 -20 -20 -20 -20 -20 -20 -20 -20 -20 -20 -20 -20 -20 -20 -20 -20 -20 -20 -20 -20 -20 -20 -20 -20 -20 -20
-20 -20 -20 -20 8 -1 0 19 6 6 17 16 8 2 -18 -20 -20 -20 -17 -20 -20 -20 -20 -20 -20 -20 -20 -20 -20 -20 -20 -20 -20 -20 -20 -20 -20 -20 -18 -20 -20 -20 -20
-20 -20 -20 -17 -18 -15 16 16 21 10 -3 -2 -10 -18 -20 -1 -1 -20 -20 -20 -20 -20 -20 -20 -20 -20 -20 -20 -20 -20 -20 -20 -20 -20 -20 -20 -20 -20 -16 11 6 6 -20
-20 -20 -20 21 24 20 15 -3 -6 -11 3 -6 -20 -18 -8 -20 -20 -20 -20 -20 -20 -20 -20 -20 -20 -20 -20 -20 -20 -20 -20 -20 -20 -20 -20 -20 -20 -20 -20 -15 -20 -4 -6
1 18 16 27 16 6 -11 -17 -20 -20 -20 -19 -14 -20 -20 -20 -20 -20 -20 -20 -20 -20 -20 -20 -20 -20 -20 -20 -20 -20 -20 -20 -20 -20 -20 -20 -20 -20 -20 -20 -20 -9 -3
-3 20 9 -16 -14 -19 -20 -20 -19 -18 -20 -20 -20 -20 -20 -20 -20 -20 -20 -20 -20 -20 -20 -20 -20 -20 -20 -20 -20 -20 -20 -20 -20 -20 -20 -20 -20 -20 -20 -20 -20 -20 -20
3 -19 -20 -20 -20 -20 -20 -20 -20 -20 -20 -20 -20 -20 -20 -20 -20 -20 -20 -20 -20 -20 -20 -20 -20 -20 -20 -20 -20 -20 -20 -20 -20 -20 -20 -20 -20 -20 -20 -20 -20 -20 -20
-20 -20 -20 -20 -20 -20 -20 -20 -20 -20 -20 -20 -20 -20 -20 -20 1 -20 -20 -20 -20 -20 -20 -20 -20 -20 -20 -20 -20 -20 -20 -20 -20 -20 -20 -20 -20 -20 -20 -20 -20 -20 -20
-20 -20 -20 -20 -20 -20 -20 -20 -20 -20 -20 -20 -20 -20 0 -20 -5 -1 6 -20 -20 -20 -20 -20 -20 -20 -20 -20 -20 -20 -20 -20 -20 -20 -20 -20 -20 -20 -20 -20 -20 -20 -20
-20 -20 -20 -20 -20 -20 -20 -20 -20 -20 -20 -20 -20 -13 -16 -15 -20 -19 -20 -20 -20 -20 -18 -19 -20 -20 -20 -20 -20 -20 -20 -20 -20 -20 -20 -20 -20 -20 -20 -20 -20 -20 -20
-20 -20 -20 -20 -20 -20 -20 -20 -20 -20 -20 -20 -20 -20 -15 -19 -20 -20 -10 0 -18 -20 -20 -20 -20 -20 -20 -20 -20 -20 -20 -20 -20 -20 -20 -20 -20 -20 -20 -20 -20 -20 -20
-20 -20 -20 -20 -20 -20 -20 -20 -20 -20 -20 -20 -20 -20 -20 -20 5 -17 -20 13 -12 -20 -20 -20 -20 -20 -20 -20 -20 -20 -20 -20 -20 -20 -20 -20 -20 -20 -20 -20 -20 -20 -20
-20 -20 -20 -20 -20 -0 -4 18 11 -6 -20 -20 -20 -20 -20 -8 -20 -12 -4 19 -20 -20 -20 -20 -20 -20 -20 -20 -20 -20 -20 -20 -20 -20 -20 -20 -20 -20 -20 -20 -20 -20 -20
-10 -18 -20 3 -15 4 9 11 12 -8 -20 -20 -20 -20 -20 -16 -8 -20 -20 12 -12 -20 -20 -20 -20 -20 -20 -20 -20 -20 -17 -20 -20 -20 -20 -20 -20 -20 -20 -20 -20 -20 -20
-20 -16 -6 -16 -16 2 -3 1 14 17 -8 -20 -4 -20 -19 -14 -8 -7 -20 -17 14 -11 -20 -20 -20 -20 -20 -20 -20 -20 -20 -20 -20 -20 -20 -20 -20 -20 -20 -20 -20 -20 -20
-20 -20 -20 -20 -20 -19 -0 16 17 10 -13 -1 -20 -20 -20 -20 -10 1 -20 -20 5 3 -9 -7 -20 -20 -20 -20 -20 -20 -20 -20 -20 -20 -20 -20 -20 -20 -20 -20 -20 -20 -20
-20 -20 -20 -20 -17 -3 -19 -16 2 7 24 21 -20 -20 -20 -10 7 -16 -20 -19 16 17 -12 -7 -17 -20 -20 -20 -20 -20 -20 -20 -20 -20 -20 -20 -20 -20 -20 -20 -20 -20 -20
1 6 -12 -20 -18 -0 -7 -20 -13 26 23 -10 -19 9 18 6 10 8 -18 6 13 22 23 18 8 -10 -6 -18 -18 -20 -20 -20 -20 -20 -20 -20 -20 -20 -20 -20 -20 -20 -20
-20 -20 -3 -20 -20 -17 -20 -3 1 7 17 14 0 -20 -20 -20 -20 -20 -20 -20 -20 -20 -9 9 18 8 -18 -20 -20 -20 -20 -20 -16 -20 -20 -20 -20 -20 -20 -20 -20 -20 -20
-20 -6 -20 -20 -20 -20 -20 4 14 22 24 20 4 -20 -20 -20 -20 -20 -20 -20 -20 -20 -20 -20 -20 -20 -5 13 -17 -8 1 -15 1 -16 -19 -19 -20 -20 -20 -20 -20 -20 -20

GFSGL_prec_radar_036.txt.gz
Reflectivity
-20 -20 -20 -20 -20 -20 6 5 11 10 -18 4 -6 2 -20 -20 -20 -20 -20 -20 -20 -20 -20 -20 -20 -20 -20 -20 -20 -20 -20 -20 -20 -20 -20 -20 -20 -20 -20 -20 -20 -20 -20
-20 -20 -20 -20 -20 -12 -15 -7 -20 -20 -2 -19 -19 -20 -20 -20 -20 -20 -20 -16 -20 -20 -20 -20 -20 -20 -20 -20 -20 -20 -20 -20 -20 -20 -20 -20 -20 -20 -20 -20 -20 -20 -20
-19 1 -20 -20 -20 -13 -10 -20 -20 10 -20 -20 -20 -20 -20 -20 -20 -20 -20 -20 -20 -20 -15 -5 -20 -20 -20 -20 -20 -20 -20 -20 -20 -20 -20 -20 -20 -20 -20 -20 -20 -20 -20
-20 -20 -20 -20 -17 -9 -7 -20 -20 -20 -20 -20 -20 -20 -20 -13 -20 -20 -20 -20 -20 -20 -20 -20 -20 -20 -20 -20 -20 -20 -20 -20 -20 -20 -20 -20 -20 -20 -20 -20 -16 -20 -20
18 -20 -0 13 -18 -20 -0 33 -1 28 -20 17 -1 -20 1 3 -9 1 -18 -20 -20 -20 -20 -20 -20 -20 -20 -20 -20 -20 -20 -20 -20 -20 -20 -20 -20 -20 -20 -20 -20 -20 -20
-20 -9 -7 -1 5 11 -20 8 11 -18 -3 2 -1 4 -20 -20 -20 -20 -20 -20 -20 -20 -20 -20 -20 -20 -20 -20 -20 -20 -20 -20 -20 -20 -20 -20 -20 -20 -20 -20 -20 -20 -20
15 10 14 -20 -20 -20 3 -1 -9 18 26 21 14 -14 -20 -20 -20 -20 -20 -20 -20 -20 -20 -20 -20 -20 -20 -20 -20 -20 -20 -20 -20 -20 -20 -20 -20 -20 -20 -20 -20 -20 -16
-3 -5 -20 -8 1 -20 -20 -10 12 25 16 -17 -20 -20 -20 -20 -20 -20 -20 -20 -20 -20 -20 -20 -20 -20 -20 -20 -20 -20 -20 -20 -20 -20 -20 -20 -20 -20 -5 -8 3 6 -20
-20 -20 -20 -20 -20 -1 36 36 11 -13 -20 -20 -20 -20 -20 -20 -20 -20 -20 -20 -20 -20 -20 -20 -20 -20 -20 -20 -20 -20 -20 -20 -20 -20 -20 -20 -20 -20 -17 6 -20 -5 -20
-20 -18 -3 -12 30 30 9 -18 -20 -20 -20 -20 -20 -20 -20 -20 -20 -20 -20 -17 -3 -20 -20 -20 -20 -20 -20 -20 -20 -20 -20 -20 -20 -20 -20 -20 -20 -20 -20 -20 -20 -1 -20
29 25 9 30 24 -8 -20 -20 -20 -20 -20 -20 -20 -20 -20 -20 -20 -20 -20 -20 -20 -20 -20 -20 -20 -20 -20 -20 -20 -20 -20 -20 -20 -20 -20 -20 -20 -20 -20 -20 -20 -20 -20
-20 16 3 -20 -20 -20 -20 -20 -20 -20 -20 -20 -20 -20 -20 -20 -20 -20 -20 -20 -20 -20 -20 -20 -20 -20 -20 -20 -20 -20 -20 -20 -20 -20 -20 -20 -20 -20 -20 -20 -20 -20 -20
15 -19 -20 -20 -20 -20 -20 -20 -20 -20 -20 -20 -20 -20 -20 -20 -20 -20 -20 -20 -20 -20 -20 -20 -20 -20 -20 -20 -20 -20 -20 -20 -20 -20 -20 -20 -20 -20 -20 -20 -20 -20 -20
-20 -20 -20 -20 -20 -20 -20 -20 -20 -20 -20 -20 -20 -20 -20 -20 -20 -20 -20 -20 -18 3 -17 -20 -20 -20 -20 -20 -20 -20 -20 -20 -20 -20 -20 -20 -20 -20 -20 -20 -20 -20 -20
-20 -20 -20 -20 -20 -20 -20 -20 -20 -20 -20 -20 -20 -20 -20 -20 -20 -20 -12 -20 -20 -6 -16 -20 -20 -20 -20 -20 -20 -20 -20 -20 -20 -20 -20 -20 -20 -20 -20 -20 -20 -20 -20
-20 -20 -20 -20 -20 -20 -20 -20 -20 -20 -20 -20 -20 -20 -20 -20 -20 -20 -20 -20 -18 -2 9 -20 -20 -20 -20 -20 -20 -20 -20 -20 -20 -20 -20 -20 -20 -20 -20 -20 -20 -20 -20
-20 -20 -20 -20 -20 -20 -20 -20 -20 -20 -20 -20 -20 -20 -20 -20 -20 -20 -20 -20 -13 4 15 -20 -20 -20 -20 -20 -20 -20 -20 -20 -20 -20 -20 -20 -20 -20 -20 -20 -20 -20 -20
-20 -20 -20 -20 -20 -20 -20 -20 -20 5 7 -19 -18 7 -18 -20 -20 -20 -20 8 -4 2 6 -20 -20 -20 -20 -20 -20 -20 -20 -20 -20 -20 -20 -20 -20 -20 -20 -20 -20 -20 -20
-20 -20 -20 -20 -20 -20 -8 -14 -4 -11 -18 -20 -20 -2 -20 -20 -20 -20 -20 -13 5 -11 -19 1 -20 -20 -20 -20 -20 -20 -20 -20 -20 -20 -20 -20 -20 -20 -20 -20 -20 -20 -20
-20 -20 -20 -20 -20 -20 -20 -11 -3 9 5 -15 -19 -20 11 -17 -20 -20 -20 -20 -20 -20 -20 1 11 -20 -20 -20 -20 -20 -20 -20 -20 -20 -20 -20 -20 -20 -20 -20 -20 -20 -20
-20 -20 -20 -20 -20 -20 -20 -20 1 -1 5 -8 9 19 6 10 -20 -20 -20 -20 -20 -20 -20 -12 4 -20 -20 -7 -20 -20 -20 -20 -20 -20 -20 -20 -20 -20 -20 -20 -20 -20 -20
-20 -20 -16 2 -4 -16 -15 -4 -1 -18 -18 -19 -19 -17 -20 22 6 -20 -20 -20 -20 -20 -16 -4 18 -13 -20 -19 -20 -20 -20 -20 -20 -20 -20 -20 -20 -20 -20 -20 -20 -20 -20
-20 -20 -20 -11 -20 -16 -20 -20 -20 -15 -1 -20 11 16 20 -12 -13 1 7 7 -9 -9 -12 -2 15 8 -20 -20 -16 -18 -20 -20 -20 -20 -20 -20 -20 -20 -20 -20 -20 -20 -20
-20 -15 -20 -20 -20 -20 -20 -20 -20 -19 -7 -1 25 28 11 2 13 -1 -20 -20 -20 -20 -20 -14 14 20 12 -18 -16 -17 -17 -20 -20 -20 -11 -20 -20 -20 -20 -20 -20 -20 -20
-20 -20 -20 -20 -20 -20 -20 -20 -20 -20 -1 13 12 16 13 2 8 4 -19 -20 -20 -20 -20 -20 -20 -16 -8 -5 15 -13 -20 -20 -16 -18 1 -5 -20 -20 -20 -20 -20 -20 -20
-20 -16 -20 -20 -20 -20 -20 -20 -20 -20 -20 -20 -6 5 8 14 13 1 -20 -20 -20 -20 -20 -20 -20 -20 -20 -20 -20 -20 3 -7 -16 -5 -16 3 -18 -20 -20 -20 -20 -20 -20

GFSGL_prec_radar_039.txt.gz
Reflectivity
-20 -20 -20 9 -20 -20 -20 -17 -16 -16 12 -20 -20 -20 12 -2 -17 -20 -20 -20 -20 -20 -20 -20 -20 -20 -20 -20 -20 -20 -20 -20 -20 -20 -20 -20 -20 -20 -20 -20 -20 -20 -20
20 8 7 -20 11 -20 -20 -20 -20 -20 -18 -20 -11 -2 8 -1 -15 -19 -7 -20 -20 -20 -20 -20 -20 -20 -20 -20 -20 -20 -20 -20 -20 -20 -20 -20 -20 -20 -20 -20 -20 -20 -20
-12 -11 13 -20 -20 -16 -13 18 5 -20 -20 -20 22 15 10 -14 -20 -5 -19 -20 -20 -20 -20 -20 -20 -20 -20 -20 -20 -20 -20 -20 -20 -20 -20 -20 -20 -20 -20 -20 -20 -20 -20
2 -5 -4 -5 1 -10 -9 17 -6 11 19 -4 2 2 0 -16 -7 -20 -20 -20 -20 -20 -20 -20 -20 -20 -20 -20 -20 -20 -20 -20 -20 -20 -20 -20 -20 -20 -20 -20 -20 -20 -20
-19 11 8 4 -17 5 1 -16 15 -19 5 -7 0 17 18 4 -20 -20 -20 -20 -20 -20 -20 -20 -20 -20 -20 -20 -20 -20 -20 -20 -20 -20 -20 -20 -20 -20 -20 -20 -20 -20 -20
-20 -20 -20 -20 7 2 -12 -9 -6 5 10 6 28 28 20 2 -20 -20 -20 -20 -20 -20 -20 -20 -20 -20 -20 -20 -20 -20 -20 -20 -20 -20 -20 -20 -20 -20 -20 -20 -20 -20 -20
-19 10 -20 -10 10 -7 5 -3 13 14 27 35 28 7 -20 -20 -20 -20 -20 -20 -20 -20 -20 -20 -20 -20 -20 -20 -20 -20 -20 -20 -20 -20 -20 -20 -20 -20 -20 -20 -20 -20 -16
-7 -1 5 -2 -5 -17 -5 -6 2 30 27 -8 -20 -20 -20 -20 -20 -20 -20 -20 -20 -20 -20 -20 -20 -20 -20 -20 -20 -20 -20 -20 -20 -20 -20 -20 -20 -20 -20 -10 8 8 -20
-2 -7 -2 -20 -20 -20 13 19 33 11 -20 -20 -20 -20 -20 -20 -20 -20 -20 -20 -20 -20 -20 -20 -20 -20 -20 -20 -20 -20 -20 -20 -20 -20 -20 -20 -20 -20 -20 -20 -20 -4 -20
-20 -20 -20 -12 21 36 30 18 -20 -20 -20 -20 -20 -20 -20 -20 -20 -20 -20 -20 -20 -20 -20 -20 -20 -20 -20 -20 -20 -20 -20 -20 -20 -20 -20 -20 -20 -20 -20 -20 -20 -10 -19
-14 14 23 13 8 21 -9 -18 -20 -20 -20 -20 -20 -20 -20 -20 -20 -20 -20 -20 -20 -20 -20 -20 -20 -20 -20 -20 -20 -20 -20 -20 -20 -20 -20 -20 -20 -20 -20 -20 -20 -20 -20
6 -11 -9 -5 -19 -20 -20 -20 -20 -20 -20 -20 -20 -20 -20 -20 -20 -20 -20 -20 -20 -20 -20 -20 -20 -20 -20 -20 -20 -20 -20 -20 -20 -20 -20 -20 -20 -20 -20 -20 -20 -20 -20
-20 -19 -20 -20 -20 -20 -20 -20 -20 -20 -20 -20 -20 -20 -20 -20 -20 -20 -20 -20 -20 -20 -20 -20 -20 -20 -20 -20 -20 -20 -20 -20 -20 -20 -20 -20 -20 -20 -20 -20 -20 -20 -20
-20 -20 -20 -20 -20 -20 -20 -20 -20 -20 -20 -20 -20 -20 -20 -20 -20 -20 -20 -20 -20 -20 -20 -20 -20 12 -3 -20 -20 -20 -20 -20 -20 -20 -20 -20 -20 -20 -20 -20 -20 -20 -20
-20 -20 -20 -20 -20 -20 -20 -20 -20 -20 -20 -20 -20 -20 -20 -20 -20 -20 -20 -20 -20 -20 -8 2 -13 -7 -19 -20 -20 -20 -20 -20 -20 -20 -20 -20 -20 -20 -20 -20 -20 -20 -20
-20 -20 -20 -20 -20 -20 -20 -20 -20 -20 -20 -20 -20 -20 -20 -20 -20 -20 -20 -20 -20 -20 4 -19 -13 -16 -20 -20 -20 -20 -20 -20 -20 -20 -20 -20 -20 -20 -20 -20 -20 -20 -20
-20 -20 -20 -20 -20 -20 -20 -20 -20 -20 -20 -20 -20 -20 -20 -19 3 37 -8 -20 -20 -20 -17 -20 -20 -20 -20 -1 -20 -20 -20 -20 -20 -20 -20 -20 -20 -20 -20 -20 -20 -20 -20
-20 -20 -20 -20 -20 -20 -20 -15 -8 -16 -16 -20 -20 -15 -20 -20 -20 -14 -1 -20 -20 -8 -20 -20 -20 -20 -20 13 -13 -20 -20 -20 -20 -20 -20 -20 -20 -20 -20 -20 -20 -20 -20
-20 -20 -20 -20 -20 -20 -20 -20 -20 -20 -18 -7 -15 -20 -16 -20 -20 -19 33 14 -20 -20 -20 -20 -20 -20 -20 8 -7 -20 -20 -20 -20 -20 -20 -20 -20 -20 -20 -20 -20 -20 -20
-20 -20 -20 -20 -20 -15 -20 -20 -17 -3 -1 2 -6 -19 -20 2 -16 4 25 6 -20 -20 -20 -20 -20 -20 -20 -0 -4 -20 -20 -20 -20 -20 -20 -20 -20 -20 -20 -20 -20 -20 -20
-20 -20 -20 -20 -20 -20 -6 -19 -19 -20 -20 -20 -20 -20 -19 -5 -8 -4 -20 -20 -20 -20 -20 -20 -20 -20 -8 -18 -20 -20 -20 -20 -20 -20 -20 -20 -20 -20 -20 -20 -20 -20 -20
-20 -20 -20 -20 -20 -20 -20 -9 -20 -20 -20 -20 -20 -20 -11 0 8 -6 13 9 -9 8 -7 -19 -2 3 -10 6 -9 -3 -1 -20 -9 -20 -20 -20 -20 -20 -20 -20 -20 -20 -20
-20 -20 -20 -20 -20 -20 -20 -20 -20 -20 -20 -20 -20 -20 -11 6 13 19 11 9 11 -20 -20 -20 -20 7 3 14 13 -18 -8 -20 -1 7 -20 -20 -20 -20 -20 -20 -20 -20 -20
-20 -20 -20 -20 -20 -20 -20 -20 -20 -20 -20 -20 -20 -20 -10 -0 14 17 13 15 19 -6 -20 -20 -17 -3 -16 8 -2 15 10 -9 7 -4 -17 -3 -20 -20 -20 -20 -20 -20 -20
-20 -20 -20 -20 -20 -20 -20 -20 -20 -20 -20 -20 -20 -20 -20 -20 -8 12 16 12 4 -16 -20 -20 -20 -20 -4 4 -18 -9 -17 -13 -20 -20 -9 -5 -17 -20 -20 -20 -20 -20 -20
-20 -20 -20 -20 -20 -20 -20 -20 -20 -20 -20 -20 -20 -20 -20 -20 -20 -20 -2 6 2 -17 -20 -20 -20 -20 -20 -20 -20 -20 -20 -18 -7 -13 -19 -12 -1 -15 -15 -20 -20 -20 -20

GFSGL_prec_radar_042.txt.gz
Reflectivity
10 -11 -1 -5 27 28 0 21 17 11 -4 4 6 -13 -8 -20 -20 13 -18 -20 -20 -20 -20 -20 -20 -20 -20 -20 -20 -20 -20 -20 -20 -20 -20 -20 -20 -20 -20 -20 -20 -20 -20
-6 -20 5 27 28 23 17 12 -20 -20 -20 18 19 -9 8 -13 -4 10 10 -9 -20 -20 -20 -20 -20 -20 -20 -20 -20 -20 -20 -20 -20 -20 -20 -20 -20 -20 -20 -20 -20 -20 -20
22 -20 -16 -19 25 12 -20 15 5 -14 -20 6 -9 -14 -20 8 -20 6 4 -20 -20 -20 -20 -20 -20 -20 -20 -20 -20 -20 -20 -20 -20 -20 -20 -20 -20 -20 -20 -20 -20 -20 -20
19 22 22 6 -20 -2 8 -18 -20 -16 -20 8 -20 21 0 22 25 6 2 -19 -20 -20 -20 -20 -20 -20 -20 -20 -20 -20 -20 -20 -20 -20 -20 -20 -20 -20 -20 -20 -20 -20 -20
16 23 -10 -20 -20 -17 -20 -14 2 -20 -20 -20 0 23 28 9 16 -7 -20 -20 -20 -20 -20 -20 -20 -20 -20 -20 -20 -20 -20 -20 -20 -20 -20 -20 -20 -20 -20 -20 -20 -20 -20
-20 -20 -20 -20 -20 -20 -20 -20 -20 30 -14 23 21 26 27 19 -20 -20 -20 -20 -20 -20 -20 -20 -20 -20 -20 -20 -20 -20 -20 -20 -20 -20 -20 -20 -20 -20 -20 -20 -20 -20 -20
-20 -20 -20 -20 -8 -20 -7 -6 -18 -9 10 39 23 27 3 -20 -20 -20 -20 -20 -20 -20 -20 -20 -20 -20 -20 -20 -20 -20 -20 -20 -20 -20 -20 -20 -20 -20 -20 -20 -20 3 2
-20 -20 -20 -20 -20 -5 -3 8 19 30 36 36 12 -9 -20 -20 -20 -20 -20 -20 -20 -20 -20 -20 -20 -20 -20 -13 -20 -20 -20 -20 -20 -20 -20 -20 -20 -20 -20 -20 -20 -20 -20
-20 -20 -20 -20 -13 -1 15 21 35 22 -10 -14 -6 -19 -20 -20 -20 -20 -20 -20 -20 -20 -20 -20 -20 -20 -19 -20 -20 -20 -20 -20 -20 -20 -20 -20 -20 -20 -20 -20 -20 -20 -20
-20 -20 -20 -20 3 27 24 9 -6 -20 -20 -20 -20 -20 -20 -20 -20 -20 -20 -20 -20 -20 -20 -20 -20 -20 -20 -20 -20 -20 -20 -20 -20 -20 -20 -20 -20 -20 -20 -20 -20 -20 -20
-20 -20 -14 1 9 11 -8 -20 -20 -20 -20 -20 -20 -20 -20 -20 -20 -20 -20 -20 -20 -20 -20 -20 -20 -20 -20 -20 -20 -20 -20 -20 -20 -20 -20 -20 -20 -20 -20 -20 -20 -20 -20
-16 3 -1 -11 -20 -20 -20 -20 -20 -20 -20 -20 -20 -20 -20 -20 -20 -20 -20 -20 -20 -20 -20 -20 -20 -20 -20 -20 -20 -20 -20 -20 -20 -20 -20 -20 -20 -20 -20 -20 -20 -20 -20
-20 -20 -20 -20 -20 -20 -20 -20 -20 -20 -20 -20 -20 -20 -20 -20 -20 -20 -20 -20 -20 -20 -20 -20 -20 -20 -20 -9 1 -20 -20 -20 -20 -20 -20 -20 -20 -20 -20 -20 -20 -20 -20
-20 -20 -20 -20 -20 -20 -20 -20 -20 -20 -20 -20 -20 -20 -20 -20 -20 -20 -20 -20 -20 -20 -20 -20 -20 -20 -14 -15 -18 17 5 -20 -20 -20 -20 -20 -20 -20 -20 -20 -20 -20 -20
-20 -20 -20 -20 -20 -20 -20 -20 -20 -20 -20 -20 -20 -20 -20 -20 -20 -20 -20 -20 11 0 -9 -4 -20 -20 -19 -14 -2 -20 -11 -18 -20 -20 -20 -20 -20 -20 -20 -20 -20 -20 -20
-20 -20 -20 -20 -20 -20 -20 -20 -20 -20 -20 -20 -20 -20 -20 -20 -20 -20 -20 -14 13 19 23 -11 -20 -20 -20 -20 -17 2 11 -7 -20 -20 -20 -20 -20 -20 -20 -20 -20 -20 -20
-20 -20 -20 -20 -20 -20 -20 -20 -20 -20 -20 -20 -20 -20 -20 -20 -20 -20 2 11 -19 12 27 15 -20 -20 -20 -20 -20 -20 14 13 -20 -20 -20 -20 -20 -20 -20 -20 -20 -20 -20
-20 -20 -20 -20 -20 -20 -20 -20 -20 -20 -20 -20 -20 -20 -20 -1 -15 -16 -13 -17 7 5 -3 9 -1 -20 -20 -20 -20 -19 -16 9 -20 -20 -20 -20 -20 -20 -20 -20 -20 -20 -20
-20 -20 -20 -20 -20 -20 -20 -20 -20 -20 -18 -20 -20 -20 -20 -20 -20 -14 -15 10 7 8 3 18 -19 -20 -18 -20 -20 -20 -3 -7 -20 -20 -20 -20 -20 -20 -20 -20 -20 -20 -20
-20 -20 -20 -20 -20 -20 -20 -20 -20 -12 -20 -20 -20 -20 -20 -20 -20 -20 -20 -20 -20 -20 23 13 -20 -20 -20 -20 -20 -14 3 -20 -20 -20 -20 -20 -20 -20 -20 -20 -20 -20 -20
-20 -20 -20 -20 -20 -20 -20 -20 -20 -20 -20 -20 -20 -20 -20 -20 -20 -20 -12 0 13 17 20 11 3 -18 -20 -20 -20 5 2 -20 -20 -20 -20 -20 -20 -20 -20 -20 -20 -20 -20
-20 -20 -20 -20 -20 -20 -20 -20 -20 -20 -20 -20 -20 -20 -20 -20 -20 -20 -13 10 7 9 15 11 11 -14 -16 -19 -20 5 9 -9 -20 -20 -20 -20 -20 -20 -20 -20 -20 -20 -20
-20 -20 -20 -20 -20 -20 -20 -20 -20 -20 -20 -20 -20 -20 -20 -20 -20 -20 -20 -5 12 16 17 14 -1 4 -20 -20 7 18 11 -15 1 7 3 -20 -20 -20 -20 -20 -20 -20 -20
-20 -20 -20 -20 -20 -20 -20 -20 -20 -20 -20 -20 -20 -20 -20 -20 -20 -20 -20 -20 -15 11 13 12 10 -15 -20 -20 -20 -8 16 10 10 13 12 8 -20 -20 -20 -20 -20 -20 -20
-20 -20 -20 -20 -20 -20 -20 -20 -20 -20 -20 -20 -20 -20 -20 -20 -20 -20 -20 -20 -20 -9 8 11 16 0 -20 -20 -20 -20 -10 7 16 10 13 9 -20 -20 -20 -20 -20 -20 -20
-20 -20 -20 -20 -20 -20 -20 -20 -20 -20 -20 -20 -20 -20 -20 -20 -20 -20 -20 -20 -20 -20 -4 -4 5 -12 -20 -20 -20 -20 -20 -20 -4 9 10 -7 -19 -20 -18 -20 -19 -20 -20

GFSGL_prec_radar_045.txt.gz
Reflectivity
-20 -20 -20 -16 10 -6 23 24 19 8 -7 -20 13 10 -18 -12 24 -13 -20 4 8 -20 -20 -20 -20 -20 -20 -20 -20 -20 -20 -9 4 -20 -20 -20 -20 -20 -20 -20 -20 -20 -20
-20 -20 24 -20 -20 -13 23 -16 22 13 -8 11 13 -5 27 4 15 -15 7 35 -12 -20 -20 -20 -20 -20 -20 -20 -20 -20 -20 -20 -20 -20 -20 -20 -20 -20 -20 -20 -20 -20 -20
-20 -13 -4 22 19 19 25 22 20 14 14 1 -19 11 40 9 18 -4 5 -20 -20 -20 -20 -20 -20 -20 -20 -20 -20 -20 -20 -20 -20 -20 -20 -20 -20 -20 -20 -20 -20 -20 -20
-20 -20 -11 -20 -20 22 19 18 14 -4 -11 -18 6 16 5 10 33 22 11 -20 -20 -20 -20 -20 -20 -20 -20 -20 -20 -20 -20 -20 -20 -20 -20 -20 -20 -20 -20 -20 -20 -20 -20
-20 -6 -8 -15 -20 -7 -13 -20 -20 -20 -7 6 23 -3 26 22 24 26 26 -2 -20 -20 -20 -20 -20 -20 -20 -20 -20 -20 -20 -20 -20 -20 -20 -20 -20 -20 -20 -20 -20 -20 -20
-20 -20 -20 -20 -20 -20 -17 -19 -8 16 16 15 4 -2 27 20 32 20 -4 -20 -20 -20 -20 -20 -20 -20 -20 -20 -20 -20 -20 -20 -20 -20 -20 -20 -20 -20 -20 -20 -20 -20 -20
-20 -20 -20 -20 -20 -19 -20 -20 -13 -12 23 -3 28 30 26 20 14 -8 -18 -18 -20 -20 -20 -20 -20 -20 -20 -20 -20 -20 -20 -20 -20 -20 -20 -20 -20 -20 -20 -20 -20 -20 -20
-20 -20 -20 -20 -20 -20 -20 -17 -18 6 26 23 9 -9 -7 -20 -20 -20 -20 -20 -20 -20 -20 -20 -20 -20 -20 -20 -20 -11 -17 -20 -20 -20 -20 -20 -20 -20 -20 -20 -14 -5 -20
-20 -20 -20 -20 -20 -20 -20 -11 18 0 -9 -19 -20 -20 -20 -20 -20 -20 -20 -20 -20 -20 -20 -20 -20 -20 -20 -20 -20 -18 -20 -20 -20 -20 -20 -20 -20 -20 -20 -20 -5 -20 -20
-20 -20 -20 -20 -20 -20 -15 -4 5 -20 -20 -20 -20 -20 -20 -20 -20 -20 -20 -20 -20 -20 -20 -20 -20 -20 -20 -20 -20 -19 -19 -20 -20 -20 -20 -20 -20 -20 -20 -20 -20 -4 -5
-20 -20 -20 -19 -6 -10 -9 -20 -20 -20 -20 -20 -20 -20 -20 -20 -20 -20 -20 -20 -20 -20 -20 -20 -20 -20 -20 -20 -20 -4 -16 -20 -20 -20 -20 -20 -20 -20 -20 -20 -20 -20 -3
-20 -20 -20 -20 -20 -20 -20 -20 -20 -20 -20 -20 -20 -20 -20 -20 -20 -20 -20 -20 -20 -20 -20 -20 -20 -20 -20 -20 -20 -16 -17 9 -14 -20 -20 -20 -20 -20 -20 -20 -20 -20 -20
-20 -20 -20 -20 -20 -20 -20 -20 -20 -20 -20 -20 -20 -20 -20 -20 -20 -20 -20 -20 -20 -8 -20 -20 -20 -20 -20 -20 -20 -20 -17 17 7 1 -18 -20 -20 -20 -20 -20 -20 -20 -20
-20 -20 -20 -20 -20 -20 -20 -20 -20 -20 -20 -20 -20 -18 -18 -6 -2 5 11 -15 -15 -20 -20 4 22 -5 -6 -20 -20 -14 27 8 -16 1 -20 -20 -20 -20 -20 -20 -20 -20 -20
-20 -20 -20 -20 -20 -20 -20 -20 -20 -20 -20 -20 -20 -20 -2 -2 -4 1 2 3 8 12 12 -8 15 13 -20 -7 -20 -13 -2 5 7 -13 -3 -1 -20 -20 -20 -20 -20 -20 -20
-20 -20 -20 -20 -20 -20 -20 -20 -20 -20 -20 -20 -20 -20 -15 -13 -20 -20 -20 -20 -3 2 8 11 11 9 -6 11 -20 -20 -20 -4 -10 11 12 -20 -20 -20 -20 -20 -20 -20 -20
-20 -20 -20 -20 -20 -20 -20 -20 -20 -20 -20 -20 -20 -20 -20 -20 -20 -20 -20 -20 -20 -20 8 0 15 14 -20 10 -11 -20 -20 -1 -14 -9 13 -16 -20 -20 -20 -20 -20 -20 -20
-20 -20 -20 -20 -20 -20 -20 -20 -20 -20 -20 -20 -20 -20 -20 -20 -20 -20 -20 -20 -5 5 10 16 18 20 4 -8 2 -20 -20 -9 -16 -5 -20 -20 -20 -20 2 -20 -20 -20 -20
-20 -20 -20 -20 -20 -20 -20 -20 -20 -20 -20 -20 -20 -20 -20 -20 -20 -20 -20 -20 -20 -20 -9 12 15 16 17 19 -18 -19 -12 1 -5 -20 -20 -20 -20 -20 3 -20 -20 -20 -20
-20 -20 -20 -20 -20 -20 -20 -20 -20 -20 -20 -20 -20 -20 -20 -20 -20 -20 -20 -1 -20 -20 -20 -20 -17 29 11 1 -0 -18 -0 2 -4 -20 -20 -17 -20 -20 -20 -20 -20 0 -20
-20 -20 -20 -20 -20 -20 -20 -20 -20 -20 -20 -20 -20 -20 -20 -9 -4 -4 -1 -2 -8 -19 -20 -20 -12 8 16 21 9 2 -17 -1 -12 -16 -3 -20 -20 -20 -20 -20 -20 -20 -20
-20 -20 -20 -20 -20 -20 -20 -20 -20 -20 -20 -20 -20 -20 -20 -20 -20 -14 -4 -19 -1 -0 -5 -6 -12 10 9 2 12 12 2 4 -13 3 -4 -11 -20 -20 -20 -20 -20 -20 -20
-20 -20 -20 -20 -20 -20 -20 -20 -20 -20 -20 -20 -20 -20 -20 -20 -20 -20 -3 -20 -5 -3 -8 -19 -15 4 15 15 12 8 -4 5 10 7 -4 10 -11 -20 -20 -20 -20 -20 -20
-20 -20 -20 -20 -20 -20 -20 -20 -20 -20 -20 -20 -20 -20 -20 -20 -20 -20 -20 -20 -20 -14 -20 -4 -18 -1 11 13 8 -5 1 -17 16 14 2 -7 5 -11 -20 -20 -20 -20 -20
-20 -20 -20 -20 -20 -20 -20 -20 -20 -20 -20 -20 -20 -20 -20 -20 -20 -20 -20 -20 -20 -20 -20 -17 -20 -20 -12 4 9 -18 -20 -20 2 12 10 6 -11 -19 -19 -19 -20 -20 -20
-20 -20 -20 -20 -20 -20 -20 -20 -20 -20 -20 -20 -20 -20 -20 -20 -20 -20 -20 -20 -20 -20 -20 -20 -20 -20 -20 -7 6 -15 -20 -20 -20 -20 -1 6 8 -16 -13 -20 -18 2 -20

GFSGL_prec_radar_048.txt.gz
Reflectivity
-20 -20 -20 -20 -20 -20 10 6 9 4 14 16 27 -8 -16 2 -2 13 13 32 27 26 5 -19 -10 -9 -18 -20 -20 -20 -20 -20 -20 -20 -20 -20 -20 -20 -20 -20 -20 -20 -20
-20 -20 -20 1 -7 -19 1 -19 -19 19 17 16 -15 -20 26 14 11 -4 18 32 32 27 10 13 -1 -2 -20 -20 -20 -20 -6 -20 3 -20 -20 -20 -20 -20 -20 -20 -20 -20 -20
-20 -20 -20 -18 -5 -12 -11 -19 -18 18 28 -9 22 31 19 -15 8 12 7 30 14 11 9 11 8 6 -12 -20 1 -16 -20 -3 -20 -20 -20 -20 -20 -20 -20 -20 -20 -20 -20
-20 -20 -20 -20 -20 -20 -20 -20 -20 -12 -5 -7 -19 -4 2 22 17 22 12 21 26 19 11 13 -19 -20 -20 -2 4 -20 -19 -19 -20 -20 -20 -20 -20 -20 -20 -20 -20 -20 -20
-20 -20 -8 -9 -20 -20 -20 -20 -20 -20 -20 -20 -20 -3 21 21 21 11 16 19 15 18 9 3 -17 -20 -20 -20 -20 -20 7 -5 -20 -18 -20 -20 -20 -20 -20 -20 -20 -20 -20
-20 -20 -20 -20 -20 -20 -20 -20 -20 -20 -20 -20 -20 -20 -4 -20 10 15 17 21 5 4 -20 -20 -20 -20 -20 -20 -20 -20 -20 5 7 5 -18 -7 -20 -20 -20 -20 -20 -20 -20
-20 -20 -20 -20 -20 -20 -20 -20 -20 -20 -20 8 -19 -15 1 8 19 14 -8 -7 -20 -20 -20 -20 -20 -20 -20 -20 -20 -20 -20 -20 -20 -18 -13 -1 -15 -20 -20 -20 -20 -20 -20
-20 -20 -20 -20 -20 -20 -20 -20 -20 -20 -20 -19 -18 -12 -5 -3 -20 -20 -20 -20 -20 -20 -20 -20 -20 -20 -20 -20 -20 -20 -20 -16 -10 -20 -20 -20 -20 -20 -20 -20 -20 -11 -20
-20 -20 -20 -20 -20 -20 -20 -20 -20 -20 -15 -20 -20 -11 -5 -20 -20 -20 -20 -20 -20 -20 -20 -20 -20 -20 -20 -20 -20 -20 -20 -2 -12 -18 -20 -20 -20 -20 -20 -20 -20 -20 -11
-20 -20 -20 -20 -20 -18 -20 -20 -20 -20 -20 -20 -20 -20 -20 -20 -20 -20 -20 -20 -20 -20 -20 -20 -20 -20 -20 -20 -20 -20 -13 -10 6 3 -19 -20 -20 -20 -20 -20 -20 -19 -2
-20 -20 -20 -19 -20 -20 -6 -20 -20 -20 -20 -20 -20 -20 -20 -20 -20 -20 -20 -20 -20 -20 -20 -20 -20 -20 -20 -20 -20 -20 -20 -15 -2 -13 16 -12 -20 -20 -20 -20 -20 -3 0
-20 -20 -20 -20 -20 -20 -20 -20 -20 -20 -20 -20 -20 -20 -20 -20 -20 -20 -20 -20 -20 0 0 9 9 9 -7 -20 -20 -20 -20 -20 7 8 8 11 -19 -20 -20 -20 -20 -20 -20
-20 -20 -20 -20 -20 -20 -20 -20 -20 -20 -20 -20 -20 -20 -20 -20 -20 -20 -20 -20 -20 -20 -17 9 -20 -20 -19 22 18 -7 18 25 5 8 11 0 5 -1 -20 -20 -20 -20 -20
-20 -20 -20 -20 -20 -20 -20 -20 -20 -20 -20 -20 -20 -20 -20 -20 -20 -20 -20 -20 -20 -18 -17 1 -20 -1 -16 -1 17 9 9 7 5 8 10 1 15 9 -18 -11 -1 1 3
-20 -20 -20 -20 -20 -20 -20 -20 -20 -20 -20 -20 -20 -20 -20 -20 -20 -20 -20 -15 -8 -8 -2 3 5 4 7 12 17 10 23 19 4 8 12 12 14 5 -11 -1 5 5 3
-20 -20 -20 -20 -20 -20 -20 -20 -20 -20 -20 -20 -20 -20 -20 -20 -20 -20 -20 -20 -20 -20 2 -0 4 11 2 -18 16 20 13 16 -6 6 11 12 15 8 3 -1 5 5 5
-20 -20 -20 -20 -20 -20 -20 -20 -20 -20 -20 -20 -20 -20 -20 -20 -20 -20 -20 -20 -20 -20 4 -1 6 19 19 17 17 19 15 21 -18 -20 0 11 12 12 5 3 11 4 4
-20 -20 -20 -20 -20 -20 -20 -20 -20 -20 -20 -20 -20 -20 -20 -20 -20 -20 -20 -20 -20 -20 -20 -4 0 6 -0 -5 19 21 12 14 -2 -3 3 10 12 11 9 -0 5 9 6
-20 -20 -20 -20 -20 -20 -20 -20 -20 -20 -20 -20 -20 -20 -20 -20 -20 -20 -20 -1 -1 -3 -1 -3 -1 2 2 -7 21 30 25 12 3 5 2 9 11 11 8 3 6 5 -8
-20 -20 -20 -20 -20 -20 -20 -20 -20 -20 -20 -20 -20 -20 -20 -20 -20 -20 -5 1 2 -1 -0 0 -1 2 5 7 16 25 29 13 9 8 11 12 14 11 7 -1 9 11 -1
-20 -20 -20 -20 -20 -20 -20 -20 -20 -20 -20 -20 -20 -20 -20 -20 -4 -5 -4 2 2 1 2 1 3 1 1 2 9 12 10 19 14 11 10 11 16 11 0 5 9 6 5
-20 -20 -20 -20 -20 -20 -20 -20 -20 -20 -20 -20 -20 -20 -20 -19 -20 -16 -20 -1 3 2 -0 3 3 3 2 4 1 15 14 7 16 15 12 12 15 9 0 8 11 11 0
-20 -20 -20 -20 -20 -20 -20 -20 -20 -20 -20 -20 -20 -20 -20 -12 -5 -6 -0 1 0 -5 1 0 -0 0 1 1 0 7 11 10 -3 -4 10 15 16 7 4 5 6 8 8
-20 -20 -20 -20 -20 -20 -20 -20 -20 -20 -20 -20 -16 -7 -5 -4 0 -1 0 2 -2 -2 -1 -17 -10 -0 -5 -1 -2 8 12 13 -4 -14 -2 9 16 12 9 6 6 2 4
-20 -20 -20 -20 -20 -13 -5 -7 -20 -13 -20 -4 -3 -1 -4 -1 -2 0 1 -1 -4 -5 -20 -5 -5 -19 -20 -20 -20 -3 7 5 -12 -18 -12 1 15 16 8 5 5 7 4
-20 -20 -20 -20 -19 -5 -4 -3 -4 -4 -14 -5 -4 -1 -0 0 -0 0 -2 -10 -20 -20 -6 -20 -20 -20 -20 -20 -20 -2 -4 2 -9 -20 -18 -20 1 15 13 6 7 8 -0

GFSGL_prec_radar_051.txt.gz
Reflectivity
-20 -20 -2 -20 -20 -20 -20 9 -17 -20 3 18 -3 11 -2 18 -20 -8 29 31 3 24 20 25 14 -20 -17 -20 -20 -20 -20 -20 -20 -20 -20 -20 -20 -20 -20 -20 -20 -20 -20
-20 -20 -14 -20 -20 -20 -12 -19 15 -6 -20 -20 -17 10 34 22 10 40 27 18 4 17 35 -6 -13 0 2 -20 -4 -12 -20 -19 -20 -20 -20 -20 -20 -20 -20 -20 -20 -20 -20
-20 -20 5 14 -8 1 -1 11 11 17 13 13 8 -11 -19 24 10 14 6 13 30 21 21 2 6 0 9 1 -17 -6 6 -20 -20 9 -20 -20 -20 -20 -20 -20 -20 -20 -20
-20 -20 -20 -7 4 16 10 11 -11 -3 2 6 -18 -20 -16 -12 -7 -6 19 21 6 8 -6 -2 -4 -5 -6 -10 -2 -4 -7 9 4 -17 -3 -20 -20 -20 -20 -20 -20 -20 -20
-20 -20 -20 -20 -18 -19 6 -10 -20 -20 -20 -20 -20 -20 -20 -13 -2 -1 -7 -17 -20 -12 -6 -5 -2 -20 -11 -16 -20 -20 -17 -20 1 14 -20 -20 -11 2 -15 -20 -20 -20 -20
-20 -20 -20 -20 -20 -20 -20 -20 -20 -20 -20 -20 -20 -20 -20 -20 -20 -20 -4 -16 -20 -20 -20 -20 8 -20 -20 -20 -20 -20 -20 -20 -20 1 2 14 -3 -20 -20 -19 -20 -20 -20
1 -20 -20 -20 -20 -20 -20 -20 -20 -20 -20 -20 -20 -20 -2 -4 4 8 9 -18 -12 -20 -20 -20 -20 -20 -20 -20 -20 -20 -20 -20 -20 -20 -19 -20 9 12 12 4 -20 -20 -20
-20 -20 -20 -20 -20 -20 -20 -20 -20 -20 -5 0 -20 -20 -20 -19 -20 -20 -20 -20 -20 -20 -20 -20 -20 -20 -20 -20 -20 -20 -2 -5 -20 -20 -20 -20 -20 -20 15 -19 -20 -20 -20
-20 -20 -20 -20 -20 -20 -20 -20 -20 -19 -20 -20 -20 -20 -20 -20 -20 -20 -20 -20 -20 -20 -20 -20 -20 -20 -20 -20 -20 -20 -20 -20 -20 -20 -14 -20 -20 -20 -20 -20 -20 -20 -20
-20 -20 -20 -20 -20 -20 -20 -18 -20 -20 -20 -20 -20 -20 -20 -20 -20 -20 -20 -20 -20 -20 -20 -20 -20 -20 -20 -20 -8 -1 4 -20 8 9 18 -18 -20 -20 -20 -20 -20 -20 -20
-20 -20 -20 -20 -20 -17 -20 -20 -20 -20 -20 -20 -20 -20 -20 -20 -20 -20 -20 -20 -14 -20 -20 -14 -7 -19 -20 -20 -20 14 14 -9 -1 13 15 15 -2 -15 -16 -20 -15 -20 -20
-20 -20 -20 -20 -20 -20 -20 -20 -20 -20 -20 -20 -20 -20 -20 -20 -20 -20 -20 -20 -20 -20 -20 -20 -20 -20 -20 -20 -20 -20 -7 25 32 12 12 14 20 21 -9 6 2 -13 -20
-20 -20 -20 -20 -20 -20 -20 -20 -20 -20 -20 -20 -20 -20 -20 -20 -20 -20 -20 -20 -20 -20 -20 -20 -20 -20 -20 -7 1 7 -20 -1 9 10 19 22 7 7 9 22 0 -7 -20
-20 -20 -20 -20 -20 -20 -20 -20 -20 -20 -20 -20 -20 -20 -20 -20 -20 -20 -20 -20 -20 -20 -20 -20 -20 -20 -20 -20 -19 -16 12 2 16 3 12 9 11 18 7 2 11 -20 -17
-20 -20 -20 -20 -20 -20 -20 -20 -20 -20 -20 -20 -20 -20 -20 -20 -20 -20 -20 -20 -17 -20 -13 -19 3 12 14 16 16 -4 -13 9 14 13 28 27 11 14 12 9 6 -20 0
-20 -20 -20 -20 -20 -20 -20 -20 -20 -20 -20 -20 -20 -20 -20 -20 -20 -20 -20 -20 -20 -20 -20 -2 3 6 8 3 10 -4 -3 18 7 14 13 22 16 16 12 6 1 6 -0
-20 -20 -20 -20 -20 -20 -20 -20 -20 -20 -20 -20 -20 -20 -20 -20 -20 -20 -20 -20 -20 -20 -20 -20 0 8 6 8 5 9 -19 -13 25 11 17 20 12 12 15 9 7 8 2
-3 -19 -20 -20 -20 -20 -20 -20 -20 -20 -20 -20 -20 -20 -20 -20 -20 -20 -20 -20 -20 -20 -20 -20 -6 1 -15 7 6 7 4 -19 27 2 10 9 9 15 18 10 11 12 4
7 6 -3 -20 -20 -20 -20 -20 -20 -20 -20 -20 -20 -20 -20 -20 -20 -20 -20 -3 -1 -10 -20 -20 -8 -1 4 7 8 8 -3 17 33 30 8 3 9 10 16 13 12 6 8
20 16 7 -20 -20 -20 -20 -20 -20 -20 -20 -20 -20 -20 -20 -20 -20 -8 -4 -3 -2 -1 -5 -7 -9 -3 8 10 9 8 -12 19 18 23 6 9 10 11 11 15 9 9 4
14 10 5 -14 -17 -11 -20 -20 -20 -20 -20 -20 -20 -12 -20 -20 -20 -20 -20 -3 -2 -0 2 1 -8 7 8 8 5 7 2 8 17 8 24 18 16 11 15 15 4 5 8
-2 -4 -3 -15 -20 -20 -20 -20 -20 -20 -20 -20 -20 -20 -20 -15 -3 -4 -5 -2 1 2 -13 -15 6 4 2 7 8 8 5 -0 3 11 -0 -12 13 15 16 12 8 13 2
-1 -14 -20 -20 -20 -20 -20 -20 -20 -12 -20 -20 -20 -7 -2 -0 0 -1 -1 1 1 1 2 4 7 5 3 7 5 8 6 4 4 9 -5 -3 -5 16 17 12 11 15 11
-20 -20 -20 -20 -20 -20 -6 -4 -2 -20 -20 -18 -0 1 0 -0 1 0 1 1 1 -14 6 8 4 2 6 7 4 5 4 6 6 3 8 -1 -0 -4 19 13 11 14 8
-20 -20 -20 -20 -5 -2 -2 0 -0 1 1 0 2 -0 -1 -1 -2 -2 0 0 -19 4 3 -8 4 4 1 0 2 -4 -18 4 -20 3 7 -0 -13 -19 10 17 12 11 7
-20 -20 -17 -3 -3 0 2 2 2 2 1 1 -0 -1 -1 -2 -4 -3 -1 -7 1 -17 -6 4 2 -3 -2 -10 -1 -9 -20 -20 -15 -11 5 -14 -9 3 15 17 16 14 6

GFSGL_prec_radar_054.txt.gz
Reflectivity
2 29 23 33 29 -20 -20 -20 15 -18 8 -17 0 -14 -20 -15 -8 -9 19 13 9 34 34 20 16 20 25 -13 3 -2 -20 -20 -20 -20 -20 -20 -20 -20 -20 -20 -20 -20 -20
-2 32 10 -2 8 -12 16 27 24 19 12 19 -2 -20 -20 -4 -10 0 -20 27 5 25 9 7 14 11 -1 11 -15 -20 -20 -20 -18 -20 -20 -20 -20 -20 -20 -20 -20 -20 -20
36 19 9 8 2 -1 28 23 15 6 -6 7 -16 -7 13 6 -12 1 -3 -15 -20 -4 13 -5 1 -20 -20 -20 -20 -13 -11 -20 -20 -20 -20 -20 -20 -20 -20 -20 -20 -20 -20
-20 -18 -20 -20 -20 14 8 9 6 10 9 16 11 14 5 1 -14 -10 -12 2 -11 -5 8 -14 -7 -5 -16 -8 -15 -19 -20 -9 -9 10 -8 -20 -20 -20 -20 -20 -20 -20 -20
-17 -13 -20 -19 -9 17 10 11 4 9 3 6 -12 -19 -20 -20 -3 -19 -20 -20 -20 -14 -20 11 4 -19 -20 -20 -7 -6 -19 -20 -20 -12 -3 -17 -20 -20 -20 -20 -19 -20 -20
-20 -4 -20 -20 27 -20 -20 -20 -20 -20 -20 -20 -20 -20 -20 -20 -20 -20 -19 -20 -20 -20 -20 -20 -20 -20 -20 -20 -20 -20 -20 -20 -20 -20 -20 -20 -20 12 12 -14 -13 -20 -20
-20 -20 -20 -20 5 -20 -20 -20 -20 -20 -20 -20 -20 -20 -20 -20 6 5 7 -20 -20 -18 -20 -5 -20 -20 -20 -20 -20 -20 -20 -20 -20 -20 -20 -20 -20 -20 9 14 3 -20 -20
-20 -20 -20 -20 -20 -20 -20 -20 -20 -20 -20 -20 -20 -20 -20 -20 -20 -20 -20 -20 -20 -20 -20 -20 -20 -20 -20 -20 -20 -20 -20 -20 -20 -3 2 10 -20 -20 -20 -2 -4 -20 -20
-20 -20 -20 -20 -20 -20 -20 -20 -20 -20 -20 -20 -20 -20 -20 -20 -20 -20 -20 -20 -20 -20 -20 -20 -20 -20 -20 -20 -20 -20 -20 -20 -20 -17 -13 17 16 7 8 8 6 -20 -20
-20 -20 -20 -20 -20 -20 -20 -20 -20 -20 -20 -20 -20 -20 -20 -20 -20 -20 -20 -20 -20 -20 -20 -20 -20 -20 -20 -20 -20 -20 -20 -20 -14 -18 -6 10 16 -18 -20 3 5 -1 -20
-20 -20 -20 -20 -20 -20 -20 -20 -20 -20 -20 -20 -20 -20 -20 -20 -20 -20 -20 -20 -20 -20 -20 -20 -20 -20 -20 -20 -20 -20 -20 -20 -20 -11 -3 10 33 16 -5 -20 -13 -19 -20
-20 -20 -20 -20 -20 -20 -20 -20 -20 -20 -20 -20 -20 -20 -20 -20 -20 -20 -20 -20 -20 -20 -20 -20 -20 -20 -20 -20 -20 -20 -20 -20 -10 1 4 3 5 23 30 26 10 -2 -20
-20 -20 -20 -20 -20 -20 -20 -20 -20 -20 -20 -20 -20 -20 -20 -20 -20 -20 -20 -20 -20 -20 -20 -20 -20 -20 -20 -20 -20 -20 -20 -20 -20 -20 -18 -8 -10 17 7 3 20 -13 -20
-20 -20 -20 -20 -20 -20 -20 -20 -20 -20 -20 -20 -20 -20 -20 -20 -20 -20 -20 -20 -20 -20 -20 -20 -20 -20 -20 -20 -20 -20 -20 3 4 18 -7 -19 -17 8 24 22 -1 -20 7
-20 -20 -20 -20 -20 -20 -20 -20 -20 -20 -20 -20 -20 -20 -20 -20 -20 -20 -20 -20 -20 -20 -20 -20 -20 -18 -20 -20 -20 -20 -20 -20 -20 -20 -9 7 -12 0 24 29 1 -14 -15
-20 -20 -20 -20 -20 -20 -20 -20 -20 -20 -20 -20 -20 -20 -20 -20 -20 -20 -20 -20 -20 -20 -20 -20 -20 -20 -20 -20 -20 -20 -20 -20 -20 -20 -20 4 13 13 23 10 -19 -18 -20
-20 -20 -20 -19 -17 -19 -17 -20 3 -1 -17 -20 -20 -20 -20 -20 -20 -20 -20 -20 -20 -20 -20 -20 -20 -20 -20 -20 -16 -6 -18 0 -20 -20 -20 -9 -7 6 14 3 -19 -20 -17
-20 -19 -19 -8 5 -3 7 6 6 5 -18 -19 -20 -18 -20 -20 -20 -20 -20 -20 -20 -20 -20 -20 -20 -20 -20 -11 -19 -2 -4 -11 -20 -20 -10 -4 3 14 -13 -8 -13 -20 -20
-16 -2 8 -2 15 13 10 10 9 7 -2 -20 -20 -20 -20 -20 -20 -20 -20 -20 -20 -20 -20 -20 -20 -20 -20 -11 -20 -3 -1 -7 -20 -3 18 30 28 7 5 -17 11 -20 -14
14 19 20 16 15 10 8 5 2 -2 -19 -20 -20 -20 -20 -20 -20 -20 -20 -20 -20 -20 -20 -20 -15 -20 -20 -19 -20 -3 -3 -11 -20 -16 15 7 15 18 -20 -20 2 15 -13
23 18 16 8 9 8 7 1 -11 -20 -20 -20 -20 -20 -20 -20 -20 -13 -20 -20 -20 -20 -20 -2 -13 -20 -20 -8 -16 -20 2 -20 -4 -20 15 19 16 3 24 -3 -15 -14 -18
16 16 12 8 3 -1 -10 -20 -20 -20 -20 -20 -20 -20 -20 -20 -5 -20 -20 -20 -20 -20 -5 -20 -20 -13 -9 -5 -20 -20 -15 -18 -10 -20 -20 6 5 -3 -10 -4 16 7 -2
13 10 6 2 -4 -20 -20 -20 -20 -10 -20 -20 -20 -20 -20 -20 -20 -20 -20 -20 -20 -20 -20 -20 -20 -3 -14 -20 -20 3 -2 -2 -20 -20 -20 -20 -20 -18 -20 -20 17 -8 2
8 3 -4 -19 -20 -20 -20 -19 -20 -14 -20 -20 -17 -20 -10 -20 -20 -20 -20 -20 -20 -20 -20 -17 -17 -20 -20 -16 2 -7 -5 -20 -20 -14 -20 -20 -20 -20 -20 -8 4 12 6
-18 -20 -20 -20 -20 -3 -20 -18 0 -14 -20 -20 -20 -20 -20 -18 -20 -20 -20 -20 -20 -20 -6 -20 -20 -7 -5 -20 -20 -20 -20 -11 -20 -20 -20 -20 -20 -19 -17 -4 -7 18 8
-20 -20 -20 -20 -4 -6 -8 -20 -20 -17 -20 -20 -20 -20 -7 -19 -20 -20 -20 -20 -2 -20 -20 -20 -20 -20 -20 -20 -16 -9 -20 -20 -20 -20 -20 -20 -20 -20 -14 -20 -20 19 -11

GFSGL_prec_radar_057.txt.gz
Reflectivity
-13 -15 -20 -18 14 31 21 32 -20 -20 -17 33 8 -14 -20 -20 -10 -11 13 5 -2 -6 3 24 26 20 28 -4 15 -20 -20 -20 -18 -20 -20 -20 -20 -20 -20 -20 -20 -20 -20
-7 29 36 39 38 38 41 25 -16 2 -0 -14 -20 15 2 -19 -19 -0 4 -14 8 7 10 16 14 -5 14 -12 -11 -20 -16 -13 -5 -10 -20 -20 -20 -20 -20 -20 -20 -20 -20
36 35 18 8 18 8 36 28 7 21 17 19 -3 -20 10 -20 -19 -11 8 19 25 15 8 11 -7 -16 -2 -17 -20 -16 -19 -3 -2 -5 -16 -20 -20 -20 -20 -20 -13 -20 -12
7 30 -18 26 8 -7 2 -5 27 -8 -19 -20 -12 9 4 8 16 18 14 -1 2 9 -20 8 -5 -12 -20 -20 -20 6 -2 -12 2 9 9 9 -12 -14 1 9 2 11 10
-20 -12 -17 -20 35 22 -20 -19 -16 -7 -2 -0 15 3 -3 1 -12 -10 -15 -13 -14 -20 -20 4 -20 -20 -20 -17 -20 -20 -13 6 -13 6 -14 -20 -20 -20 -20 -20 14 13 -20
-20 -20 -20 -20 -20 -20 -20 5 13 11 5 1 11 12 -18 4 12 -20 -20 -20 -20 -20 -20 -20 -20 -20 -20 -20 -2 5 -18 11 0 -20 -20 -20 -20 -20 -20 -14 1 14 19
-20 -8 -20 -20 -20 -20 -20 -20 -20 -18 -13 -16 -20 -20 -20 -20 -20 -20 -19 -20 -20 -20 -20 -20 -20 -20 -20 -20 -20 -20 -20 -20 -20 -20 -20 -20 -20 -20 -20 -3 17 17 13
-20 -20 -20 -20 -20 14 -20 -20 -20 -20 -20 -20 -20 -20 -20 -19 -16 -20 -20 -20 -20 -20 -20 -20 -20 -20 -20 -20 -20 -20 -20 -20 -20 -20 -20 -20 -20 -15 -4 3 10 14 -0
-20 -20 -20 -20 -20 -20 -20 -20 -20 -20 -20 -20 -20 -20 -20 -20 -20 -20 -20 -20 -20 -20 -20 -20 -20 -20 -20 -20 -20 -20 -20 -20 -20 -20 -20 -20 -20 -20 -8 9 9 13 -16
-20 -20 -20 -20 -20 -20 -20 -20 -20 -20 -20 -20 -20 -20 -20 -20 -20 -20 -20 -20 -20 -20 -20 -20 -20 -20 -20 -20 -20 -20 -20 -20 -20 -20 -20 -20 -20 -20 -20 -20 -12 13 8
-20 -20 -20 -20 -20 -20 -20 -20 -20 -20 -20 -20 -20 -20 -20 -20 -20 -20 -20 -20 -20 -20 -20 -20 -20 -20 -20 -20 -20 -20 -20 -20 -20 -20 -20 -20 -20 -20 -14 -9 -20 28 28
-20 -20 -20 -20 -20 -20 -20 -20 -20 -20 -20 -20 -20 -20 -20 -20 -20 -20 -20 -20 -20 -20 -20 -20 -20 -20 -20 -20 -20 -20 -20 -20 -20 -20 -20 -20 -20 -20 -20 -17 1 15 7
-20 -20 -20 -20 -20 -20 -20 -20 -20 -20 -20 -20 -20 -20 -20 -20 -20 -20 -20 -20 -20 -20 -20 -20 -20 -20 -20 -20 -20 -20 -20 -20 -20 -5 5 -19 -19 -6 -19 1 -3 -8 -16
-20 -20 -20 -20 -20 -20 -20 -20 -20 -20 -20 -20 -20 -20 -20 -20 -20 -20 -20 -20 -20 -20 -20 -20 -20 -20 -20 -20 -20 -20 -20 -20 -20 -2 -20 -20 -20 -20 0 -19 -6 14 12
-20 -20 -20 -20 -20 -20 -20 -20 -20 -20 -20 -20 -20 -20 -20 -20 -20 -20 -20 -20 -20 -20 -20 -20 -20 -20 -20 -20 -20 -20 -20 -20 -20 -20 -20 -20 -20 -20 -20 3 -11 1 -0
-20 -20 -20 -20 -20 -20 -20 -20 -20 -1 -11 -4 -20 -6 -9 -13 -1 -10 -20 -20 -20 -20 -20 -20 -20 -20 -20 -20 -20 -20 -20 -20 -20 -19 -20 -20 -20 -20 -20 9 19 29 23
-20 -20 -20 -20 -20 -20 -18 2 14 11 5 11 5 2 -15 -13 -6 -12 -16 -20 -20 -20 -20 -20 -20 -20 -20 -20 -20 -20 -20 -20 -2 -20 -20 -20 -20 -20 -20 7 6 -20 -20
-20 2 -18 -18 -15 3 14 14 13 18 15 12 10 -2 5 10 9 2 -16 -20 -20 -20 -20 -20 -20 -20 -20 -20 -20 -20 -20 -20 -20 -20 -20 -20 -15 -7 -8 5 12 -20 -20
-19 -15 -3 12 19 14 17 19 15 15 14 12 4 -15 -13 -4 -6 -11 -20 -20 -20 -20 -20 -20 -20 -20 -20 -20 -20 -20 -20 -20 -18 -20 -20 -20 1 20 17 30 19 -13 -20
20 19 21 23 23 20 18 16 15 10 3 -2 -12 -20 -20 -20 -20 -20 -20 -20 -20 -20 -20 -20 -20 -20 -20 -20 -20 -20 -20 -20 -20 -20 -9 -20 -20 7 -11 -20 13 2 -20
25 23 20 21 20 17 15 10 7 5 2 -0 -5 -20 -20 -20 -20 -20 -20 -20 -20 -20 -20 -20 -20 -20 -20 -20 -2 -20 -20 -20 -20 -20 -20 -20 -20 5 -10 -9 -1 7 5
19 18 17 15 12 12 6 5 7 3 -7 -20 -20 -20 -20 -20 -20 -20 -20 -20 -20 -20 -20 -20 -20 -20 -20 -20 -20 -20 -20 -5 -20 -20 -20 -20 -20 -5 7 -3 -1 -20 -16
13 13 12 12 11 9 -1 -15 -14 -19 -20 -20 -20 -20 -20 -20 -20 -20 -20 -20 -20 -20 -20 -20 -20 -20 -20 -20 -20 -8 -12 -20 -20 -20 -20 -20 -20 -20 1 -18 -20 -20 -3
6 7 5 -2 -7 -7 -9 -16 -20 -20 -20 -20 -20 -20 -20 -20 -20 -20 -20 -20 -20 -20 -20 -20 -20 -20 -20 -20 -18 -20 -20 -20 -20 -20 -20 -20 -20 -20 -20 -20 -20 -20 -19
-2 -8 -10 -20 -20 -20 -20 -20 -20 -20 -20 -20 -20 -20 -20 -20 -20 -20 -20 -20 -20 -20 -20 -20 -20 -20 -20 -20 -20 -20 -20 -20 -20 -20 -20 -20 -20 -20 -20 -20 -20 -20 -20
-20 -20 -20 -20 -20 -20 -20 -20 -20 -20 -20 -20 -20 -20 -20 -20 -20 -20 -20 -20 -20 -20 -20 -20 -20 -20 -20 -20 -20 -20 -2 -20 -20 -20 -20 -20 -20 -20 -19 -20 -19 -6 -10

GFSGL_prec_radar_060.txt.gz
Reflectivity
11 -20 -20 -20 -20 -20 29 27 26 32 23 -6 25 26 24 -7 1 -20 -15 -12 13 -1 7 -10 20 -17 6 8 12 -9 2 5 -19 -20 -20 -20 -20 -20 -20 -20 -20 -20 -20
31 30 23 24 22 35 33 18 40 48 29 -2 -17 5 -20 -20 3 9 -5 14 -1 -5 2 5 12 7 -0 -2 3 1 -19 -6 -18 -1 4 -10 -20 -20 -20 -17 -20 -20 -20
31 26 33 6 28 13 10 28 31 24 7 -4 31 -15 7 7 -16 -20 -18 2 13 -7 9 11 -14 -20 -2 -6 5 -10 -20 -20 -20 -20 -2 -10 -20 -20 -20 -20 -20 -20 -20
11 31 29 17 -3 2 4 -3 -4 -5 -2 -20 -12 19 15 0 11 -12 -20 -7 -10 2 4 -17 11 -0 -8 0 -19 -20 -20 -20 -20 -20 -20 -20 -20 -20 -20 -17 -20 -20 -20
29 3 -3 -12 -20 -20 -18 28 -20 -20 -5 12 6 13 -1 11 -13 8 -13 -20 -3 11 -1 -10 -20 -4 5 -19 -20 -20 -20 -20 -20 -20 -20 -20 -20 -20 -20 -20 -20 -20 -20
-20 -17 12 -6 -20 -20 -20 -20 9 16 4 -20 -18 6 22 14 18 14 9 -17 -20 -20 -20 -20 -20 -18 -20 -20 -20 -20 -20 -20 -20 -11 -15 -20 -20 -20 -20 -20 -20 -20 -0
-18 -20 -20 -20 -20 -14 3 16 -2 -19 -20 13 12 11 3 7 14 -1 -19 -20 -20 -20 -20 -20 -20 -20 -20 -20 -20 -20 -20 -20 -20 -20 -20 -20 -20 -20 -13 -9 -13 2 -3
3 -20 6 8 6 -7 -15 -20 26 24 9 14 -4 -7 -19 -20 -20 -20 -19 -20 -20 -20 -20 -20 -20 -20 -20 -20 -20 -20 -20 -20 -20 -20 -20 -20 -20 -20 -18 -11 -8 2 -5
-20 -20 -20 -20 -20 -7 14 24 -20 -20 -18 -20 -20 -20 -20 -20 -20 -13 -20 -20 -20 -20 -20 -20 -20 -20 -20 -20 -20 -20 -20 -20 -20 -20 -20 -20 -20 -20 -20 -19 -18 7 3
8 -18 19 21 -20 16 -20 -20 -20 -20 -20 -20 -20 -20 -20 -20 -20 -20 -20 -20 -20 -20 -20 -20 -20 -20 -20 -20 -20 -20 -20 -20 -20 -20 -20 -20 -20 -20 -20 -20 -20 4 8
-8 -10 -20 -20 -20 -20 -20 -20 -20 -20 -20 -20 -20 -20 -20 -20 -20 -20 -20 -20 -20 -20 -20 -20 -20 -20 -20 -20 -20 -20 -20 -20 -20 -20 -20 -20 -20 -20 -20 -20 -14 9 11
-3 -20 -20 -20 -20 -20 -20 -20 -20 -20 -20 -20 -20 -20 -20 -20 -20 -20 -20 -20 -20 -20 -20 -20 -20 -20 -20 -20 -20 -20 -20 -20 -20 -20 -20 -20 -20 -20 -20 -20 -20 -6 -8
-20 -20 -20 -20 -20 -20 -20 -20 -20 -20 -20 -20 -20 -20 -20 -20 -20 -20 -20 -20 -20 -20 -20 -20 -20 -20 -20 -20 -20 -20 -20 -20 -20 -20 -20 -20 -20 -20 -20 -20 -20 -20 2
-20 -20 -20 -20 -20 -20 -20 -20 -20 -20 -20 -20 -20 -20 -20 -20 -20 -20 -20 -20 -20 -20 -20 -20 -20 -20 -20 -20 -20 -20 -20 -20 -20 -20 -20 -20 -20 -20 -20 -20 -20 -20 6
-20 -20 -20 -20 -20 -20 -20 -20 -20 -20 -20 -20 -20 -20 -11 8 11 -16 4 9 -15 -20 -20 -20 -20 -20 -20 -20 -20 -20 -20 -20 -20 -20 -20 -20 -20 -20 -20 -20 -20 -20 3
-20 -20 -20 -20 -20 -20 -20 -20 -20 -20 -18 -19 -19 4 6 -4 2 12 -3 -20 -20 -20 -20 -20 -20 -20 -20 -20 -20 -20 -20 -20 -12 -5 -20 -20 -20 -20 -20 -20 -20 -20 7
-20 -20 -20 -11 -20 -20 -20 -17 -15 -17 -19 4 4 4 16 16 6 -2 -19 -20 -20 -20 -20 -20 -20 -20 -20 -20 -20 -20 -20 -20 -7 -20 -19 -20 -20 -20 -20 -20 -20 -20 1
-19 14 0 -8 -14 -9 2 10 12 7 13 21 18 13 11 8 2 -14 -18 -20 -19 -13 -17 -20 -20 -20 -20 -20 -20 -20 -20 -20 -20 -20 -20 -20 -20 -20 -20 -20 -20 -20 22
26 17 17 19 21 19 18 22 23 22 16 14 13 7 2 6 5 5 -2 -9 -11 -19 -20 -20 -20 -20 -20 -20 -20 -20 -20 -20 -20 -20 -20 -20 -20 -20 -20 -20 -7 16 25
19 15 11 9 12 15 16 15 13 10 6 -8 -12 -18 -14 -7 -13 -18 -15 -13 -19 -20 -20 -20 -20 -20 -20 -20 -20 -20 -20 -20 -20 -20 -20 -20 -20 -20 -20 -20 12 13 -11
13 12 9 7 9 12 14 13 10 10 8 2 0 -17 -20 -20 -20 -20 -20 -20 -20 -20 -20 -20 -20 -20 -20 -20 -20 -20 -20 -20 -20 -20 -20 -20 -20 -20 -20 -20 -6 9 -2
-3 3 9 11 12 11 10 10 10 7 -7 -16 -20 -20 -20 -20 -20 -14 -20 -20 -20 -20 -20 -20 -20 -20 -20 -20 -20 -20 -20 -20 -20 -20 -20 -20 -20 -20 -20 -20 -10 6 -1
-20 -13 -3 5 8 6 1 -9 -19 -20 -16 -9 -7 -3 -1 -4 -18 -20 -20 -20 -20 -20 -20 -20 -20 -20 -20 -20 -20 -20 -20 -20 -20 -20 -20 -20 -20 -20 -20 -20 -11 5 5
-6 -6 -11 -18 -20 -20 -20 -20 -20 -20 -20 -19 -19 -20 -20 -20 -20 -20 -20 -20 -20 -20 -20 -20 -20 -20 -20 -20 -20 -20 -20 -20 -20 -20 -20 -20 -20 -20 -20 -20 -20 -7 -4
-20 -20 -20 -20 -20 -20 -20 -20 -20 -20 -20 -20 -20 -20 -20 -20 -20 -20 -20 -20 -20 -20 -20 -20 -20 -20 -20 -20 -20 -20 -20 -20 -4 -20 -20 -20 -20 -20 -20 -20 -20 -20 -3
-20 -20 -20 -20 -20 -20 -20 -20 -20 -20 -20 -20 -20 -20 -20 -20 -20 -20 -20 -20 -20 -20 -20 -20 -20 -20 -20 -20 -20 -20 -20 -20 -20 -20 -20 -20 -20 -20 -20 -20 -20 -20 1

GFSGL_prec_radar_063.txt.gz
Reflectivity
27 4 -20 -20 -20 -20 -20 -20 -20 23 20 25 30 11 -20 22 40 29 -1 -3 8 -20 -20 -18 -6 -20 -15 -11 -13 -2 -18 -13 -20 -18 -15 -20 -20 -20 -13 -20 -20 -20 -20
28 -3 22 23 21 18 1 -11 -4 12 21 34 32 18 6 20 28 -18 -17 10 -20 6 -4 10 0 11 -20 -18 2 21 -8 2 6 -20 -20 -20 -11 -19 -20 -20 -20 -20 -20
20 22 22 31 35 45 30 37 21 25 30 23 30 25 8 23 -17 -5 -20 6 15 -17 -7 -0 12 5 -1 21 -13 -6 -20 -20 -20 -20 -20 -20 -20 -20 -20 -20 -20 -20 -20
3 -13 23 14 17 5 11 5 -2 -10 -7 26 -20 -20 2 8 1 -20 -20 -20 8 2 -20 -20 -20 -20 5 -15 -10 -2 -20 -20 -20 -20 -20 3 -19 -20 -20 -20 -20 -20 -20
-20 -20 -20 -14 -20 -19 -16 -17 -20 -14 -15 -7 -8 -20 -8 18 18 -20 -20 -9 -10 19 -17 -20 -19 14 8 0 -18 -20 -20 -20 -20 -20 -20 -20 -20 -20 -20 -20 -20 -20 -20
-20 -20 -20 -20 27 -20 11 -20 18 -20 31 -19 -20 -20 19 26 22 -9 -5 13 11 7 -20 -5 -5 7 -1 -15 -20 -20 -20 -20 -20 -20 -20 -20 -20 -20 -20 -20 -20 -20 -20
-20 -20 -20 -15 -7 -20 -20 -7 -20 -10 26 -6 -18 8 25 23 15 14 16 -2 1 5 -3 -7 -20 -20 -19 -20 -20 -20 -20 -20 -20 -20 -20 -20 -20 -20 -20 -20 -20 -20 -20
-20 -20 -20 -20 23 17 5 -20 8 24 5 -20 16 26 15 11 17 14 14 -11 -16 -20 -20 -20 -20 -20 -20 -20 -20 -20 -20 -20 -20 -20 -20 -20 -20 -20 -20 -20 -20 -20 -20
-20 -20 -20 -20 -20 13 -1 31 27 -16 18 18 23 18 12 12 16 10 0 -20 -20 -20 -20 -20 -20 -20 -20 -20 -20 -20 -20 -20 -20 -20 -20 -20 -20 -20 -20 -20 -6 -0 -20
17 9 -20 -20 -19 -20 -20 -8 -14 2 14 9 20 7 16 -19 -18 -20 -20 -20 -20 -20 -20 -20 -20 -20 -20 -20 -20 -20 -20 -20 -20 -20 -20 -19 -20 -20 -20 -20 -6 -6 -18
-20 -5 -9 -20 -15 -20 -20 -7 2 9 15 2 -19 -20 -20 -12 -20 -20 -20 -20 -20 -20 -20 -20 -20 -20 -20 -20 -20 -20 -20 -20 -20 -20 -20 -20 -20 -20 -20 -20 -20 -10 -20
-20 -20 -20 -16 3 16 17 10 -6 -20 -20 -20 -20 -20 -20 -20 -10 -20 -20 -20 -20 -20 -20 -20 -18 -20 -20 -20 -20 -20 -20 -20 -20 -20 -20 -20 -20 -20 -20 -20 -20 -20 -20
-20 -20 -13 -20 -14 1 -18 -20 -20 -20 -20 -20 -20 -20 -20 -8 -20 -20 -20 -20 -20 -20 -9 -4 -20 -20 -20 -20 -20 -20 -20 -20 -20 -20 -20 -20 -20 -20 -20 -20 -20 -20 -20
-20 -20 -20 -4 -17 -20 -20 -20 -20 -20 -20 -20 -20 -20 -20 -20 -20 -20 -20 -20 -12 2 5 3 -12 -19 -18 -14 -20 -20 -20 -20 -20 -20 -20 -20 -20 -20 -20 -20 -20 -20 -20
-20 -20 -20 -20 -20 -20 -20 -20 -20 -20 -20 -20 -20 -20 -20 -20 -20 -20 2 7 10 10 -0 1 -1 -5 -16 -20 -20 -20 -20 -20 -20 -20 -20 -20 -20 -20 -20 -20 -20 -20 -20
-20 -20 -20 -20 -20 -20 -20 -16 -11 -11 -18 -15 -3 -11 -20 -20 -18 0 13 8 -11 2 -6 -4 -9 -20 -20 -20 -20 -20 -20 -20 -20 -20 -20 -20 -20 -20 -20 -20 -20 -20 -20
-4 -20 -20 -20 -20 -20 -20 -20 -20 -15 -14 2 10 7 6 7 13 5 -17 -15 -20 -15 -4 -20 -20 -20 -20 -20 -20 -20 -20 -20 -20 -20 -20 -20 -20 -20 -20 -20 -20 -20 -20
34 31 23 24 19 19 20 20 19 18 11 4 2 5 4 2 7 -2 -11 -16 -20 -20 -20 -20 -20 -20 -20 -20 -20 -20 -20 -20 -20 -20 -20 -20 -20 -20 -20 -20 -20 -20 -20
25 14 22 23 20 13 13 12 10 9 10 9 4 6 11 12 8 4 6 8 4 -11 -15 -11 -11 -5 -17 -20 -20 -20 -20 -20 -20 -20 -20 -20 -20 -20 -20 -20 -20 -20 -20
20 21 19 17 13 6 2 8 7 -1 -4 -2 -1 -5 -1 0 2 3 3 4 4 -1 -6 -15 -19 -20 -20 -20 -20 -20 -20 -20 -20 -20 -20 -20 -20 -20 -20 -20 -20 -20 -20
14 10 14 14 12 3 2 -2 5 8 10 8 -4 -4 -14 -20 -20 -20 -20 -20 -20 -20 -20 -20 -20 -20 -20 -20 -20 -20 -20 -20 -20 -20 -20 -20 -20 -20 -20 -20 -20 -20 -20
8 5 4 7 2 -16 -17 -13 -12 -20 -20 -20 -20 -20 -20 -20 -20 -20 -20 -20 -20 -20 -20 -20 -20 -20 -20 -20 -20 -20 -20 -20 -20 -20 -20 -20 -20 -20 -20 -20 -20 -20 -20
14 13 9 1 -17 -20 -20 -20 -20 -20 -20 -20 -20 -20 -20 -20 -20 -20 -20 -20 -20 -20 -20 -20 -20 -20 -20 -20 -20 -20 -20 -20 -20 -20 -20 -20 -20 -20 -20 -20 -20 -20 -20
-6 -20 -20 -20 -20 -20 -20 -20 -20 -20 -20 -20 -20 -20 -20 -20 -20 -20 -20 -20 -20 -20 -20 -20 -20 -20 -20 -20 -20 -20 -20 -20 -20 -20 -20 -20 -20 -20 -20 -20 -20 -20 -20
-6 -18 -20 -20 -20 -20 -20 -20 -20 -20 -20 -20 -20 -20 -20 -20 -20 -20 -20 -20 -20 -20 -20 -20 -20 -20 -20 -20 -20 -20 -20 -20 -20 -20 -20 -20 -20 -20 -20 -20 -20 -20 -20
-20 -20 -20 -20 -20 -20 -20 -20 -20 -20 -20 -20 -20 -20 -20 -20 -20 -20 -20 -20 -20 -20 -20 -20 -20 -20 -20 -20 -20 -20 -20 -20 -20 -20 -20 -20 -20 -20 -20 -20 -20 -20 -20

GFSGL_prec_radar_066.txt.gz
Reflectivity
25 21 -18 -20 -20 -20 -20 -20 -16 -20 -19 -20 -19 -19 -8 14 27 14 6 -9 24 11 25 -20 7 -9 6 -11 -18 -20 -2 -20 -20 -17 -8 -20 -16 -20 -20 -20 -20 -20 -20
-17 22 19 3 -5 4 -7 -1 -6 9 9 -18 13 36 24 31 21 19 8 23 10 -4 -20 8 12 -17 -20 6 -20 6 8 -20 -16 -20 -20 -20 -20 -20 -20 -20 -20 -20 -20
-20 -2 13 -6 -16 -2 15 9 7 25 3 15 -17 -10 11 30 30 8 -8 9 5 -15 -20 -16 12 -11 -9 17 -17 -20 -15 -19 -20 -20 -4 -20 1 -20 -20 -20 -20 -20 -20
-20 -20 -20 2 1 -20 -6 -20 -20 0 12 15 10 27 20 27 7 -12 25 8 9 -17 -9 -7 -2 12 -16 -20 -20 2 -20 -11 -14 6 -20 -20 -20 -20 -20 -20 -20 -20 -20
-20 -20 -20 -20 -20 -20 -20 -20 -20 -20 -8 -16 -20 -20 -10 -17 -20 -18 -4 17 13 14 -15 11 8 12 20 -7 -4 -7 4 -12 11 -20 -20 -20 -20 -20 -20 -20 -20 -20 -20
-20 -20 -20 -20 -20 -20 -20 20 -11 -20 -19 -19 -20 28 2 31 30 -3 -17 22 11 11 15 6 10 15 12 11 15 14 9 0 -20 -20 -20 -20 -20 -20 -20 -20 -20 -20 -20
-20 -20 -20 -20 -20 -20 -5 -0 -18 18 27 -16 18 7 21 -6 18 25 9 12 23 13 19 15 -11 14 14 -3 18 11 -3 -20 -20 -20 -20 -20 -20 -20 -20 -20 -20 -20 -20
-20 -20 -20 -20 -20 -20 -20 -20 -20 -4 24 24 27 18 22 6 22 21 23 8 21 16 13 -13 6 -5 13 9 -17 -20 -20 -20 -20 -20 -20 -20 -20 -20 -20 -20 -20 -20 -20
-20 -20 -20 -20 -20 -20 -20 -20 -20 13 16 25 15 13 9 9 17 11 9 -2 12 3 -12 -0 0 -3 -2 -20 -20 -20 -20 -20 -20 -20 -20 -20 -20 -20 -20 -20 -20 -20 -20
-20 -20 -20 -20 -20 -20 -18 -4 21 22 18 2 -1 5 16 17 21 16 15 -20 -20 -10 2 -20 -3 -20 -20 -20 -20 -20 -20 -20 -20 -15 -10 -6 -11 -14 -9 -9 -20 -20 -20
-20 -20 -20 -20 -3 2 8 9 5 5 2 -5 8 14 21 20 19 16 7 -17 -20 -20 -20 -20 -20 -20 -20 -20 -20 -20 -20 -12 -0 3 -6 -18 -19 1 0 -15 -20 -20 -20
4 4 14 0 3 -4 -11 3 -3 7 6 13 19 23 21 15 17 11 -8 -13 -20 -20 -20 -20 -20 -20 -20 -20 -20 -18 -8 -18 -16 -20 -20 -20 -16 -20 -20 -20 -20 -20 -20
-13 -13 -14 -20 -19 1 20 20 23 28 19 22 25 20 -3 -19 -20 5 -20 -20 -20 -20 -20 -20 -20 -18 2 -6 -18 -20 -20 -20 -20 -20 -20 -20 -20 -20 -20 -20 -20 -20 -20
-11 -20 -8 -17 2 15 15 11 7 20 23 15 -19 -20 -20 -20 -20 -20 -20 -20 -20 -20 -17 1 3 0 -11 -20 -20 -20 -20 -20 -20 -20 -20 -20 -20 -20 -20 -20 -20 -20 -20
-20 -20 -20 -16 -1 -11 -4 18 18 11 -18 -20 -20 -20 -20 -20 -19 -14 -15 -11 5 11 4 -2 -2 -17 -20 -20 -20 -20 -20 -20 -20 -20 -20 -20 -20 -20 -20 -20 -20 -20 -20
-20 -20 -20 -20 -20 -11 -18 -13 1 -11 -20 -20 -20 -8 -20 4 15 16 12 -0 4 9 -3 -19 -20 -20 -20 -20 -20 -20 -20 -20 -20 -20 -20 -20 -20 -20 -20 -20 -20 -20 -20
-20 -20 -20 -20 -0 16 14 10 5 15 20 22 22 19 14 6 4 7 10 6 -1 -20 -20 -15 -20 -20 -20 -20 -20 -20 -20 -20 -20 -20 -20 -20 -20 -20 -20 -20 -20 -20 -20
-19 7 24 21 17 13 6 14 18 19 19 17 16 12 11 6 4 8 0 -6 -5 -20 -20 -20 -20 -20 -20 -20 -20 -20 -20 -20 -20 -20 -20 -20 -20 -20 -20 -20 -20 -20 -20
-1 22 20 15 16 19 18 18 16 14 15 15 13 12 10 11 3 -2 0 2 4 1 -4 -20 -20 -20 -20 -20 -20 -20 -20 -20 -20 -20 -20 -20 -20 -20 -20 -20 -20 -20 -20
28 22 20 20 16 14 9 -0 2 9 12 10 7 2 -3 -7 -8 -7 -7 -5 -2 -1 -7 -15 -8 -15 -20 -20 -20 -20 -20 -20 -20 -20 -20 -20 -20 -20 -20 -20 -20 -20 -20
21 21 14 11 11 12 12 6 3 5 7 3 -12 -8 -18 -17 -7 -9 -20 -19 -20 -20 -20 -20 -20 -20 -20 -20 -20 -20 -20 -20 -20 -20 -20 -20 -20 -20 -20 -20 -20 -20 -20
12 10 6 1 3 2 -2 -11 -19 -19 -18 -19 -20 -20 -20 -20 -20 -20 -20 -20 -20 -20 -20 -20 -20 -20 -20 -20 -20 -20 -20 -20 -20 -20 -20 -20 -20 -20 -20 -20 -20 -20 -20
-5 -9 -15 -18 -20 -20 -20 -20 -20 -20 -20 -20 -20 -20 -20 -20 -20 -20 -20 -20 -20 -20 -20 -20 -20 -20 -20 -20 -20 -20 -20 -20 -20 -20 -20 -20 -20 -20 -20 -20 -20 -20 -20
-4 -2 -1 -5 -8 -19 -20 -20 -20 -20 -20 -20 -20 -20 -20 -20 -20 -20 -20 -20 -20 -20 -20 -20 -20 -20 -20 -20 -20 -20 -20 -20 -20 -20 -20 -20 -20 -20 -20 -20 -20 -20 -20
-16 -20 -20 -20 -20 -20 -20 -20 -20 -20 -20 -20 -20 -20 -20 -20 -20 -20 -20 -20 -20 -20 -20 -20 -20 -20 -20 -20 -20 -20 -20 -20 -20 -20 -20 -20 -20 -20 -20 -20 -20 -20 -20
-20 -20 -20 -20 -20 -20 -20 -20 -20 -20 -20 -20 -20 -20 -20 -20 -20 -20 -20 -20 -20 -20 -20 -20 -20 -20 -20 -20 -20 -20 -20 -20 -20 -20 -20 -20 -20 -20 -20 -20 -20 -20 -20

GFSGL_prec_radar_069.txt.gz
Reflectivity
-20 -20 -20 -20 -20 -20 -20 -20 -20 -20 4 -4 -1 -20 -20 -20 -20 -20 -20 -20 -18 17 17 -20 12 22 -8 -20 -0 -20 -12 2 -19 -19 10 -2 -12 -20 -20 -20 -12 -20 -20
-20 -20 8 -16 -20 -20 -20 -20 -2 -20 -7 -17 -6 10 -2 -20 -20 -13 -20 -17 27 22 35 39 23 28 2 7 5 -18 -9 12 19 -12 -20 -1 -20 -20 -20 -20 -20 -20 -20
-20 -20 -20 -20 -20 -9 -20 -20 -20 -20 -20 -20 -3 12 9 -0 20 24 34 33 32 34 29 12 16 17 1 14 -5 -16 19 -6 -13 -20 -20 -20 -19 -20 -20 -20 -20 -20 -20
-20 -20 -20 -20 -20 -5 -8 -20 -20 -20 -20 -20 -20 9 7 -10 1 13 11 28 35 32 15 1 17 -4 9 15 1 12 -8 -15 -20 -20 -15 -8 -20 -16 -20 -20 -20 -20 -20
-20 -20 -20 -20 -20 -20 -20 -20 -20 -20 -20 -20 -20 -9 -6 -17 -20 -15 32 27 2 5 18 23 6 5 7 6 3 -7 -20 -20 -20 -20 -1 -19 -20 -20 -20 -20 -20 -20 -20
-20 -20 -20 -20 -20 -20 -20 -20 -20 -20 -20 -20 2 -18 -20 -20 16 5 3 -14 -20 -20 -20 15 -12 9 3 17 14 8 12 -4 -20 -20 -20 -20 -20 -20 -20 -20 -20 -20 -20
-20 -20 -20 -20 -20 -20 -20 -20 -20 -20 -20 -6 -20 -20 -14 6 14 4 25 5 -12 -19 -20 -10 -8 -1 22 2 6 -5 9 9 6 -7 -20 -20 -20 -20 -20 -20 -20 -20 -20
-20 -20 -20 -20 -20 -20 -20 -20 -7 -8 -17 -20 -1 -14 -20 -18 5 13 17 6 6 6 -0 -1 6 24 19 10 -18 -5 -9 -5 -1 -15 -20 -20 -20 -20 -20 -20 -20 -20 -20
-20 -20 -20 -20 -20 -20 -20 -20 -20 -7 -14 -14 10 15 15 13 19 9 12 -1 2 20 9 23 30 19 20 9 -0 -15 -20 -20 -19 -20 -20 -20 -20 -20 -20 -20 -20 -20 -20
-20 -20 -20 -20 -20 -20 -20 -20 -14 -20 -8 -0 3 14 22 8 18 13 14 -4 -7 10 18 31 23 11 6 5 -3 -19 -20 -20 -20 -20 -20 -20 -20 -20 -20 -20 -20 -20 -20
-19 -20 -20 -20 -20 0 -20 -17 9 14 20 -8 -1 6 0 8 17 20 15 1 -3 22 28 18 -12 8 7 -9 -20 -20 -20 -18 -10 -18 -20 -16 -20 -16 -20 -20 -20 -20 -20
-20 -20 -20 -20 11 5 -0 10 6 -0 -15 -19 -14 -2 4 11 25 24 22 26 27 35 6 -14 -11 -12 -20 -20 -20 -4 -7 -19 -10 -2 -19 -20 -20 -17 -18 -10 -20 -20 -20
-20 -20 -15 -19 -18 3 19 10 -18 -20 -13 -6 -3 6 15 6 12 23 22 28 15 4 -20 -20 -20 -20 -20 -13 -4 -17 -12 5 -18 -20 -20 -20 -20 -20 -19 -20 -20 -20 -20
22 -3 -14 20 1 6 -6 3 4 1 18 1 18 8 17 25 31 31 10 0 -12 -20 -20 -20 -18 3 6 -17 -8 -9 -20 -20 -20 -20 -20 -20 -20 -20 -20 -20 -20 -20 -20
-20 -20 -9 2 -15 -20 -16 2 -2 -0 9 14 23 20 24 25 21 10 0 -20 -20 -16 -16 -1 8 9 -10 -14 -19 -20 -20 -20 -20 -20 -20 -20 -20 -20 -20 -20 -20 -20 -20
-20 -20 -3 -0 -20 -20 7 -0 15 12 19 19 26 28 11 6 2 6 7 6 8 6 2 -0 4 -2 -4 0 -18 -20 -20 -20 -20 -20 -20 -20 -20 -20 -20 -20 -20 -20 -20
7 8 8 21 7 -6 -6 -5 19 16 19 22 22 19 18 14 12 12 12 11 10 3 -3 2 1 -4 -14 -20 -20 -20 -20 -20 -20 -20 -20 -20 -20 -20 -20 -20 -20 -20 -20
22 18 13 32 30 10 10 19 18 12 14 20 20 16 10 8 8 9 8 8 5 1 1 -6 -17 -20 -20 -20 -20 -20 -20 -20 -20 -20 -20 -20 -20 -20 -20 -20 -20 -20 -20
30 25 17 18 23 21 12 13 14 12 2 3 4 5 7 7 4 3 -3 -7 -15 -16 -20 -20 -20 -5 -20 -20 -4 -4 -2 -8 -11 -20 -20 -20 -20 -2 -4 -20 -12 -12 -20
21 23 21 22 22 22 19 13 11 6 5 4 0 -11 -16 -18 -17 -20 -20 -18 -1 -2 -2 -2 -0 -1 -2 -2 1 1 1 0 -2 -14 -20 -3 1 2 2 0 0 1 -2
17 24 25 21 21 19 11 -1 -3 -8 -13 -20 -20 -20 -20 -20 -3 -0 -2 -3 -3 -3 -2 -2 -1 -0 -2 -1 -2 -1 -1 -1 -4 -20 -20 -1 2 2 -1 2 3 2 2
5 14 19 20 20 14 7 7 4 -5 -20 -20 -20 -20 -20 -20 -20 -20 -20 -15 -2 -6 -19 -20 -20 -20 -20 -20 -20 -10 -20 -20 -20 -4 -1 -1 -0 2 3 3 2 3 2
-0 -5 2 7 9 10 9 8 4 -13 -20 -20 -20 -20 -20 -20 -20 -20 -20 -20 -20 -20 -20 -20 -20 -20 -20 -20 -20 -20 -20 -20 -2 1 2 1 1 2 3 3 3 2 2
-15 -13 -12 -11 -10 -12 -14 -19 -20 -20 -20 -20 -20 -20 -20 -20 -20 -20 -20 -20 -20 -20 -20 -20 -20 -20 -20 -20 -20 -20 -20 -3 -0 -0 0 2 1 -3 1 2 1 -1 0
-20 -20 -20 -20 -20 -20 -20 -20 -20 -20 -20 -20 -20 -9 -4 -20 -20 -20 -20 -20 -20 -20 -20 -20 -20 -20 -20 -20 -20 -20 -20 -20 -10 -20 -5 -2 -2 -6 -5 -2 -3 -1 -1
-20 -20 -20 -20 -20 -20 -20 -20 -20 -20 -20 -20 -20 -20 -20 -20 -20 -20 -20 -20 -20 -20 -20 -20 -20 -20 -20 -20 -20 -20 -20 -20 -20 -20 -19 -3 -4 -10 -2 -1 -18 -1 -1

GFSGL_prec_radar_072.txt.gz
Reflectivity
-20 -20 -20 -20 -20 -20 -20 -20 -20 -20 -20 -20 -20 -20 -20 -20 -20 -20 -20 -20 -20 -13 11 -15 -20 6 4 -20 28 20 22 8 22 -20 -9 -18 -19 -13 -20 -20 -20 -20 -20
-20 -20 -20 -20 -20 -20 -20 -20 -20 -20 -20 -20 -20 -20 -20 -20 -20 -20 -20 -20 -20 -20 -20 -3 -20 3 20 17 43 35 18 23 19 -0 -15 -9 -17 -20 -20 -20 -20 -20 -20
-20 -20 -20 -20 -20 -20 -20 -20 -20 -20 -20 -20 -20 -20 -20 -20 -20 -20 -20 -15 -13 3 -1 16 20 17 34 35 36 30 25 27 16 -2 -5 11 -18 -20 -20 -20 -13 -20 -20
-20 -20 -20 -20 -20 -20 -20 -20 -20 -20 -20 -20 -20 -20 -20 -20 -20 -20 8 13 -19 29 20 22 26 35 34 39 30 19 20 8 13 -2 4 -20 -20 -20 -20 -18 -20 -20 -20
-20 -20 -20 -20 -20 -20 -20 -20 -20 -20 -20 -20 -20 -20 -20 -20 -20 -17 -3 12 -20 9 25 25 38 19 26 21 25 3 -6 -7 -5 -5 -20 -20 -20 -20 -11 -20 -20 -20 -20
-20 -20 -20 -20 -20 -20 -20 -20 -20 -20 -20 -20 -20 -20 -20 -20 -20 13 -17 -20 -20 18 16 11 -1 12 20 22 19 14 11 -1 -10 -20 -20 -20 -20 -20 -20 -20 -20 -20 -20
-20 -20 -20 -20 -20 -20 -20 -20 -20 -20 -20 -20 -20 -20 -18 -8 -12 -1 -1 -20 -11 -20 -20 14 -18 5 22 -4 12 16 23 21 16 -15 -20 -20 -20 -20 -20 -20 -20 -20 -20
-20 -20 -20 -20 -20 -20 -20 -20 -20 -20 -20 -20 -9 1 10 -20 -15 -3 3 -6 4 1 24 20 11 5 11 5 1 15 19 18 15 -11 -20 -20 -20 -20 -20 -20 -20 -20 -20
-20 -20 -20 -20 -20 -20 -20 -20 -20 -20 -20 -20 -15 -17 19 16 20 22 17 -5 -3 12 16 16 9 15 26 26 20 34 36 12 7 -3 1 -7 -20 -20 -20 -20 -20 -20 -20
-16 13 5 -19 -20 -20 -20 -20 -20 -20 -20 -20 -5 8 20 5 22 14 8 -18 -13 13 11 19 27 27 29 28 12 16 4 -5 -20 -20 -20 -20 -20 -20 -20 -20 -20 -20 -20
-20 -20 -20 -20 -20 -20 -20 -20 -20 -20 -19 6 22 8 5 12 7 15 17 3 -10 3 17 15 20 24 22 35 33 26 -6 -14 0 -14 -20 -20 -20 -20 -20 -20 -20 -20 -20
-20 -11 -20 -20 -20 -20 -20 -20 11 10 9 -10 -1 9 -10 -11 19 10 7 19 29 16 18 21 20 23 26 28 19 9 -17 -20 -20 -20 -3 -19 -20 -20 -20 -20 -20 -20 -20
-20 -20 1 -20 -16 15 2 21 16 23 -5 8 10 1 -15 -8 4 21 10 15 19 17 20 23 28 29 30 22 14 -17 -20 -6 7 -8 -20 -20 -20 -20 -20 -20 -20 -20 -20
-20 -12 3 16 9 15 23 3 -20 -20 2 -15 -19 -17 -8 5 14 10 11 12 15 23 27 27 26 22 17 -1 -9 0 -7 -10 -3 -8 -20 -20 -20 -20 -20 -20 -20 -20 -20
0 7 7 5 -0 7 -15 0 0 17 19 9 6 14 21 19 15 18 17 19 24 23 21 21 18 8 -5 -16 -7 5 -2 -18 -20 -20 -20 -19 -14 -20 -20 -20 -20 -20 -20
9 -15 8 -13 -17 -18 -11 1 18 14 14 11 14 11 14 15 20 21 18 14 13 16 7 -6 3 8 11 -5 -17 -8 -13 -20 -20 -20 -20 -19 -20 -20 -20 -20 -20 -20 -20
19 -19 -7 12 -20 -12 -11 1 12 11 15 16 15 13 12 10 6 6 8 6 -4 -13 -2 5 5 7 5 -5 -20 -16 -12 -2 -1 -3 0 -1 -1 -2 -20 -20 -20 -20 -20
29 29 17 9 19 28 34 30 32 28 23 23 20 8 5 -0 4 4 8 10 10 7 4 5 5 0 -5 -12 -16 -4 -3 1 1 2 1 2 2 1 1 -8 -20 -15 -15
31 28 28 27 24 24 23 22 23 22 21 20 18 13 5 -1 -5 -4 -10 3 -2 -1 -3 -1 -0 -1 0 -1 3 3 2 3 0 1 3 3 4 4 3 -3 -8 -11 -0
13 25 28 29 28 20 23 24 24 22 17 14 11 10 11 9 8 6 4 3 0 1 0 -0 -1 0 2 1 2 4 3 2 1 -0 -5 0 4 -19 5 4 5 4 -15
9 15 17 17 21 24 23 20 20 19 17 17 11 -3 -14 -1 2 1 -1 -1 -1 -1 1 -1 2 1 -0 0 -2 1 2 3 1 1 2 3 3 5 4 5 -3 -19 3
-12 -12 -2 2 1 1 1 3 8 10 11 6 -0 -2 -16 -1 -3 -2 -0 1 2 -0 -2 -1 -1 -2 -9 -2 -1 1 1 1 2 3 4 3 3 4 4 -12 -20 -14 -4
-0 -4 -5 3 8 8 9 10 9 6 -0 -1 -2 -1 1 2 1 0 2 3 1 1 -2 -13 -7 -18 -6 -2 -0 1 2 2 2 2 3 3 3 4 -11 5 -10 -6 -17
-20 -20 -20 -18 -4 -2 -1 -0 -17 -17 -5 -2 0 1 0 2 3 0 1 1 -1 0 -1 -2 -8 -20 -20 -19 -1 -1 -4 -2 0 -0 0 4 4 4 1 4 -0 4 -20
-20 -20 -20 -20 -18 -5 -5 -6 -6 -3 -2 -1 2 1 -0 -0 -1 2 0 -2 -20 -10 -5 -17 -2 -16 -20 -20 -20 -20 -20 -20 -6 -7 -2 1 2 2 3 3 4 4 -13
-20 -20 -20 -20 -20 -20 -20 -20 -20 -17 -3 -1 0 1 -1 -2 -1 -1 -5 -11 -20 -20 -20 -9 -10 -20 -20 -20 -20 -20 -20 -20 -20 -20 -3 1 2 2 4 4 2 4 -3

GFSGL_prec_radar_075.txt.gz
Reflectivity
-20 -20 -20 -20 -20 -20 -12 -6 -20 -13 -20 -20 -20 -20 -20 -20 -20 -4 -19 -20 -20 14 -6 18 -8 -3 17 22 24 21 12 -12 -17 -0 17 23 8 -11 -16 1 -18 -20 -20
-20 -20 -20 -20 -20 -20 -20 -20 -20 -20 -20 -20 -20 -20 -20 -20 -20 -19 -20 -20 -20 -18 2 17 -20 8 20 21 23 -18 -4 6 5 28 26 28 27 25 5 -20 -20 -20 -20
-20 -20 -20 -20 -20 -20 -20 -20 -20 0 -7 -17 -3 -12 -20 -20 -20 -20 -20 -20 -20 -20 -20 -20 -20 -20 9 -7 -1 8 13 7 17 30 24 21 27 26 -6 -12 -19 -20 -20
-20 -20 -20 -20 -20 -20 -20 -20 -20 -20 -20 -4 -2 -15 -16 -20 -20 -20 -20 -12 -0 0 -9 -10 -19 -0 -20 0 33 23 29 26 20 20 27 18 15 9 3 3 -7 -20 -20
-20 -20 -20 -20 -20 -20 -20 -20 -20 -20 -20 -20 -20 -20 -19 -20 -20 -20 -20 -20 -20 3 3 6 -10 4 -12 31 27 24 25 20 26 16 27 13 32 12 19 5 -20 -20 -20
-20 -20 -20 -20 -20 -20 -20 -20 -20 -20 -20 -20 -20 -20 -20 -20 -20 -20 -20 -20 -20 4 9 -15 0 3 12 30 9 15 7 24 34 31 34 9 33 18 11 -15 -20 -20 -20
-20 -20 -20 -20 -20 -20 -20 -20 -20 -20 -20 -20 -20 -20 -20 -20 -20 -20 -20 -20 -20 -18 -16 -20 -20 -9 32 6 28 22 14 24 19 5 15 26 29 35 11 -4 -20 -20 -20
-20 -20 -20 -20 -20 -20 -20 -20 -20 -20 -20 -20 -20 -20 -20 -20 -20 8 -15 -20 -17 -16 -20 -20 -20 1 28 28 20 23 16 24 39 23 7 11 38 38 25 -2 -20 -20 -20
-20 -20 -20 -20 -20 -20 -20 -20 -20 -20 -20 -18 1 1 1 -6 6 14 14 -20 -20 -10 -5 -6 11 20 29 14 17 28 34 32 27 37 33 34 29 26 14 -6 -20 -20 -20
-20 -20 -20 -20 -20 -20 -20 -20 -20 -20 -20 -20 -20 -20 9 15 5 10 18 17 25 27 28 31 33 25 31 26 7 13 10 17 20 21 31 31 28 23 15 6 -19 -20 -20
-20 -20 -20 -20 -11 -0 15 15 -20 -20 -20 -20 -20 -20 -20 -0 9 16 17 9 24 23 21 18 14 27 25 25 19 2 18 24 25 33 36 25 17 5 -8 1 -2 -1 -14
4 9 0 1 5 16 -14 -20 -20 -20 -20 0 -13 -1 -3 -5 21 -0 4 18 24 10 13 14 18 22 21 20 19 19 23 25 25 26 23 14 12 14 14 8 -2 -11 -20
-19 6 9 -13 -10 1 -10 2 -20 4 15 13 15 9 21 31 32 19 13 5 13 5 -0 18 22 17 16 14 14 21 25 23 22 17 14 17 14 5 -1 -15 -20 -20 -20
12 -4 -12 7 4 2 -11 -9 8 20 18 24 18 14 27 -1 -10 4 1 -0 9 12 17 16 10 14 8 12 15 16 16 17 21 17 11 5 -19 -20 -20 -20 -20 -20 -20
17 24 27 16 15 10 16 21 31 25 21 32 26 42 18 6 19 26 13 7 7 16 17 10 16 18 15 6 7 15 15 4 -8 -11 -13 -20 -20 -20 -20 -20 -20 -20 -18
30 28 30 23 28 13 26 28 22 26 35 31 23 27 22 23 24 21 18 13 14 18 19 18 16 11 10 11 -1 -15 -17 -14 -14 -20 -19 -13 -13 -9 -5 -13 -20 -9 -5
22 15 27 28 23 27 32 27 -6 10 15 15 22 23 23 20 22 21 21 23 22 18 10 9 8 6 -5 1 -3 -15 -5 -12 -20 -8 -1 1 1 1 -3 -1 -2 0 2
23 31 27 29 19 17 10 11 20 2 12 20 25 25 27 29 28 26 24 23 21 15 10 0 -4 -6 -20 -16 -16 -2 0 2 3 -6 -0 2 3 2 2 1 -1 2 3
20 21 24 26 31 32 29 28 26 26 26 25 26 26 25 25 24 21 22 19 15 11 6 0 5 -2 -16 -0 2 4 2 4 0 4 6 5 6 3 2 1 -6 -6 -8
24 15 17 23 24 21 22 22 21 20 20 17 18 18 18 15 15 16 15 14 10 6 1 -14 -14 -4 -8 -0 -1 4 1 -2 -2 -3 -3 -0 3 3 4 4 3 4 5
13 12 9 14 7 10 14 19 19 18 17 17 19 16 12 10 9 9 10 8 4 1 -4 -3 -3 -2 -5 -5 -7 -2 -2 1 -1 -1 -1 0 1 2 2 5 6 6 7
7 13 14 12 7 5 3 1 2 4 7 7 5 2 1 -1 -2 0 -2 -1 -0 -6 -15 -3 -4 -11 -5 -4 -3 1 0 -0 -0 -1 -1 -3 -2 -0 2 5 6 6 5
-4 -4 -5 1 5 1 2 5 7 5 5 4 5 2 0 -3 -3 -2 0 0 -2 -0 -3 -4 -2 -6 -4 -7 -2 -1 0 -0 -1 -2 -0 0 1 2 3 4 5 7 7
-5 -4 -20 -18 -4 0 -0 0 -20 -17 -4 -1 -1 -2 -2 1 1 -2 0 -1 -1 -0 -2 -3 -3 -11 -20 -19 -3 -5 -7 -18 -18 -5 -2 1 2 1 2 2 3 4 -9
-20 -20 -20 -20 -6 -3 -4 -5 -3 -2 -1 1 0 1 0 0 1 2 1 -2 -6 -4 -4 -17 -4 -17 -20 -20 -20 -19 -7 -20 -20 -20 -16 -2 1 3 2 3 4 6 9
-20 -20 -20 -20 -12 -2 -1 -1 1 -0 1 1 1 1 1 -1 -1 -0 -4 -12 -20 -20 -20 -10 -5 -18 -20 -20 -10 -20 -20 -20 -20 -20 -6 -3 -1 0 4 5 1 -12 5

GFSGL_prec_radar_078.txt.gz
Reflectivity
-20 -20 -20 -20 -20 -20 -14 -10 -20 -0 -20 -20 -20 -20 -20 -20 -20 -20 -20 -20 -4 -8 -20 -20 -20 -20 -20 8 18 11 17 18 11 -20 -20 -20 -12 4 4 3 26 5 -12
-20 -20 -20 -20 -20 -20 -20 -20 -20 -20 -20 -20 -20 -20 -20 -20 -20 -20 -20 -20 -20 -19 -20 -20 -20 -20 -11 12 14 5 14 14 14 2 7 -20 -18 -16 -17 -18 20 22 11
-20 -20 -20 -20 -20 -20 -20 -20 -20 -20 -20 -20 -20 -20 -20 -20 -20 -20 -20 -20 -20 -20 -20 -17 -20 -2 -16 -7 12 16 15 16 14 13 16 22 16 1 3 3 17 24 20
-20 -20 -20 -20 -20 -20 -20 -20 -20 -20 -20 -20 -20 -20 -20 -20 -20 -20 -20 -20 -20 -20 -20 -20 -20 -14 1 10 22 23 21 10 14 15 15 10 6 -1 -1 16 8 5 14
-20 -20 -20 -20 -20 -20 -20 -20 -20 -20 -20 -20 -20 -20 -20 -20 -20 -20 -20 -20 -20 -20 -20 -20 -20 -13 19 29 25 22 22 19 22 12 3 5 -17 -13 -16 16 -1 10 24
-20 -20 -20 -20 -20 -20 -20 -20 -20 -20 -20 -20 -20 -20 -20 -20 -20 -20 -20 -20 -20 -20 -20 -20 -20 0 -17 21 24 -5 5 8 0 24 31 8 -1 19 18 5 0 26 35
-20 -20 -20 -20 -20 -20 -20 -20 -20 -20 -20 -20 -20 -20 -20 -20 -20 -20 -20 -20 -20 -20 -20 -20 -20 -20 -20 -1 -0 -1 10 13 31 43 33 37 40 9 21 18 34 22 31
-20 -20 -20 -20 -20 -20 -20 -20 -20 -20 -20 -20 -20 -20 -20 -20 -20 -20 -20 -10 -12 -20 -20 -20 -20 -20 -20 -20 -20 -19 10 40 31 31 27 34 39 30 34 30 27 34 36
-20 -20 -12 -5 1 1 -20 -20 -20 -20 -20 -20 -20 -20 -20 -20 -20 -20 -20 -1 -18 -20 -20 -20 -20 3 11 6 4 14 31 17 35 27 34 25 24 28 31 37 23 27 25
-20 -20 -20 -20 -20 -20 -20 -20 -20 -20 -20 -20 -20 -20 7 -19 5 9 10 -20 -0 -2 -18 -18 11 13 21 11 14 19 28 23 21 11 9 12 17 11 19 31 34 23 20
-20 -20 -20 -20 -20 -20 -20 -20 -20 -16 -20 -20 -19 -16 -17 16 2 20 23 -10 -20 -15 6 17 22 32 25 28 27 16 15 14 20 15 8 16 10 12 23 32 31 20 19
-20 -20 -20 -2 -20 -20 -20 -20 -20 8 -6 14 1 -5 10 15 21 19 16 21 27 15 14 13 18 28 26 22 13 15 18 21 12 14 19 24 19 11 6 9 11 13 8
-20 -12 -17 -11 -15 27 -5 -15 -9 23 -20 -13 8 -8 1 24 20 27 28 26 18 23 38 31 19 13 14 22 18 16 16 18 15 19 19 10 3 5 3 6 4 -10 -18
-19 6 4 -1 2 -4 20 21 9 -1 -4 22 18 20 17 19 24 18 25 32 29 38 36 33 31 33 27 15 20 18 19 7 10 15 14 9 2 -20 -20 -20 -20 -20 -20
-20 -6 13 9 19 9 16 8 11 17 22 30 21 26 31 23 29 26 30 40 30 32 31 23 24 24 18 21 22 18 19 19 17 17 14 10 -16 -20 -19 -20 -20 -20 -20
-18 5 10 16 15 23 21 18 20 23 19 26 35 34 36 35 33 34 34 30 32 30 24 24 24 25 23 21 22 20 19 18 16 11 9 7 7 3 -20 -20 -20 -20 -15
-12 15 20 23 29 22 28 27 20 17 17 20 24 29 33 23 30 34 32 23 23 23 23 23 22 20 20 20 20 19 17 17 16 15 4 -4 -16 -20 -20 -20 -20 -20 -20
-9 13 17 27 31 29 29 31 40 39 24 28 36 38 33 24 24 24 20 23 24 24 21 17 17 16 14 11 10 9 -2 -13 -18 -19 -17 -20 -20 -20 -20 -20 -20 -20 -20
-11 -8 9 22 24 21 24 24 25 22 19 20 19 19 23 23 23 21 17 15 16 20 20 19 14 12 10 6 -4 -19 -20 -20 -20 -20 -20 -20 -20 -20 -20 -20 -20 -20 -20
-8 -4 -6 12 21 24 25 23 20 20 20 20 18 21 20 18 18 19 18 17 15 12 3 -3 -2 -1 -1 -8 -9 -11 -19 -20 -20 -20 -20 -20 -20 -20 -20 -20 -20 -20 -7
-8 -20 -8 -5 -5 2 4 7 12 17 16 14 17 19 18 16 15 13 13 13 12 10 4 -2 -3 -7 -20 -20 -20 -20 -20 -20 -20 -20 -20 -20 -20 -20 -20 -20 -20 -20 -4
-16 -20 -20 -20 -10 -18 -10 -3 -3 -5 2 7 10 10 8 5 3 2 -1 -4 -9 -14 -20 -20 -20 -20 -20 -20 -20 -20 -20 -20 -20 -20 -20 -20 -20 -20 -20 -20 -20 -20 -19
-20 -19 -3 -8 -19 -20 -20 -11 -3 -8 -5 -2 -10 -7 -20 -19 -7 -15 -15 -8 -12 -19 -20 -20 -20 -20 -20 -20 -20 -20 -20 -20 -20 -20 -20 -20 -20 -20 -20 -20 -20 -20 -20
-19 -9 -14 -20 -20 -18 -12 -2 -9 -20 -6 -10 -20 -20 -18 -6 -11 -20 -20 -20 -20 -13 -20 -20 -20 -20 -20 -20 -20 -20 -20 -20 -20 -20 -20 -20 -20 -20 -20 -20 -20 -20 -20
-20 -20 -20 -7 -6 -9 -18 -20 -20 -20 -20 -20 -20 -20 -20 -20 -6 -20 -20 -20 -20 -20 -20 -20 -20 -20 -20 -20 -20 -20 -20 -20 -20 -20 -20 -20 -20 -20 -20 -20 -18 2 -20
-20 -20 -20 -20 -20 -20 -20 -20 -20 -20 -20 -20 -19 -20 -20 -20 -20 -20 -20 -20 -20 -20 -20 -20 -20 -20 -20 -20 -20 -20 -20 -20 -20 -20 -20 -20 -20 -14 -18 -14 -20 -20 -20

GFSGL_prec_radar_081.txt.gz
Reflectivity
-20 -20 -20 -14 -20 -3 -20 -20 -20 -20 -20 -20 -20 -20 -20 -20 -17 -20 -20 -20 -20 -9 -3 -1 -2 -5 -19 -20 -12 -15 -4 9 18 8 -16 -20 -19 -20 -7 -4 -19 -3 17
-20 -20 -20 -20 -20 -20 -20 -20 -20 -20 -20 -20 -20 -20 -20 -20 -20 -20 -20 -20 -20 -20 -19 -8 -2 0 -18 -5 10 -20 -20 -20 -11 24 30 16 -20 -20 -20 -20 7 32 25
-20 -20 -20 -20 -20 -20 -20 -20 -20 -20 -20 -20 -20 -20 -20 -20 -20 -20 -20 -20 -20 -20 -20 -20 -20 -20 -9 -20 -20 -20 -20 -20 -20 2 18 -20 -9 -20 -8 25 21 9 19
-20 -20 -20 -20 -20 -20 -20 -20 -20 -20 -20 -20 -20 -20 -20 -20 -20 -20 -20 -20 -20 -20 -20 -20 -20 -20 -20 -20 -20 -20 -18 12 11 13 15 20 2 5 4 24 17 25 20
23 -20 -20 -20 -20 -20 -20 -20 -20 -20 -20 -20 -20 -20 -20 -20 -20 -20 -20 -20 -20 -20 -20 -20 -20 -20 -20 -20 -20 -20 -1 13 20 26 26 25 17 5 25 30 15 22 28
-16 -20 -20 -20 -20 -20 -20 -20 -20 -20 -20 -20 -20 -20 -20 -20 -20 -20 -20 -20 -20 -20 -20 -20 -20 -20 -20 -20 -20 -20 -1 -14 15 16 8 -9 -12 -20 14 28 31 33 33
-6 16 -20 -20 -8 -20 -20 -20 -20 -20 -20 -20 -20 -18 -20 -20 -20 -20 -20 -20 -20 -20 -20 -20 -20 -20 -20 -20 -4 -18 2 15 14 11 4 -20 -20 -5 20 9 5 14 20
-20 -14 20 30 2 22 -20 -20 -20 -20 -20 -20 -20 -20 2 -20 -20 -20 -20 -20 -20 -20 -20 -20 -20 -20 -20 -17 -20 -2 -20 -17 -8 7 -2 20 25 38 11 20 23 30 8
-20 -20 -20 -20 27 26 20 -17 -20 -20 -20 -20 -20 -20 -20 -20 -20 -20 8 -10 0 0 -20 -20 -20 2 21 16 -1 -4 2 10 17 12 29 29 22 31 25 24 26 23 15
-19 -20 -20 -20 -20 -20 -16 -12 4 16 -17 -20 -20 -20 -10 -4 21 13 7 4 -16 16 14 12 22 16 25 14 2 -8 -10 -14 -2 11 16 23 26 22 25 21 17 15 15
-20 -20 -20 -20 -20 -20 -20 23 27 7 -14 -20 -8 8 -3 6 6 15 11 4 -5 8 11 12 6 23 20 26 27 9 7 21 26 17 14 15 21 17 10 10 7 14 15
-20 -20 -20 -20 -20 -20 -20 -20 23 17 -3 -20 -20 -20 -11 -20 15 15 5 13 5 -4 7 23 27 29 26 21 25 27 29 24 12 21 16 14 15 22 3 11 9 5 9
-20 -20 -20 -20 -20 -20 -20 -20 -9 26 28 -7 20 20 -4 25 12 24 22 24 24 12 14 26 27 24 24 27 35 39 30 33 28 19 22 23 16 11 1 -1 3 2 3
-20 -20 -20 -20 -20 -20 -20 -7 -8 -0 23 23 29 28 20 20 11 11 13 14 21 20 24 25 30 26 29 36 37 27 25 26 30 29 29 21 16 16 16 14 13 9 9
-20 -20 -20 -20 -20 -20 -14 7 10 13 23 23 25 27 29 22 25 29 26 32 29 34 35 34 40 39 29 32 32 29 27 24 26 26 24 20 18 16 15 15 13 6 -4
-20 -20 -20 -20 -20 -20 -20 -15 11 16 21 25 26 29 27 32 30 23 22 24 27 29 31 28 32 36 33 25 27 26 24 25 24 20 15 14 11 5 -5 -9 -16 -18 -20
-19 -20 -20 -20 -17 -18 -17 -10 7 18 18 20 22 21 23 27 27 20 25 29 28 28 25 26 30 30 29 24 22 20 19 18 9 5 6 6 -1 -12 -18 -20 -20 -20 -20
-0 -14 -20 -18 -16 -13 -1 3 4 12 24 28 28 33 33 32 36 34 23 24 27 27 26 24 21 21 18 13 13 13 13 10 1 -6 -15 -20 -20 -20 -20 -20 -20 -20 -20
-5 -16 -17 -20 -17 -12 -6 2 7 16 22 22 20 21 25 26 25 24 19 12 15 12 11 8 1 1 3 4 2 -4 -11 -19 -20 -20 -20 -20 -20 -20 -20 -20 -20 -20 -20
-11 -10 -15 -17 -18 -16 -14 -13 -11 9 12 13 15 15 16 16 17 16 13 5 1 -1 -11 -17 -15 -14 -11 -17 -20 -20 -20 -20 -20 -20 -20 -20 -20 -20 -20 -20 -20 -20 -20
-20 -20 -20 -20 -20 -20 -20 -20 -20 -20 -6 3 9 11 13 15 15 15 13 2 0 -2 -10 -20 -20 -20 -20 -20 -20 -20 -20 -20 -20 -20 -20 -20 -20 -20 -20 -20 -20 -20 -20
-20 -20 -20 -20 -20 -20 -20 -17 -11 -15 -14 -14 -20 -20 -13 -12 -9 -11 -20 -20 -20 -20 -20 -20 -20 -20 -20 -20 -20 -20 -20 -20 -20 -20 -20 -20 -20 -20 -20 -20 -20 -20 -20
-20 -20 -20 -20 -20 -20 -20 -20 -20 -20 -20 -20 -20 -20 -20 -20 -20 -20 -20 -20 -20 -20 -20 -20 -20 -20 -20 -20 -20 -20 -20 -20 -20 -20 -20 -20 -20 -20 -20 -20 -20 -20 -20
-20 -20 -20 -20 -20 -20 -20 -20 -20 -20 -20 -20 -20 -20 -20 -20 -20 -20 -20 -20 -20 -20 -20 -20 -20 -20 -20 -20 -20 -20 -20 -20 -20 -20 -20 -20 -20 -20 -20 -20 -20 -20 -20
-20 -20 -20 -20 -20 -20 -20 -20 -20 -20 -20 -20 -20 -20 -20 -20 -20 -20 -20 -20 -20 -20 -20 -20 -20 -20 -20 -20 -20 -20 -20 -20 -20 -20 -20 -20 -20 -20 -20 -20 -20 -20 -20
-20 -20 -20 -20 -20 -20 -20 -20 -20 -20 -20 -20 -20 -20 -20 -20 -20 -20 -20 -20 -20 -20 -20 -20 -20 -20 -20 -20 -20 -20 -20 -20 -20 -20 -20 -20 -20 -20 -20 -20 -20 -20 -20

GFSGL_prec_radar_084.txt.gz
Reflectivity
-20 -20 -20 -20 -12 8 -20 -20 -20 -14 -13 -20 -20 -20 -20 -20 -20 -20 -20 -20 -9 -10 -3 4 5 4 11 13 10 5 14 13 10 -1 -1 -20 -8 7 -7 1 -17 11 -20
-20 -20 -20 -20 -15 -20 -20 -20 -20 -20 -20 -20 -20 -20 -20 -20 -20 -20 -20 -20 -20 -20 -20 -20 -20 -9 -14 -14 -7 11 15 12 -2 4 -14 -20 -20 -20 -9 23 22 -19 -20
-19 -20 -20 -20 -20 -20 -20 -20 -20 -20 -20 -20 -20 -20 -20 -20 -20 -20 -20 -20 -20 -20 -20 -20 -20 -20 -20 -20 -20 -20 -11 -5 -7 -12 4 -20 -20 -20 -20 9 -20 -20 -20
-20 -20 -20 -20 -20 -20 -20 -20 -20 -20 -20 -20 -20 -20 -20 -20 -20 -20 -20 -20 -20 -20 -20 -20 -20 -20 -20 -20 -20 -20 -20 -20 -17 -20 -20 -20 -20 -20 -20 -15 4 -2 -7
-7 21 29 -20 26 -8 -20 -20 -20 -20 -20 -20 -20 -20 -20 -20 -20 -20 -20 -20 -20 -20 -20 -20 -20 -20 -20 -20 -20 -20 -20 -20 -20 -20 -20 -9 -14 -20 -15 -20 -13 8 -16
-3 16 14 30 -19 -20 -20 -19 -19 -20 -20 -20 -20 -20 -20 -20 -20 -20 -20 -20 -20 -20 -20 -20 -20 -20 -20 -20 -20 -20 -20 -20 -20 -20 -20 -1 -20 -20 -18 24 6 -2 5
-20 -20 -20 3 9 -4 20 20 -9 -20 25 -7 -20 -20 -20 -20 -20 -20 -20 -20 -20 -20 -20 -20 -20 -20 -20 -20 -20 -20 -20 -20 -14 -20 -18 -20 -20 -11 10 11 15 -20 5
-20 -20 -20 -20 -20 -1 -3 -20 -20 -20 1 -20 7 17 -14 -20 -20 -20 -20 -20 -20 -20 -20 -20 -20 -20 -20 -20 -20 -20 -20 -20 -20 -20 -12 -20 -14 12 28 25 26 31 29
-20 -20 -20 -20 -20 -20 -20 -20 3 10 -12 -19 18 -5 -20 -20 1 -4 -2 -20 -8 4 4 -20 -20 -20 -20 -20 -20 -20 -20 -20 -2 8 8 17 21 17 20 19 18 27 21
-20 -20 -20 -20 -20 -20 -20 -20 -20 -20 -20 -20 -12 8 20 19 8 26 9 -11 -7 17 13 13 17 11 -13 -15 -14 -16 -16 -4 8 19 21 26 27 21 22 11 -1 1 30
-20 -20 -20 -20 -20 -20 -12 -3 -20 -20 -20 -20 23 5 14 22 8 -8 9 6 16 -3 -15 -1 1 18 23 20 21 20 23 22 28 27 18 19 24 31 20 11 13 15 9
-20 -20 -20 -20 -20 -20 -20 -20 -20 -20 -20 -20 16 22 20 4 20 21 14 20 20 12 13 24 30 35 30 28 19 19 19 19 14 15 21 26 24 27 28 31 32 28 24
-20 -20 -20 -20 -20 -20 -20 -20 -20 -20 -18 -7 20 21 18 25 15 25 16 18 32 27 14 25 27 26 19 20 24 27 25 28 25 29 25 28 30 33 34 30 28 24 18
-20 -20 -20 -20 -20 -20 -20 -20 -20 -20 -20 -3 6 11 19 8 18 27 21 9 20 33 46 23 16 20 25 28 28 22 20 25 28 30 31 29 30 29 28 26 27 26 21
-20 -20 -20 -20 -20 -20 -20 -18 -20 -18 -20 -19 -6 14 20 13 20 30 31 34 22 25 32 34 31 35 36 29 27 29 31 30 29 27 28 29 28 27 25 23 20 18 4
-20 -20 -11 -19 -20 -20 -20 -20 -20 -18 -12 1 6 15 18 17 18 27 31 23 13 18 25 31 33 33 29 30 31 27 26 26 24 24 23 22 19 17 17 13 8 -8 -11
-20 -20 -20 -20 -20 -20 -20 -20 -20 -20 -20 -16 -6 10 17 18 22 26 27 29 26 27 27 25 25 23 18 22 24 24 22 21 23 22 22 21 18 15 10 -3 -11 -20 -20
-20 -20 -20 -20 -20 -20 -20 -20 -20 -20 -20 -18 -1 6 7 0 6 14 19 19 22 20 19 18 20 20 20 20 18 14 13 13 11 8 -1 -9 -9 -16 -20 -20 -20 -20 -20
-20 -20 -20 -20 -20 -20 -20 -20 -20 -20 -18 -2 4 3 3 7 5 13 18 19 18 17 16 17 18 18 18 18 14 12 2 -11 -17 -14 -20 -20 -20 -20 -20 -20 -20 -20 -20
-20 -20 -20 -20 -20 -20 -20 -20 -20 -20 -20 -20 -20 -17 -2 -4 -2 3 4 8 12 15 16 16 15 13 12 10 4 -8 -12 -20 -20 -20 -20 -20 -20 -20 -20 -20 -20 -20 -20
-20 -20 -20 -20 -20 -20 -20 -20 -20 -20 -20 -20 -20 -20 -20 -20 -20 -19 -17 -7 -3 -4 -11 -20 -20 -20 -20 -20 -20 -20 -20 -20 -20 -20 -20 -20 -20 -20 -20 -20 -20 -20 -20
-20 -20 -20 -20 -20 -20 -20 -20 -20 -20 -20 -20 -20 -20 -20 -20 -20 -20 -20 -20 -20 -20 -20 -20 -20 -20 -20 -20 -20 -20 -20 -20 -20 -20 -20 -20 -20 -20 -20 -20 -20 -20 -20
-20 -20 -20 -20 -20 -20 -20 -20 -20 -20 -20 -20 -20 -20 -20 -20 -20 -20 -20 -20 -20 -20 -20 -20 -20 -20 -20 -20 -20 -20 -20 -20 -20 -20 -20 -20 -20 -20 -20 -20 -20 -20 -20
-20 -20 -20 -20 -20 -20 -20 -20 -20 -20 -20 -20 -20 -20 -20 -20 -20 -20 -20 -20 -20 -20 -20 -20 -20 -20 -20 -20 -20 -20 -20 -20 -20 -20 -20 -20 -20 -20 -20 -20 -20 -20 -20
-20 -20 -20 -20 -20 -20 -20 -20 -20 -20 -20 -20 -20 -20 -20 -20 -20 -20 -20 -20 -20 -20 -20 -20 -20 -20 -20 -20 -20 -20 -20 -20 -20 -20 -20 -20 -20 -20 -20 -20 -20 -20 -20
-20 -20 -20 -20 -20 -20 -20 -20 -20 -20 -20 -20 -20 -20 -20 -20 -20 -20 -20 -20 -20 -20 -20 -20 -20 -20 -20 -20 -20 -20 -20 -20 -20 -20 -20 -20 -20 -20 -20 -20 -20 -20 -20

GFSGL_prec_radar_087.txt.gz
Reflectivity
-20 -20 -20 -20 -20 -20 -20 -20 -20 -20 -20 -20 -20 -20 -20 -20 -20 -20 -20 -20 -20 -20 -20 -20 -19 20 19 19 11 9 22 17 5 9 -14 -2 13 -10 -20 -14 6 -4 9
-20 -20 -20 -20 1 -12 -20 -20 -13 2 -20 -20 -20 -20 -20 -20 -20 -20 -20 -20 -20 -20 -20 -4 -20 -5 -19 -12 1 18 28 15 20 10 -20 -20 -6 -19 -13 17 14 -20 -20
-20 -20 -20 -20 -20 -19 -20 -20 -18 8 -2 -20 -20 -20 -20 -20 -20 -20 -20 -20 -20 -20 -20 -20 -20 -14 -20 -20 -20 -20 -20 -10 3 5 -20 -20 -20 -20 -9 -18 -20 -20 -20
-20 -20 8 4 -20 -9 -20 -20 -20 -20 -20 -14 -18 -20 -12 -12 -20 -20 -20 -20 -20 -20 -20 -20 -20 -20 -20 -20 -20 -20 -20 -20 -20 -1 -20 -20 -20 -20 -20 -20 -20 -20 -20
13 19 18 5 16 0 -19 8 -20 -20 -20 -20 -20 -20 -20 -20 -20 -20 -20 -20 -20 -20 -20 -20 -20 -20 -20 -20 -20 -20 -20 -20 -20 -20 -20 -20 -20 -20 -20 -20 -20 -20 -20
-17 -20 -20 -20 -2 18 22 0 -2 -7 11 -20 15 -19 -20 -20 -20 -20 -20 -20 -20 -20 -20 -20 -20 -20 -20 -20 -20 -20 -20 -20 -20 -20 -20 -20 -20 -20 -20 -20 -20 -20 -20
-20 -5 20 12 9 6 -1 9 9 8 -12 -20 -20 -20 -20 -20 -10 -2 -18 -20 -20 -20 -20 -20 -20 -20 -20 -20 -20 -20 -20 -20 -20 -20 -20 -20 -20 -20 -20 -20 -19 -20 -20
-20 -20 -20 -20 -20 -20 -18 2 -8 11 17 5 4 -7 -4 -20 3 27 26 9 -14 -20 -20 -20 -20 -20 -12 -20 -20 -20 -20 -20 -20 -20 -20 -20 -20 -20 -20 -16 -3 11 -9
-20 -20 -20 -20 -20 -20 -20 -20 -20 -20 -1 -5 17 18 16 -8 23 21 15 5 -15 15 15 21 3 -20 -20 -17 -14 -20 -20 -20 -20 -7 5 8 5 2 4 1 -3 17 20
-20 -20 -20 -20 -20 -20 -20 -20 -20 -20 -20 -16 -10 7 28 15 29 18 19 29 24 10 12 20 25 9 10 11 -0 -18 -19 -20 -20 -20 -17 6 14 13 21 21 6 34 39
-20 -20 -20 -20 -20 -20 -20 -20 -20 -20 -20 -20 -20 -20 11 22 21 21 22 23 12 12 27 23 22 27 18 14 19 18 21 28 15 21 8 15 16 21 30 36 27 22 22
-20 -20 -20 -20 -20 -20 -20 -20 -20 -20 -20 -20 -20 -20 -18 0 30 20 16 20 20 22 35 25 18 28 27 35 29 24 27 29 12 10 16 17 15 14 15 18 22 23 22
-20 -20 -20 -20 -20 -20 -20 -20 -20 -20 -20 -20 -20 -20 -20 -20 -9 19 14 15 19 22 18 27 30 20 22 13 27 37 34 35 28 32 39 26 29 26 28 21 22 25 28
-20 -20 -20 -20 -20 -20 -20 -20 -20 -20 -20 -20 -20 -20 -20 -20 -20 -8 -3 9 17 17 18 24 29 33 37 35 35 22 32 38 38 33 34 28 28 25 25 22 23 24 25
-20 -20 -20 -20 -20 -20 -18 -17 -17 -6 -18 -19 -20 -20 -20 -19 0 3 3 -3 11 20 18 18 20 28 31 27 16 21 24 24 29 36 38 37 31 29 27 25 24 23 24
-20 -20 -20 -20 -20 -20 -20 -19 -20 -20 -20 -20 -20 -20 -20 -20 -7 -13 -11 2 9 10 -4 9 1 8 16 20 21 21 17 21 22 23 22 22 12 9 13 14 12 11 9
-20 -20 -20 -20 -20 -20 -20 -20 -20 -20 -20 -4 2 -10 -20 -1 -20 -20 -20 -17 -7 -0 -12 -15 -1 7 15 18 19 21 21 21 19 15 13 12 8 -5 -0 4 6 1 0
-20 -20 -20 -20 -20 -20 -20 -20 -20 -20 -20 -20 -20 -7 -2 -13 -12 -9 -10 -4 1 0 -2 -17 -9 1 8 10 8 6 8 9 7 6 6 7 6 4 1 -2 -1 -6 -18
-20 -20 -20 -20 -20 -20 -20 -20 -20 -20 -20 -20 -20 -20 -20 -20 -20 -20 -20 -20 -20 -20 -10 -3 2 4 6 7 7 8 3 6 8 10 -2 -14 -11 -8 -11 -17 -20 -18 -20
-20 -20 -20 -20 -20 -20 -20 -20 -20 -20 -20 -20 -20 -20 -20 -20 -20 -20 -20 -20 -20 -19 -12 -5 2 1 -4 -8 -7 -9 -4 1 4 1 -1 -4 -12 -18 -20 -20 -20 -20 -20
-20 -20 -20 -20 -20 -20 -20 -20 -20 -20 -20 -20 -20 -20 -20 -20 -20 -20 -20 -20 -20 -20 -20 -20 -20 -20 -20 -20 -20 -20 -20 -20 -20 -20 -20 -20 -20 -20 -20 -20 -20 -20 -20
-20 -20 -20 -20 -20 -20 -20 -20 -20 -20 -20 -20 -20 -20 -20 -20 -20 -20 -20 -20 -20 -20 -20 -20 -20 -20 -20 -20 -20 -20 -20 -20 -20 -20 -20 -20 -20 -20 -20 -20 -20 -20 -20
-20 -20 -20 -20 -20 -20 -20 -20 -20 -20 -20 -20 -20 -20 -20 -20 -20 -20 -20 -20 -20 -20 -20 -20 -20 -20 -20 -20 -20 -20 -20 -20 -20 -20 -20 -20 -20 -20 -20 -20 -20 -20 -20
-20 -20 -20 -20 -20 -20 -20 -20 -20 -20 -20 -20 -20 -20 -20 -20 -20 -20 -20 -20 -20 -20 -20 -20 -20 -20 -20 -20 -20 -20 -20 -20 -20 -20 -20 -20 -20 -20 -20 -20 -20 -20 -20
-20 -20 -20 -20 -20 -20 -20 -20 -20 -20 -20 -20 -20 -20 -20 -20 -20 -20 -20 -20 -20 -20 -20 -20 -20 -20 -20 -20 -20 -20 -20 -20 -20 -20 -20 -20 -20 -20 -20 -20 -20 -20 -20
-20 -20 -20 -20 -20 -20 -20 -20 -20 -20 -20 -20 -20 -20 -20 -20 -20 -20 -20 -20 -20 -20 -20 -20 -20 -20 -20 -20 -20 -20 -20 -20 -20 -20 -20 -20 -20 -20 -20 -20 -20 -20 -20

GFSGL_prec_radar_090.txt.gz
Reflectivity
-20 -20 -18 10 -20 -20 -20 -20 -20 -20 -20 -20 -20 -20 -20 -20 -20 -20 -20 -20 -20 -12 -9 -5 5 18 29 7 26 24 16 11 8 -19 -19 -16 5 17 17 -20 -12 -18 -15
-20 -20 -2 -19 -20 -14 -20 -0 -20 -20 -20 -20 -20 -20 -20 -20 -20 -20 -20 -20 -20 -20 -20 -20 -20 -20 -20 -20 -20 -19 -2 -16 11 12 -6 14 16 -10 5 -8 -8 -11 6
-20 -20 -20 -20 -20 -20 -20 -20 -20 -18 -18 -20 -20 -20 -20 -20 -20 -20 -20 -20 -20 -20 -20 -20 -20 -20 -20 -11 -11 -2 -16 -16 -15 -19 -19 -20 -1 -5 -20 -20 -18 -10 -20
-17 21 11 -11 -1 -20 -20 -20 -20 -20 -8 7 -6 -20 -20 -20 -20 -20 -20 -20 -20 -20 -20 -20 -20 -20 -20 -20 -20 -20 6 9 -6 -6 -20 -20 -20 -20 -20 -20 -20 -20 -20
24 12 4 -11 -20 -20 -20 -20 -20 -20 -20 -20 -20 -20 -20 -20 -20 -20 -20 -20 -20 -20 -20 -20 -20 -20 -20 -20 -20 -20 -20 -20 -20 -20 -20 -20 -20 -20 -20 -20 -20 -20 -20
20 13 5 16 21 16 -6 -5 2 4 6 -20 -20 -20 -20 -20 -19 -20 -20 -20 -20 -20 -20 -20 -20 -20 -20 -20 -20 -20 -20 -19 -20 -20 -20 -20 -20 -20 -20 -20 -20 -20 -20
3 -12 9 13 3 -15 4 16 21 24 16 9 -11 -13 -19 -20 -20 11 13 10 18 13 -3 -20 -20 -20 -20 -20 -20 -20 -20 -11 16 6 5 9 20 8 -20 -20 -20 -20 -20
-18 -16 -14 -20 -20 -20 8 5 8 15 16 24 18 19 17 15 27 22 12 -1 -15 -19 -20 -20 -19 -20 -13 -15 -20 -20 -20 -20 -18 -1 1 -5 14 19 16 12 12 4 6
-15 5 -20 -20 -20 -20 -20 -20 -20 -20 -20 -7 9 1 6 17 21 11 13 21 28 14 10 11 16 20 12 13 -11 -5 -20 -20 18 15 15 15 12 14 15 13 15 22 23
-20 -1 -16 -20 -20 -20 -20 -20 -20 -20 -20 -20 -20 -20 10 -15 23 6 6 7 3 6 11 11 33 29 23 19 20 25 23 15 -1 20 28 23 17 14 20 14 4 4 27
-20 -20 -20 -20 -20 -20 -20 -20 -20 -20 -20 -20 -18 -20 -12 7 1 3 -4 -12 -4 13 25 24 17 32 13 16 17 23 30 29 30 39 37 33 24 19 23 22 11 22 29
-17 -20 -20 -19 -14 -20 -20 -20 -20 -20 -20 -20 -20 -20 -20 -20 14 1 -16 -16 -11 -15 0 16 19 32 19 29 25 24 34 44 32 29 28 38 41 35 37 30 30 26 24
-1 -7 -15 -20 -20 -20 -20 -20 -20 -20 -20 -20 -20 -20 -20 -20 -20 -20 -20 -7 -7 -20 -19 2 8 8 5 14 16 25 29 34 23 24 23 24 29 33 31 30 30 28 27
-19 -20 -20 -20 -20 -20 -20 -20 -20 -20 -20 -20 -20 -20 -20 -17 -20 -20 -20 -20 -20 -20 -20 -20 -13 -8 -4 5 13 16 15 22 25 26 30 29 26 25 23 23 22 21 21
-20 -20 -20 -20 -20 -20 -18 -17 -17 -13 -17 -19 -19 -16 -20 -20 -10 3 -19 -20 -20 -20 -20 -20 -20 -20 -17 5 14 14 4 6 5 3 3 7 13 15 13 11 10 13 14
-20 -20 -20 -20 -20 -20 -20 -19 -4 6 9 9 8 -16 -11 4 2 -15 -19 -20 -20 -20 -20 -20 -20 -20 -20 -20 -19 -11 -6 -6 -13 -18 -9 4 11 14 15 16 15 9 9
-20 -20 -20 -20 -20 -20 -20 -20 -20 -20 -20 -9 -6 -6 0 -1 -20 -20 -20 -20 -20 -20 -20 -20 -20 -20 -20 -20 -20 -20 -13 -5 3 -1 -14 -5 2 5 7 -2 -3 -5 -4
-20 -20 -20 -20 -20 -20 -20 -20 -20 -20 -20 -20 -20 -20 -0 -5 -18 -20 -20 -19 -20 -20 -20 -20 -20 -20 -20 -20 -19 -7 -5 -1 4 6 -2 -18 -20 -20 -20 -20 -20 -18 -16
-20 -20 -20 -20 -20 -20 -20 -20 -20 -20 -20 -20 -20 -20 -20 -13 -20 -20 -20 -20 -20 -20 -20 -20 -20 -20 -20 -20 -20 -20 -20 -17 -15 -11 -13 -11 -20 -20 -20 -20 -20 -20 -20
-20 -20 -20 -20 -20 -20 -20 -20 -20 -20 -20 -20 -20 -20 -20 -20 -20 -20 -20 -20 -20 -20 -20 -20 -20 -20 -20 -20 -20 -20 -20 -20 -20 -20 -20 -20 -20 -20 -20 -20 -20 -20 -20
-20 -20 -20 -20 -20 -20 -20 -20 -20 -20 -20 -20 -20 -20 -20 -20 -20 -20 -20 -20 -20 -20 -20 -20 -20 -20 -20 -20 -20 -20 -20 -20 -20 -20 -20 -20 -20 -20 -20 -20 -20 -20 -20
-20 -20 -20 -20 -20 -20 -20 -20 -20 -20 -20 -20 -20 -20 -20 -20 -20 -20 -20 -20 -20 -20 -20 -20 -20 -20 -20 -20 -20 -20 -20 -20 -20 -20 -20 -20 -20 -20 -20 -20 -20 -20 -20
-20 -20 -20 -20 -20 -20 -20 -20 -20 -20 -20 -20 -20 -20 -20 -20 -20 -20 -20 -20 -20 -20 -20 -20 -20 -20 -20 -20 -20 -20 -20 -20 -20 -20 -20 -20 -20 -20 -20 -20 -20 -20 -20
-20 -20 -20 -20 -20 -20 -20 -20 -20 -20 -20 -20 -20 -20 -20 -20 -20 -20 -20 -20 -20 -20 -20 -20 -20 -20 -20 -20 -20 -20 -20 -20 -20 -20 -20 -20 -20 -20 -20 -20 -20 -20 -20
-20 -20 -20 -20 -20 -20 -20 -20 -20 -20 -20 -20 -20 -20 -20 -20 -20 -20 -20 -20 -20 -20 -20 -20 -20 -20 -20 -20 -20 -20 -20 -20 -20 -20 -20 -20 -20 -20 -20 -20 -20 -20 -20
-20 -20 -20 -20 -20 -20 -20 -20 -20 -20 -20 -20 -20 -20 -20 -20 -20 -20 -20 -20 -20 -20 -20 -20 -20 -20 -20 -20 -20 -20 -20 -20 -20 -20 -20 -20 -20 -20 -20 -20 -20 -20 -20

GFSGL_prec_radar_093.txt.gz
Reflectivity
-20 5 -4 -20 -20 3 -20 -20 -20 -20 -19 -20 -19 -7 -12 -20 -20 11 -20 -20 -20 13 14 -20 3 3 7 -6 14 31 22 17 19 -8 -19 -19 9 -19 -20 -16 -4 -1 9
-18 -20 -20 -20 -20 -9 1 -20 -20 -20 -20 -20 -20 -20 -20 -20 -20 -20 -20 -20 -20 -18 -19 -12 -20 1 1 20 21 23 20 19 4 -16 -5 -1 -9 -20 -20 -2 3 8 4
-20 -20 -20 -20 -20 -15 -13 -20 -20 -20 -20 -20 -20 -20 -20 -20 -20 -20 -20 -20 -20 9 7 9 -20 1 -20 -20 -20 -19 -20 -20 -7 10 -20 -20 -9 -20 -20 -20 -20 -20 -9
-18 20 17 -14 -20 -20 -20 -20 -1 -9 -20 -20 -20 -20 -20 -20 -20 -20 -20 -20 -16 -18 -19 -20 -20 -20 -20 -20 -20 -20 -20 -14 1 -3 -20 -20 -20 -20 -17 -20 -20 -20 -20
22 22 18 -18 -20 3 -20 -20 -20 4 4 -20 -20 -20 -20 -20 -20 -20 -20 -20 -20 -20 -20 -16 -20 -1 -3 -20 -20 -20 4 11 10 8 0 7 2 1 3 -20 4 -20 -20
17 22 32 18 18 3 -9 -10 -20 -4 -6 -20 -20 6 -20 -20 -20 -20 -20 -20 -20 -20 -20 -20 -20 -20 -20 -20 -20 -20 -20 13 -20 -1 -20 -20 -12 -10 -13 3 -2 -17 -20
17 34 14 28 25 19 14 9 8 6 3 15 21 23 16 25 18 15 17 3 -3 4 8 5 -6 -20 -2 -20 -20 -19 -17 -15 -20 -20 -9 -16 5 -12 -14 -3 -15 -9 -10
34 30 25 29 29 23 15 6 11 7 17 6 14 17 19 12 13 11 12 0 -13 14 11 6 -16 0 13 16 1 9 6 -3 11 15 31 30 27 17 15 6 1 -2 -6
37 34 24 -4 -4 -2 -13 -19 -20 -20 -18 -16 7 2 15 9 16 6 7 -16 -14 3 21 28 24 9 21 12 20 9 5 12 19 22 27 29 35 36 31 29 30 24 20
33 23 14 -7 -20 -20 -20 -20 -20 -20 -20 -20 -20 -20 10 -18 12 7 2 -20 3 6 21 21 32 14 7 0 -6 12 -6 25 21 22 22 21 21 17 34 29 37 30 39
16 3 -8 -20 -20 -20 -20 -20 -20 -20 -20 -20 -20 -20 -20 -9 -20 -20 -20 -20 -20 -20 -20 -14 -4 24 16 13 14 5 17 25 22 28 20 29 32 19 21 24 31 35 38
9 3 -1 -18 -20 -20 -20 -20 -20 -20 -20 -19 -20 -20 -20 -19 -20 -16 -20 -10 3 -20 -20 -13 -0 -3 -20 -19 -16 -11 11 4 9 19 30 16 18 24 22 18 17 5 14
-5 -9 -1 6 8 -0 8 10 7 -20 -12 -20 -20 -20 -20 -7 -20 -20 -20 -20 -20 -15 -3 -6 -20 -20 -20 -20 -20 -4 -20 -19 -8 -4 5 11 12 9 12 5 -2 -2 4
9 9 -6 -8 -8 -20 -20 -20 -17 -4 -4 -7 -7 -1 -2 -2 -19 -19 -20 -20 -20 -20 -20 -20 -20 -20 -20 -20 -20 -19 -19 -20 -20 -20 -20 -12 -11 -4 2 1 -1 -17 -20
-20 -15 9 6 -20 -20 -6 -9 1 7 3 -1 3 1 -2 1 5 -11 -12 -20 -20 -20 -20 -20 -20 -20 -20 -20 -20 -20 -20 -20 -15 -17 -20 -20 -20 -20 -20 -20 -20 -20 -20
-20 -20 -20 -20 -20 -20 -20 -20 -20 -13 -3 -5 -5 -7 5 1 -15 -13 -20 -20 -20 -20 -20 -20 -20 -20 -20 -20 -20 -20 -20 -18 -4 -15 -20 -20 -20 -20 -20 -20 -20 -20 -20
-20 -20 -20 -20 -20 -20 -20 -20 -20 -12 -9 -7 -1 1 0 -2 -4 -20 -20 -20 -20 -20 -20 -20 -3 -3 -2 -20 -20 -20 -20 -20 -20 -20 -20 -20 -20 -20 -20 -20 -20 -20 -20
-20 -20 -20 -20 -20 -20 -20 -20 -20 -20 -20 -20 -6 -3 -1 -3 -20 -20 -20 -20 -20 -20 -20 -20 -20 -20 -20 -20 -20 -20 -20 -20 -20 -20 -20 -20 -20 -20 -20 -20 -20 -20 -20
-20 -20 -20 -20 -20 -20 -20 -20 -20 -20 -20 -20 -20 -20 -20 -20 -20 -20 -20 -20 -20 -20 -20 -20 -13 -20 -20 -20 -20 -20 -20 -20 -20 -20 -20 -20 -20 -20 -20 -20 -20 -20 -20
-20 -20 -20 -20 -20 -20 -20 -20 -20 -20 -20 -20 -20 -20 -20 -20 -20 -20 -20 -20 -20 -20 -20 -20 -20 -20 -20 -20 -20 -20 -20 -20 -20 -20 -20 -20 -20 -20 -20 -20 -20 -20 -20
-20 -20 -20 -20 -20 -20 -20 -20 -20 -20 -20 -20 -20 -20 -20 -20 -20 -20 -20 -20 -20 -20 -20 -20 -20 -20 -20 -20 -20 -20 -20 -20 -20 -20 -20 -20 -20 -20 -20 -20 -20 -20 -20
-20 -20 -20 -20 -20 -20 -20 -20 -20 -20 -20 -20 -20 -20 -20 -20 -20 -20 -20 -20 -20 -20 -20 -20 -20 -20 -20 -20 -20 -20 -20 -20 -20 -20 -20 -20 -20 -20 -20 -20 -20 -20 -20
-20 -20 -20 -20 -20 -20 -20 -20 -20 -20 -20 -20 -20 -20 -20 -20 -20 -20 -20 -20 -20 -20 -20 -20 -20 -20 -20 -20 -20 -20 -20 -20 -20 -20 -20 -20 -20 -20 -20 -20 -20 -20 -20
-20 -20 -20 -20 -20 -20 -20 -20 -20 -20 -20 -20 -20 -20 -20 -20 -20 -20 -20 -20 -20 -20 -20 -20 -20 -20 -20 -20 -20 -20 -20 -20 -20 -20 -20 -20 -20 -20 -20 -20 -20 -20 -20
-20 -20 -20 -20 -20 -20 -20 -20 -20 -20 -20 -20 -20 -20 -20 -20 -20 -20 -20 -20 -20 -20 -20 -20 -20 -20 -20 -20 -20 -20 -20 -20 -20 -20 -20 -20 -20 -20 -20 -20 -20 -20 -20
-20 -20 -20 -20 -20 -20 -20 -20 -20 -20 -20 -20 -20 -20 -20 -20 -20 -20 -20 -20 -20 -20 -20 -20 -20 -20 -20 -14 -20 -20 -20 -20 -20 -20 -20 -20 -20 -20 -20 -20 -20 -20 -20

GFSGL_prec_radar_096.txt.gz
Reflectivity
-20 -16 -16 -20 -20 -9 3 3 -20 -20 -20 2 -6 -18 8 6 18 15 -11 -2 10 5 -2 -17 2 -20 -17 -20 -20 -17 -20 -18 -2 13 -19 -5 -15 -5 -20 -20 -20 -20 -20
-19 10 -9 -20 -5 0 -6 8 -6 -20 -20 -2 3 -20 -10 1 -0 -5 -20 -20 -0 -20 -20 -7 -5 5 -20 -19 -4 -10 -20 -15 14 7 17 -0 7 -20 -20 -20 -19 -20 -20
-6 8 19 -10 7 1 10 13 8 12 3 0 7 2 -0 -6 3 -6 -20 -20 -20 -20 -20 -20 -18 -18 -7 -20 -20 -20 -10 -19 -9 -4 -18 -20 -20 -20 6 -3 -5 -20 -20
6 20 22 -19 2 2 9 11 -19 -20 6 13 9 16 15 10 10 20 18 20 14 -20 -20 -8 10 -2 -7 -7 -2 13 16 22 23 22 -20 -20 14 -20 17 -1 -5 -20 -20
1 4 19 2 10 0 14 12 8 1 -6 1 -20 -17 6 15 15 15 13 6 -11 -5 -12 -7 -16 6 16 10 13 -4 19 23 23 23 17 10 3 1 -1 -16 13 -16 -5
21 8 24 20 15 -16 -20 -7 10 -20 -20 13 15 14 4 17 4 7 4 8 -20 -20 -8 -13 -14 -20 -20 1 13 10 3 6 10 6 6 -2 -20 -20 -20 5 15 -19 -20
28 25 17 11 7 7 16 18 13 12 9 8 12 17 21 12 21 5 -13 -20 -14 0 2 -1 -12 -18 13 7 13 14 12 11 13 0 5 -7 0 9 24 15 9 13 3
34 30 24 11 9 28 31 21 21 12 17 15 5 16 15 18 17 12 15 6 10 17 25 22 16 15 19 18 -4 8 -2 20 17 28 33 37 34 25 32 28 22 21 31
27 25 22 10 27 30 37 14 8 22 20 13 0 8 5 7 17 8 4 -20 -4 0 -2 1 8 4 22 11 -9 -14 -7 12 30 19 13 18 17 9 10 10 16 27 28
14 -6 24 16 34 37 32 36 32 26 26 5 -17 -20 10 -11 13 7 -6 -20 -20 -20 -11 -2 16 7 15 8 4 -20 6 24 26 21 19 26 25 22 25 8 11 31 28
19 20 18 16 20 22 25 17 8 -5 -20 -20 -20 -20 -20 -20 -20 -20 -20 -20 -20 -20 -20 -19 -17 -5 -20 -20 -17 -20 -20 -6 12 17 15 11 18 18 16 3 11 8 21
32 26 16 8 24 28 21 9 4 -20 -20 -20 -20 -17 -5 -12 -20 -20 -20 -20 -20 -20 -8 -2 -1 -19 -20 -20 -20 -20 -14 -1 -20 -20 -20 -20 -18 -19 -4 -8 -1 0 -0
12 16 23 12 18 27 21 17 17 1 -20 -13 -12 -5 -2 0 -13 -20 -6 -20 -20 0 -0 -4 -20 -20 -20 -20 -20 -20 -20 -20 -20 -20 -3 -2 1 4 6 1 -7 -20 -20
1 8 -9 11 9 14 13 12 -0 -10 -2 -0 -1 0 -1 -4 1 -2 -4 -1 5 -4 -6 -3 -17 -5 -17 -13 2 6 6 3 5 1 1 4 -1 -3 -3 -15 -7 -5 -20
-8 2 2 -14 -4 3 4 1 -0 5 -1 2 3 4 3 2 2 -11 -10 -12 -3 -14 -10 5 3 1 -1 -5 -5 -1 -1 -9 -6 -0 -14 -3 -5 -4 -20 -20 -20 -20 -20
-20 -20 -6 -4 -8 -19 -19 -6 -10 -13 -3 -20 -19 -3 1 -10 -20 -20 -20 -20 -20 -20 -20 -4 -1 -1 -2 -4 -3 -4 -16 -19 -16 -16 -20 -20 -20 -20 -20 -20 -20 -20 -20
0 -2 -20 -19 -20 -19 -1 -3 -4 -3 -7 -5 -3 -3 -3 -7 -20 -20 -20 -20 -20 -20 -4 -1 1 -0 -3 -5 -20 -20 -20 -20 -20 -20 -20 -20 -20 -20 -20 -20 -20 -20 -20
-2 -16 -0 1 0 -0 0 -1 -0 0 -0 0 -6 -6 -3 -6 -20 -20 -20 -20 -13 -16 -4 -1 -1 -6 -20 -20 -20 -20 -20 -20 -20 -20 -20 -20 -20 -20 -20 -20 -20 -20 -20
-11 -2 -1 -1 1 0 1 2 2 1 2 2 2 -16 -20 -20 -20 -20 -20 -20 -20 -20 -20 -20 -20 -20 -20 -20 -16 -20 -20 -20 -20 -20 -20 -20 -20 -20 -20 -20 -20 -20 -20
-5 -20 -6 0 1 0 -1 -3 -6 -16 -16 -4 -20 -5 -19 -20 -20 -20 -20 -20 -20 -20 -20 -20 -20 -20 -20 -20 -20 -20 -20 -20 -20 -20 -20 -19 -7 -20 -20 -20 -20 -20 -20
0 -8 -20 -2 -4 -20 -20 -20 -20 -20 -20 -20 -20 -20 -20 -20 -20 -20 -20 -20 -20 -20 -6 -20 -20 -20 -20 -20 -20 -20 -20 -9 -20 -20 -20 -20 -19 -20 -20 -20 -20 -20 -20
1 -2 -20 -20 -20 -14 -20 -20 -20 -20 -20 -20 -20 -20 -20 -20 -20 -20 -20 -15 -3 -20 -20 -4 -18 -20 -20 -19 -20 -5 -20 -20 -20 -16 -20 -20 -17 -15 -16 -20 -17 -4 -20
-2 -2 -20 -20 -20 -20 -20 -20 -20 -20 -20 -20 -20 -20 -20 -11 -20 -15 -11 -3 -16 -5 -11 -5 -5 -20 -12 -3 -2 -19 -20 -20 -20 -20 -18 -4 -20 -4 -0 -0 -9 -2 -20
-17 -7 -20 -18 -20 -20 -1 -2 -20 -20 -20 -17 -4 -7 -6 -5 -3 -14 -4 -3 -2 -1 -1 -2 -20 -20 -20 -3 -0 -15 -20 -20 -19 -18 -20 -12 -2 -5 -0 -2 -2 -20 -6
-1 -3 -3 -1 -2 0 -2 -4 -3 -2 -3 -0 -1 -1 -4 -2 -5 -1 -1 -3 -5 -1 -3 -4 -6 -5 -20 -20 -20 -20 -20 -20 -20 -20 -3 -2 -3 -20 -8 -4 -10 -0 -3
-20 -20 -10 -13 -3 -2 -1 -2 -1 -1 -1 0 0 0 -1 -4 -4 -2 -4 -12 -20 -20 -20 -4 -6 -20 -20 -3 -10 -11 -20 -20 -20 -20 -20 0 -1 1 0 1 -5 0 1

GFSGL_prec_radar_099.txt.gz
Reflectivity
13 11 -14 -20 -20 -20 -19 -0 -8 -13 8 -7 -18 -20 -7 9 4 -6 26 14 -0 2 1 -7 -20 -11 14 -20 -15 -20 -20 -10 -20 -20 -20 -15 -10 17 11 -2 -15 -17 -20
11 10 11 -19 -20 -20 -12 -1 -16 5 14 7 -19 -20 -20 7 -5 1 17 14 7 15 5 -1 -7 -20 -20 -9 -6 3 -20 -20 -20 -20 -20 -20 -20 -20 -20 -20 -20 -20 -20
8 15 9 -15 11 -5 4 1 -19 4 1 14 12 1 -19 -20 -8 -6 -11 10 1 -20 -20 11 -20 -20 -14 -20 -20 -20 -20 -20 -20 -20 -20 -20 -20 -20 -20 -20 -20 -20 -20
21 10 3 2 16 -7 5 9 -2 -4 -2 8 15 8 1 -8 -20 -20 -12 -20 -20 -20 -20 -20 -20 -20 -20 -17 -20 -20 -18 -17 -20 -20 -20 -20 -7 -20 16 4 0 -3 -20
24 23 4 9 16 12 -20 13 -14 0 13 16 9 18 20 13 -12 -20 -20 -20 -20 -20 -20 -2 -20 4 12 6 -3 -0 -19 -11 3 2 7 12 20 20 14 18 21 5 17
23 19 21 22 22 -7 -14 -0 -16 1 -20 -15 -18 -3 2 -17 13 -3 13 13 12 5 -1 6 1 14 9 14 10 7 4 -10 0 19 18 18 -10 18 26 23 21 24 19
25 19 19 18 21 12 4 20 10 2 -0 -2 2 -7 -1 -20 5 5 8 -14 15 21 14 -10 -17 -10 7 -13 1 -8 -0 9 23 15 5 -7 14 24 20 28 34 29 36
19 22 24 24 22 20 10 8 14 9 -1 3 4 15 14 11 11 3 -4 -4 -1 3 1 -3 2 7 13 15 19 21 28 21 16 13 34 37 30 27 23 38 14 4 30
36 38 33 32 29 32 26 26 18 21 24 20 22 21 17 21 19 -3 10 6 18 27 28 29 21 15 28 16 22 18 25 24 33 28 20 16 14 7 -20 -7 -4 -8 17
32 37 36 35 44 44 41 39 29 33 40 34 35 34 32 13 25 15 26 -11 4 10 16 10 21 10 18 10 -20 -20 -20 -8 -1 3 7 17 21 16 19 10 -12 6 6
37 35 33 40 37 29 33 25 36 33 34 30 20 15 27 26 27 12 -20 -20 -20 -20 -20 -20 -10 -20 -8 -7 -20 -20 -20 -18 -12 -19 -20 -20 -20 -20 -20 -20 -20 -20 -20
32 33 26 18 31 29 22 22 14 22 31 28 19 25 24 17 3 3 -11 -20 -20 -14 -1 0 0 -20 -20 -20 -20 -18 1 -2 -20 -20 -20 -11 -4 0 -5 -8 -7 -3 -4
23 17 25 20 22 12 15 -3 16 25 21 25 21 6 3 5 3 -11 -20 -20 -20 -2 -3 -8 -20 -20 -20 -20 -20 -20 -20 -5 -2 -0 3 4 6 -16 -14 0 -20 -20 -20
16 14 13 18 21 18 12 15 15 15 14 8 12 4 5 6 10 1 3 5 3 6 -15 -4 -19 -9 -20 -15 -6 4 3 -7 6 6 6 4 3 -4 -9 -20 -20 -20 -20
-16 5 5 6 13 17 14 14 10 7 11 13 18 14 14 16 9 8 2 -4 -1 -10 -15 -3 0 -1 -4 2 -4 -1 0 0 -8 -18 -20 -20 -16 -20 -20 -20 -20 -20 -20
-20 -17 -5 -14 -14 -11 11 1 1 11 -1 6 8 7 2 -1 -9 -7 -12 -20 -20 1 -16 0 3 2 -4 -15 -18 -20 -20 -20 -20 -20 -20 -20 -20 -20 -20 -20 -20 -20 -20
-19 -14 -9 -11 -9 -6 -0 -6 -4 -11 -20 -2 -1 -2 -7 -19 -20 -20 -20 -20 -20 -20 1 -0 1 -19 -20 -20 -20 -20 -20 -20 -20 -20 -20 -20 -20 -20 -20 -20 -20 -20 -20
-15 -7 -12 3 2 -1 2 2 -1 -5 1 1 -20 -20 -20 -20 -20 -20 -20 -20 -20 -20 -20 -20 -20 -20 -20 -20 -20 -20 -20 -20 -20 -20 -20 -19 -20 -20 -20 -20 -20 -20 -20
-4 -2 2 -11 -20 -6 2 2 2 2 3 2 2 -5 -14 -20 -20 -20 -20 -20 -20 -20 -20 -20 -20 -20 -20 -18 1 -1 -4 -6 -12 -2 -2 -9 -3 -20 -20 -20 -20 -20 -20
-6 -20 -20 5 5 1 -8 -5 -6 -5 -1 -1 -5 -5 -9 -11 -5 -20 -20 -20 -20 -20 -20 -20 -15 -8 -5 -4 -0 -4 -2 -16 -20 -20 -1 -3 0 -9 -20 -20 -20 -20 -20
4 1 -8 -2 -5 -3 -2 -4 -4 -3 -2 -20 -20 -20 -20 -20 -20 -20 -20 -4 -4 -3 -1 -19 -4 -4 -20 -20 -11 -4 -19 -1 -20 -7 -7 -15 -4 -19 -20 -20 -20 -20 -20
-4 -4 -3 -4 -4 -5 -7 -10 -5 -20 -20 -20 -20 -20 -20 -4 -15 -20 -3 0 1 -2 -3 0 -10 -19 -20 -2 -10 -1 -8 -15 -11 -20 -5 -16 -20 -3 -6 -2 -6 -7 -9
-19 -2 -17 -13 -20 -20 -2 -20 -1 -3 -3 -3 -11 -3 -2 -0 -1 -0 1 2 -1 1 -10 -2 -4 -7 -2 0 -1 -4 -19 -4 -2 -5 -20 -11 -6 -19 -12 -0 -3 -5 -7
-3 -1 -20 -17 -8 -1 2 3 -20 -20 -18 -0 2 0 0 1 2 -0 -0 -0 1 1 -1 1 -5 -20 -20 -11 -4 -17 -20 -20 -20 -9 -20 -6 -4 -7 -13 -8 -4 -3 -2
0 -1 -1 -0 1 2 2 1 2 2 1 2 3 2 -0 1 -2 3 1 -2 -19 -2 -4 -3 -11 -20 -20 -20 -20 -20 -20 -20 -20 -20 -20 -19 -1 -20 -4 -20 -1 -4 -2
-3 -4 0 -0 0 0 1 2 1 1 0 0 2 2 1 -2 -2 0 -3 -12 -20 -20 -20 -10 -7 -20 -20 -17 -20 -20 -20 -20 -20 -20 -20 -18 -1 -1 -3 -13 -2 0 -3

GFSGL_prec_radar_102.txt.gz
Reflectivity
-20 -20 -20 20 12 -20 -20 -20 -20 -20 -20 -20 -20 -20 -20 -20 -18 18 19 7 14 22 21 23 18 -9 -20 -20 -18 -9 21 15 9 -10 -20 -20 -20 -20 -20 -20 -20 13 -5
-20 -11 -8 19 18 -20 -3 -20 -15 0 -20 -20 -19 -20 -20 -20 -15 10 5 25 27 29 27 25 -6 -6 -16 -20 -20 -20 -13 -20 -20 -20 -20 -20 -20 -20 -20 -20 -20 -20 -20
-9 13 13 19 15 2 -1 -12 -2 0 -18 -20 -12 -17 21 -8 -14 -7 2 -14 22 12 27 21 28 -16 14 0 -20 -18 -20 -20 -20 -20 -20 -20 -20 -20 -20 -20 -20 -20 -20
26 10 16 21 11 9 9 5 11 11 10 -20 -12 -12 17 1 -11 23 2 19 4 8 17 -20 17 -1 16 -16 -20 -17 -20 -20 -20 -20 -20 -20 -20 -20 -20 -20 -20 -20 -20
23 20 19 21 26 19 16 13 12 14 7 4 -6 -20 -10 -7 7 3 9 -17 -20 -3 6 9 -20 -12 9 -20 -20 -20 -20 -18 -20 -7 -19 -20 -20 0 10 5 12 -2 -1
25 22 26 25 24 20 21 16 -18 -20 -6 13 18 -6 3 -1 10 7 8 -15 -12 2 18 -20 -20 2 -8 -4 -20 -20 -8 -9 8 12 6 -10 26 15 -20 -5 5 -3 4
21 23 22 17 28 5 18 5 27 12 14 18 8 -15 1 -3 10 13 -8 15 18 10 18 22 25 25 21 -18 12 10 10 5 -11 -6 -9 -1 -11 -7 2 30 21 23 28
30 28 27 27 28 23 15 21 22 1 8 17 17 15 16 12 15 16 16 5 -2 11 10 20 7 3 -7 -15 -20 -16 2 13 21 22 19 26 30 27 23 -8 5 7 25
25 27 32 30 28 24 19 16 25 21 9 -2 7 4 -5 -19 2 3 0 -19 -20 -20 -20 -5 -16 -7 26 14 13 25 26 20 33 35 31 23 23 19 15 -8 12 8 5
28 26 28 31 31 28 30 33 32 32 43 36 22 7 28 6 14 20 18 4 28 25 19 25 32 35 37 39 37 39 40 22 26 20 14 13 15 5 10 1 -20 -20 -20
33 37 35 27 27 33 37 36 35 36 39 34 31 32 30 37 27 30 29 39 27 39 28 40 24 20 13 9 6 -20 -14 -12 -1 -16 -20 -20 -20 -20 -20 -20 -20 -20 -20
26 25 19 25 28 31 35 39 36 35 39 33 35 33 30 30 33 34 26 30 32 26 24 9 -20 -20 -20 -20 -20 1 2 5 -20 -20 -20 -20 -20 -20 -20 -20 -20 -20 -20
6 13 17 18 16 22 32 27 28 27 23 25 28 26 20 16 24 24 15 13 20 11 1 -10 -17 -20 -20 -20 -20 -20 -20 -20 -20 -20 -20 -20 -11 -20 -20 -7 -20 -20 -20
-20 -19 -1 10 15 15 17 19 23 26 25 23 20 15 8 7 13 11 6 11 12 10 0 -20 -20 -20 -20 -19 -17 -18 -19 -20 -20 -15 -20 -1 -10 -20 -20 -20 -20 -20 -20
-20 -20 -20 -8 -2 7 11 12 14 16 18 21 18 17 21 23 21 21 18 17 14 14 17 16 14 16 15 9 5 -20 -20 -20 -20 -20 -20 -20 -20 -20 -20 -20 -20 -20 -20
-20 -20 -20 -14 -14 -5 1 3 6 10 11 10 5 4 3 9 12 8 5 4 12 15 14 11 2 -12 -18 -16 -20 -20 -20 -20 -20 -20 -20 -20 -20 -20 -20 -20 -20 -20 -20
-19 -6 -20 -20 -20 -19 3 -1 -16 -20 -10 -3 -3 -4 -3 -3 -17 -20 -20 -20 -16 -9 -2 -7 -19 -20 -20 -20 -20 -20 -20 -20 -20 -20 -20 -20 -20 -20 -20 -20 -20 -20 -20
-7 -20 -20 -7 -9 -17 -20 -20 -17 -5 -9 -11 -20 -20 -20 -20 -20 -19 -19 -20 -20 -20 -20 -20 -20 -20 -20 -20 -20 -20 -20 -20 -20 -20 -20 -20 -20 -20 -20 -20 -20 -20 -20
-20 -1 5 -1 -20 3 -0 -4 0 -12 -20 -13 -20 -13 -7 -20 -20 -20 -20 -20 -20 -20 -20 -20 -20 -20 -20 -20 -20 -14 -20 -20 -20 -20 -20 -20 -20 -20 -20 -20 -20 -20 -20
-1 -20 -6 6 3 6 -2 -6 1 -7 -20 -20 -20 -20 -20 -20 -20 -20 -20 -20 -20 -20 -20 -20 -20 -20 -20 -15 -20 -20 -20 -20 -20 -20 -20 -20 -20 -20 -20 -20 -20 -20 -20
5 0 1 3 -17 0 -20 -5 -2 -20 -20 -20 -20 -20 -20 -20 -20 -20 -20 -20 -20 -20 -20 -20 -20 -20 -20 -20 -20 -20 -20 -20 -20 -20 -20 -20 -20 -20 -20 -20 -20 -20 -20
-6 -5 -20 -20 -20 -20 -7 -19 -20 -20 -20 -20 -18 -20 -20 -20 -20 -20 -20 -20 -20 -20 -20 -20 -20 -20 -20 -20 -20 -20 -20 -20 -20 -20 -20 -20 -20 -20 -20 -20 -20 -20 -20
-20 -20 -20 -20 -9 -7 -20 -20 -18 -4 -13 -20 -20 -20 -20 -20 -20 -15 -20 -8 -20 -18 -20 -20 -20 -20 -20 -20 -20 -20 -20 -20 -20 -20 -20 -20 -20 -20 -20 -20 -20 -20 -20
-20 -13 -20 -20 -20 -19 -9 -15 -20 -20 -18 -1 -1 -20 -20 -20 1 -20 -20 -20 -19 -20 -20 -20 -20 -20 -20 -20 -20 -20 -20 -20 -20 -20 -20 -20 -20 -20 -20 -20 -20 -20 -20
-6 -1 -7 -4 -0 5 5 -18 -18 -12 -18 -20 -6 -20 -20 -20 -14 -20 -20 -20 -20 -20 -20 -20 -20 -20 -20 -20 -20 -20 -20 -20 -20 -20 -20 -20 -20 -20 -20 -20 -20 -20 -20
-20 -20 -16 -12 -9 -20 -20 -9 -14 -20 -12 -20 -0 -12 -13 -12 -20 -20 -20 -20 -20 -20 -20 -20 -20 -20 -20 -20 -20 -20 -20 -20 -20 -20 -20 -20 -20 -20 -20 -20 -20 -20 -20

GFSGL_prec_radar_105.txt.gz
Reflectivity
-20 26 22 22 20 28 -15 -20 -20 -20 -20 -16 -20 -20 -20 -20 -20 -17 13 16 29 32 27 27 29 31 30 26 8 1 2 16 -9 4 18 -12 -20 -20 -20 11 -20 -20 -14
-9 20 23 27 22 23 -20 -11 -19 -20 -20 -20 -20 -20 -20 -20 -20 -9 12 5 11 18 26 25 28 19 10 22 14 6 7 -5 4 -1 -19 3 -1 -19 -20 3 -20 -20 -20
23 -14 -5 -20 21 13 -15 15 -20 -20 -20 -20 9 -14 -20 -20 -20 -20 -20 9 -19 -12 -1 13 10 14 10 -8 -13 -19 -20 -20 -9 12 -11 -8 -9 -20 -20 -20 -20 -20 -20
32 13 5 21 3 28 14 20 -20 9 9 -0 -14 -9 -19 -20 -20 -1 5 6 8 3 21 14 20 18 25 26 18 25 -20 -7 -17 -20 -20 -20 -20 -20 -20 -20 -20 -20 -20
26 17 10 15 30 30 18 8 1 12 19 14 -8 -5 -20 -20 -20 -19 -20 18 0 9 10 15 16 24 23 17 11 17 -7 -15 -18 -20 -20 -20 -20 -20 -20 -20 -20 -11 21
29 19 25 23 28 23 25 -4 7 20 19 19 5 -1 -20 -14 17 2 7 15 -4 29 33 16 24 23 17 -2 -10 3 -20 -20 -20 -20 -20 -20 -20 -20 -20 -4 -8 16 -20
12 18 28 28 28 25 16 21 -3 20 2 20 17 18 14 -12 12 10 17 -2 22 10 22 10 29 20 4 -20 -5 -11 -1 11 -10 -18 -19 -6 -12 -8 7 -12 -20 7 19
26 16 28 33 30 23 19 31 21 20 11 23 14 16 25 24 17 15 20 6 12 1 -6 21 3 16 19 15 13 13 25 10 8 10 -3 -17 6 -5 -7 3 22 11 20
33 38 32 32 35 28 16 34 30 25 33 23 22 24 18 17 23 19 17 7 8 8 18 23 29 25 22 14 3 5 10 12 22 15 17 29 33 26 22 28 35 7 13
22 22 36 33 35 33 37 36 30 14 10 7 19 3 32 30 31 19 27 28 26 10 16 10 14 5 12 14 4 -9 -3 4 19 16 21 24 33 36 13 7 -18 -20 -20
17 24 27 28 34 34 36 36 29 31 26 22 21 15 20 28 35 34 28 6 9 4 6 13 23 34 32 31 35 32 33 30 36 36 14 -13 -9 -20 -20 -20 -20 -20 -20
-4 11 17 22 21 19 23 29 29 24 17 19 27 19 28 36 33 36 35 28 28 24 17 31 28 29 28 37 36 30 22 10 -14 -1 -17 -20 -18 -20 -20 -20 -20 -20 -20
-20 -5 9 11 17 19 20 20 29 24 23 22 22 23 23 26 26 24 25 24 23 26 21 14 28 25 14 15 19 23 -9 -19 -20 -20 -20 -20 -20 -20 -20 -20 -20 -20 -20
-20 -20 -6 -4 2 -2 7 13 15 14 22 25 22 25 27 28 27 26 25 22 21 20 19 7 9 12 15 15 14 10 8 4 2 -14 -16 -4 9 11 1 -20 -20 -20 -20
-19 -11 -20 -20 -6 -12 -20 -16 -9 3 5 8 16 20 23 24 24 23 24 26 24 26 22 23 18 7 -11 -10 -8 -7 -3 5 12 14 14 3 -19 -20 -20 -20 -20 -20 -20
-20 -20 -19 -19 -20 -20 -20 -20 -2 -13 -5 -0 4 3 6 10 16 13 15 15 15 13 10 10 17 18 15 14 12 11 10 10 10 7 2 -3 -15 -20 -20 -20 -20 -20 -20
-20 -20 -20 -20 -20 -17 -20 -20 -20 -12 -20 -20 -20 -19 -8 4 3 7 8 6 9 10 -6 4 -4 1 6 5 4 6 2 -16 -8 -5 -15 -20 -20 -20 -20 -20 -20 -20 -20
-12 -20 -20 -20 -20 -20 -20 -20 -11 -20 -20 -20 -16 -17 -20 -20 -20 -20 -12 2 2 4 -9 -12 -8 -20 -16 -17 -20 -20 -20 -20 -20 -20 -20 -20 -20 -20 -20 -20 -20 -20 -20
-20 -20 -13 -20 -20 -20 -20 -20 -20 -20 -20 -20 -20 -20 -20 -20 -20 -20 -20 -20 -20 -20 -20 -20 -20 -20 -20 -20 -20 -20 -20 -20 -20 -20 -20 -20 -20 -20 -20 -20 -20 -20 -20
-20 -20 -20 -20 -20 -20 -20 -20 -20 -20 -20 -20 -20 -20 -20 -20 -20 -20 -20 -20 -20 -20 -20 -20 -20 -20 -20 -20 -20 -20 -20 -20 -20 -20 -20 -20 -20 -20 -20 -20 -20 -20 -20
-20 -20 -20 -20 -20 -20 -20 -20 -20 -20 -20 -20 -20 -20 -20 -20 -20 -20 -20 -20 -20 -20 -20 -20 -20 -20 -20 -20 -20 -20 -20 -20 -20 -20 -20 -20 -20 -20 -20 -20 -20 -20 -20
-20 -20 -20 -20 -20 -20 -20 -20 -20 -20 -20 -20 -20 -20 -20 -20 -20 -20 -20 -20 -20 -20 -20 -20 -20 -20 -20 -20 -20 -20 -20 -20 -20 -20 -20 -20 -20 -20 -20 -20 -20 -20 -20
-20 -20 -20 -20 -20 -20 -20 -20 -20 -20 -20 -20 -20 -20 -20 -20 -20 -20 -20 -20 -20 -20 -20 -20 -20 -20 -20 -20 -20 -20 -20 -20 -20 -20 -20 -20 -20 -20 -20 -20 -20 -20 -20
-20 -20 -20 -20 -20 -20 -20 -20 -20 -20 -20 -20 -20 -20 -20 -20 -20 -20 -20 -20 -20 -20 -20 -20 -20 -20 -20 -20 -20 -20 -20 -20 -20 -20 -20 -20 -20 -20 -20 -20 -20 -20 -20
-20 -20 -20 -20 -20 -20 -20 -20 -20 -20 -20 -20 -20 -20 -20 -20 -20 -20 -20 -20 -20 -20 -20 -20 -20 -20 -20 -20 -20 -20 -20 -20 -20 -20 -20 -20 -20 -20 -20 -20 -20 -20 -20
-20 -20 -20 -20 -20 -20 -20 -20 -20 -20 -20 -20 -20 -20 -20 -20 -20 -20 -20 -20 -20 -20 -20 -20 -20 -20 -20 -20 -20 -20 -20 -20 -20 -20 -20 -20 -20 -20 -20 -20 -20 -20 -20

GFSGL_prec_radar_108.txt.gz
Reflectivity
12 6 -15 3 21 23 6 24 -10 -19 -20 -20 -20 -20 7 -13 -12 10 7 -3 8 8 23 32 28 23 32 27 29 26 25 25 14 4 -3 4 17 16 22 -20 -7 11 -7
18 7 5 21 22 24 22 21 10 -5 -11 -20 -20 -17 0 11 -6 18 -1 6 -18 0 15 34 32 32 34 30 31 32 30 24 -5 26 22 14 9 14 26 -2 -7 -16 -8
-10 -1 15 -12 6 21 22 22 20 15 -12 -20 -20 -20 -20 -3 -14 -17 19 4 -19 -0 15 27 30 33 34 34 27 26 22 20 25 8 -10 -4 6 7 12 4 0 -20 -20
6 12 6 7 7 17 -2 20 -10 2 -20 -20 -20 -20 1 8 -18 -19 -10 16 -15 5 11 7 11 24 30 30 27 21 17 1 -3 -1 -10 6 14 -0 25 -2 -20 -20 -20
-15 -10 13 7 4 -1 31 17 27 -19 16 -20 -20 -20 3 12 5 4 16 -3 -7 -20 -13 -14 9 18 27 28 28 22 7 27 27 18 -3 -20 -19 8 -15 -20 -20 -20 -20
6 -5 21 34 4 19 5 22 14 18 12 -20 11 -20 6 18 23 9 21 -12 19 5 11 -4 18 9 16 25 32 20 24 7 31 18 6 -5 -20 -20 -20 -20 -20 -20 -17
13 -2 -7 26 27 20 25 42 30 43 23 -20 -12 -8 6 -2 12 9 20 7 12 -1 15 16 15 7 21 12 23 -1 21 10 -20 10 -20 -20 -20 -20 -20 -20 -18 1 15
-18 2 14 -7 12 24 26 35 43 26 21 -5 -2 -18 -1 1 13 -1 12 11 16 20 11 -10 8 2 16 1 -2 6 3 -15 -19 -20 -20 -20 -3 2 2 5 17 14 15
-20 -11 13 10 30 31 21 34 31 33 32 38 22 13 -15 -9 4 -4 15 -4 20 27 7 22 1 -3 25 7 11 3 -0 5 22 18 31 26 11 9 3 -5 -6 0 14
-20 -18 1 20 15 30 31 36 36 31 32 35 28 29 30 -12 9 9 22 16 3 12 26 24 31 13 18 19 3 4 29 22 19 18 13 5 4 9 9 2 7 25 19
-20 -20 -20 -6 19 27 31 25 30 24 35 35 37 25 30 30 21 23 25 9 14 18 19 16 25 31 29 23 30 25 23 23 17 17 7 7 13 19 22 31 32 10 4
-20 -20 -20 -10 4 17 22 25 25 26 34 32 27 33 26 28 26 22 31 32 31 28 27 35 36 33 18 21 12 4 9 15 7 14 24 27 22 15 24 8 -17 -18 -15
-20 -20 -20 -20 -20 -17 5 18 19 19 22 20 30 31 30 24 27 23 23 22 22 21 23 21 26 28 27 25 24 24 19 23 25 12 18 17 17 9 -12 -20 -20 -20 -19
-20 -20 -20 -20 -20 -20 -18 -8 -0 12 2 10 18 19 16 11 13 13 16 17 19 20 20 17 15 20 22 24 26 23 16 13 14 -13 5 6 6 -12 -8 -20 -20 -18 2
-20 -13 -20 -20 -20 -20 -20 -20 -20 -12 1 -19 -6 3 7 13 17 17 17 15 14 12 12 16 19 19 20 18 17 18 15 17 15 1 -3 5 9 8 0 -4 1 5 -2
-20 -20 -20 -20 -20 -20 -20 -20 -15 -10 -19 -20 -12 -5 -16 0 -4 1 10 10 8 4 10 15 16 16 16 15 18 19 18 18 14 11 12 8 8 7 11 7 -10 -19 -16
-20 -20 -20 -20 -20 -20 -20 -20 -20 -20 -19 -20 -20 -20 -16 -20 -20 -20 -20 -20 -20 -20 -20 -15 1 3 8 11 13 12 7 11 12 8 -2 -3 -11 -11 -14 -16 -20 -20 -20
-20 -20 -20 -20 -20 -20 -20 -20 -20 -20 -20 -20 -20 -20 -20 -20 -20 -20 -20 -20 -20 -20 -20 -20 -16 -3 3 3 -3 -4 -4 -4 -5 -8 -10 -11 -13 -16 -19 -20 -20 -20 -20
-20 -20 -20 -20 -20 -20 -20 -20 -20 -20 -20 -20 -20 -20 -20 -20 -20 -20 -20 -20 -20 -20 -20 -20 -20 -20 -20 -20 -20 -20 -18 -11 -5 -6 -19 -20 -20 -20 -20 -20 -20 -20 -20
-20 -20 -20 -20 -20 -20 -20 -20 -20 -20 -20 -20 -20 -20 -20 -20 -20 -20 -20 -20 -20 -20 -20 -20 -20 -20 -20 -20 -20 -20 -20 -20 -20 -20 -20 -20 -20 -20 -20 -20 -20 -20 -20
-20 -20 -20 -20 -20 -20 -20 -20 -20 -20 -20 -20 -20 -20 -20 -20 -20 -20 -20 -20 -20 -20 -20 -20 -20 -20 -20 -20 -20 -20 -20 -20 -20 -20 -20 -20 -20 -20 -20 -20 -20 -20 -20
-20 -20 -20 -20 -20 -20 -20 -20 -20 -20 -20 -20 -20 -20 -20 -20 -20 -20 -20 -20 -20 -20 -20 -20 -20 -20 -20 -20 -20 -20 -20 -20 -20 -20 -20 -20 -20 -20 -20 -20 -20 -20 -20
-20 -20 -20 -20 -20 -20 -20 -20 -20 -20 -20 -20 -20 -20 -20 -20 -20 -20 -20 -20 -20 -20 -20 -20 -20 -20 -20 -20 -20 -20 -20 -20 -20 -20 -20 -20 -20 -20 -20 -20 -20 -20 -20
-20 -20 -20 -20 -20 -20 -20 -20 -20 -20 -20 -20 -20 -20 -20 -20 -20 -20 -20 -20 -20 -20 -20 -20 -20 -20 -20 -20 -20 -20 -20 -20 -20 -20 -20 -20 -20 -20 -20 -20 -20 -20 -20
-20 -20 -20 -20 -20 -20 -20 -20 -20 -20 -20 -20 -20 -20 -20 -20 -20 -20 -20 -20 -20 -20 -20 -20 -20 -20 -20 -20 -20 -20 -20 -20 -20 -20 -20 -20 -20 -20 -20 -20 -20 -20 -20
-20 -20 -20 -20 -20 -20 -20 -20 -20 -20 -20 -20 -20 -20 -20 -20 -20 -20 -20 -20 -20 -20 -20 -20 -20 -20 -20 -20 -20 -20 -20 -20 -20 -20 -20 -20 -20 -20 -20 -20 -20 -20 -20

GFSGL_prec_radar_111.txt.gz
Reflectivity
-17 -1 -17 -9 -20 12 20 -13 -20 -13 -9 24 -6 -20 -20 -20 -5 14 4 -9 3 0 -5 30 28 26 19 22 23 29 26 28 28 28 15 15 18 18 13 1 6 -20 -20
-20 -16 -16 -20 -4 10 7 -16 18 2 26 22 9 -13 -20 -20 -20 8 -2 -0 -5 -20 2 18 27 26 28 22 24 28 29 30 31 24 30 16 17 17 20 24 11 11 -10
-20 -11 19 14 21 10 5 -19 21 21 22 22 9 0 -7 -20 -19 13 -12 -20 -20 6 11 16 13 23 28 31 28 28 32 33 34 29 12 18 23 20 22 21 24 25 16
-7 18 13 24 21 9 -11 19 21 24 23 23 18 20 -4 -10 -20 -3 -16 -20 -20 -20 -4 29 26 4 24 24 30 34 33 34 24 22 28 29 30 21 19 -1 12 -8 9
-16 7 -4 5 14 -5 -7 -13 -3 23 10 -20 7 24 -19 -19 -20 4 -18 -20 -20 -17 -20 22 27 26 23 22 31 35 30 28 26 27 21 13 15 6 -19 24 15 12 32
-20 -12 -5 -20 -20 1 9 -5 10 3 17 34 -7 19 -16 -20 13 10 -3 -2 -20 -14 -7 -19 -9 19 19 24 23 29 29 30 28 12 26 29 30 -16 19 -10 19 22 15
-20 -20 -16 -20 -12 -15 14 18 20 30 29 37 42 15 -13 -20 5 8 7 0 -5 0 15 11 22 26 18 8 32 19 27 35 33 14 25 30 27 19 22 10 -12 -7 -2
-20 -20 -16 -1 -13 -17 10 29 17 25 33 37 28 28 13 5 9 9 12 -3 17 19 14 9 21 2 8 21 0 21 30 31 28 9 16 -1 -12 14 7 -18 -14 -18 0
-20 -20 -20 -20 -19 -1 -8 16 23 13 38 46 41 32 27 11 15 16 12 8 12 19 -16 17 2 15 27 11 14 4 32 3 31 23 18 23 19 -15 -2 -16 7 -4 12
-20 -20 -20 -20 -20 -20 -18 11 19 5 23 27 34 30 40 35 24 35 31 24 -5 1 10 -16 17 26 21 15 22 -16 9 21 5 3 -8 18 15 8 20 24 24 9 2
-20 -20 -20 -20 -20 -18 -17 -18 -10 14 25 11 20 31 32 28 35 32 27 34 34 17 2 1 18 26 16 17 22 6 20 6 18 2 15 30 23 22 20 24 23 25 20
-20 -20 -20 -20 -20 -20 -20 -19 -7 -1 4 9 16 20 19 26 32 36 33 24 31 27 30 28 17 27 21 16 17 22 26 30 12 10 13 11 23 19 14 18 15 27 23
-20 -20 -20 -20 -20 -20 -20 -20 -20 -19 7 14 13 11 13 19 28 30 33 30 27 25 22 23 25 21 21 28 26 17 20 25 18 15 13 18 18 16 -4 -7 4 5 14
-20 -20 -20 -20 -20 -20 -20 -20 -20 -20 -19 -5 5 7 -2 4 14 20 23 22 26 26 26 22 16 20 15 19 20 23 26 26 22 18 10 9 6 -19 -6 -3 -5 1 4
-20 -9 -20 -20 -20 -20 -20 -19 -20 -15 -10 -20 -16 -7 -2 -9 2 6 6 14 20 19 17 12 13 14 9 12 16 19 21 21 20 18 13 14 10 11 16 15 16 16 15
-20 -20 -20 -20 -20 -20 -20 -20 -15 -15 -15 -7 -1 -20 -20 -19 -20 -16 -20 -19 -19 -11 -7 -13 -13 -12 -4 5 12 17 17 15 12 13 12 12 13 11 11 11 9 10 8
-20 -20 -20 -20 -20 -20 -20 -20 -20 -20 -20 -20 -4 -20 -20 -20 -10 -20 -20 -20 -20 -20 -20 -20 -20 -20 -15 -20 -20 -20 -20 -20 -19 -13 -1 -1 2 -1 -3 3 6 6 4
-20 -20 -20 -20 -20 -20 -20 -20 -20 -20 -20 -20 -20 -20 -18 -17 -20 -20 -20 -20 -20 -20 -20 -20 -20 -20 -20 -20 -20 -20 -20 -20 -19 -17 -17 -18 -20 -20 -20 -20 -20 -20 -20
-20 -20 -20 -20 -20 -20 -20 -20 -20 -20 -20 -20 -20 -20 -20 -20 -20 -20 -20 -20 -20 -20 -20 -20 -20 -20 -20 -20 -20 -20 -20 -20 -20 -20 -20 -20 -20 -20 -20 -20 -20 -20 -20
-20 -20 -20 -20 -20 -20 -20 -20 -20 -20 -20 -20 -20 -20 -20 -20 -20 -20 -20 -20 -20 -20 -20 -20 -20 -20 -20 -20 -20 -20 -20 -20 -20 -20 -20 -20 -20 -20 -20 -20 -20 -20 -20
-20 -20 -20 -20 -20 -20 -20 -20 -20 -20 -20 -20 -20 -20 -20 -20 -20 -20 -20 -20 -20 -20 -20 -20 -20 -20 -20 -20 -20 -20 -20 -20 -20 -20 -20 -20 -20 -20 -20 -20 -20 -20 -20
-20 -20 -20 -20 -20 -20 -20 -20 -20 -20 -20 -20 -20 -20 -20 -20 -20 -20 -20 -20 -20 -20 -20 -20 -20 -20 -20 -20 -20 -20 -20 -20 -20 -20 -20 -20 -20 -20 -20 -20 -20 -20 -20
-20 -20 -20 -20 -20 -20 -20 -20 -20 -20 -20 -20 -20 -20 -20 -20 -20 -20 -20 -20 -20 -20 -20 -20 -20 -20 -20 -20 -20 -20 -20 -20 -20 -20 -20 -20 -20 -20 -20 -20 -20 -20 -20
-20 -20 -20 -20 -20 -20 -20 -20 -20 -20 -20 -20 -20 -20 -20 -20 -20 -20 -20 -20 -20 -20 -20 -20 -20 -20 -20 -20 -20 -20 -20 -20 -20 -20 -20 -20 -20 -20 -20 -20 -20 -20 -20
-20 -20 -20 -20 -20 -20 -20 -20 -20 -20 -20 -20 -20 -20 -20 -20 -20 -20 -20 -20 -20 -20 -20 -20 -20 -20 -20 -20 -20 -20 -20 -20 -20 -20 -20 -20 -20 -20 -20 -20 -20 -20 -20
-20 -20 -20 -20 -20 -20 -20 -20 -20 -20 -20 -20 -20 -20 -20 -20 -20 -20 -20 -20 -20 -20 -20 -20 -20 -20 -20 -20 -20 -20 -20 -20 -20 -20 -20 -20 -20 -20 -20 -20 -20 -20 -20

GFSGL_prec_radar_114.txt.gz
Reflectivity
-20 -20 -20 -20 -19 -10 -20 2 -9 -20 -4 -20 25 -18 -17 -11 -18 -16 6 9 -2 2 -9 -9 1 -3 -12 11 6 27 17 21 21 21 25 25 29 7 -12 -20 -20 -20 -20
-20 -20 -10 -1 -20 -20 -20 -17 3 -20 -18 -20 24 21 -20 -20 18 12 10 -11 -6 -6 -20 10 -1 -18 -5 7 17 20 25 -5 21 29 22 25 26 24 4 -20 -20 -20 -20
-20 -18 -20 -19 8 -6 -20 -7 -1 20 11 7 11 -5 15 12 21 11 12 -7 -20 -13 1 3 10 9 13 26 28 22 -4 20 24 27 27 31 23 20 -19 -11 -17 1 14
-20 -19 -3 -20 14 5 -5 4 11 13 19 16 10 -20 21 22 9 11 13 -20 -18 -20 -6 -16 6 10 -17 16 15 27 19 26 25 32 23 33 24 17 20 17 26 21 26
-20 -20 -20 -0 6 -10 12 21 -11 9 19 2 7 23 -5 24 23 23 7 -20 2 -19 -20 -20 7 9 5 -17 19 29 6 23 29 29 33 32 21 16 20 25 26 24 14
-20 -20 -20 -20 -20 -14 13 6 -1 -15 -19 -6 5 14 20 15 33 37 30 15 7 -11 16 -7 -20 14 18 17 16 24 23 22 22 24 30 28 24 25 20 27 33 25 21
-20 -20 -20 -20 -20 -20 -5 -20 -20 -20 -16 -3 22 14 -7 34 30 25 37 20 8 2 10 -5 4 14 17 3 26 33 28 21 32 31 31 26 31 26 33 29 18 21 16
-20 -20 -20 -20 -20 -17 -18 -18 -10 -17 9 7 29 29 28 40 40 32 36 10 2 7 -10 -5 -15 14 14 8 3 1 24 24 22 31 28 23 20 24 24 25 27 23 29
-20 -20 -20 -20 -20 -20 -20 -14 -13 -18 -0 10 25 27 35 35 22 31 33 17 32 10 -6 -20 13 4 22 6 -0 8 22 32 36 34 38 37 33 35 32 18 15 21 -2
-20 -20 -20 -20 -20 -20 -20 -20 -20 -20 -6 9 1 15 33 26 41 45 33 38 19 19 7 1 32 14 30 16 -5 -4 16 24 9 23 15 27 32 26 24 23 26 3 -16
-20 -20 -20 -20 -20 -20 -20 -20 -20 -20 -20 -20 -20 -17 10 25 28 37 36 32 19 28 15 20 22 28 24 33 19 8 30 8 13 -2 -5 24 25 26 4 7 10 22 19
-20 -20 -20 -20 -20 -20 -20 -20 -20 -20 -20 -20 -20 -20 -16 -3 -0 9 22 26 27 29 23 20 26 30 39 24 21 26 22 23 9 3 -11 12 17 22 27 23 36 29 31
-20 -20 -20 -20 -20 -20 -20 -20 -20 -20 -20 -20 -20 -20 -20 -20 -12 -11 -2 12 20 28 26 27 23 24 29 32 25 25 24 16 21 21 15 19 18 15 15 21 20 21 20
-20 -20 -20 -20 -20 -20 -20 -20 -20 -20 -20 -20 -20 -20 -20 -20 -20 -20 -20 -14 6 12 17 25 28 27 27 26 26 24 22 20 19 20 22 20 17 18 23 23 23 22 16
-20 -20 -20 -20 -20 -20 -20 -0 -20 -10 -0 -18 -18 -13 -20 -20 -11 -15 -14 -14 -20 -8 10 17 18 21 23 22 21 18 18 18 17 16 17 20 19 18 17 18 19 20 18
-20 -20 -20 -20 -20 -20 -20 -20 -15 -16 -6 -2 -5 -12 -19 3 -2 -20 -20 -20 -20 -20 -18 -20 -8 9 10 12 16 16 10 6 -2 -14 -11 -6 3 10 13 13 11 12 12
-20 -20 -20 -20 -20 -20 -20 -20 -20 -20 -20 -20 -20 -13 -16 -18 -3 -20 -20 -20 -20 -20 -20 -20 -20 -20 -7 -9 -19 -3 9 10 2 -13 -2 -8 -17 -6 -7 -1 0 -1 -2
-20 -20 -20 -20 -20 -20 -20 -20 -20 -20 -20 -20 -20 -20 -15 -20 -20 -20 -20 -20 -20 -20 -20 -20 -20 -20 -20 -20 -20 -20 -20 -20 -20 -20 -20 -20 -20 -20 -20 -18 -20 -20 -20
-20 -20 -20 -20 -20 -20 -20 -20 -20 -20 -20 -20 -20 -20 -20 -20 -20 -20 -20 -20 -20 -20 -20 -20 -20 -20 -20 -20 -20 -20 -20 -20 -20 -20 -20 -20 -20 -20 -20 -20 -20 -20 -20
-20 -20 -20 -20 -20 -20 -20 -20 -20 -20 -20 -20 -20 -20 -20 -20 -20 -20 -20 -20 -20 -20 -20 -20 -20 -20 -20 -20 -20 -20 -20 -20 -20 -20 -20 -20 -20 -20 -20 -20 -20 -20 -20
-20 -20 -20 -20 -20 -20 -20 -20 -20 -20 -20 -20 -20 -20 -20 -20 -20 -20 -20 -20 -20 -20 -20 -20 -20 -20 -20 -20 -20 -20 -20 -20 -20 -20 -20 -20 -20 -20 -20 -20 -20 -20 -20
-20 -20 -20 -20 -20 -20 -20 -20 -20 -20 -20 -20 -20 -20 -20 -20 -20 -20 -20 -20 -20 -20 -20 -20 -20 -20 -20 -20 -20 -20 -20 -20 -20 -20 -20 -20 -20 -20 -20 -20 -20 -20 -20
-20 -20 -20 -20 -20 -20 -20 -20 -20 -20 -20 -20 -20 -20 -20 -20 -20 -20 -20 -20 -20 -20 -20 -20 -20 -20 -20 -20 -20 -20 -20 -20 -20 -20 -20 -20 -20 -20 -20 -20 -20 -20 -20
-20 -20 -20 -20 -20 -20 -20 -20 -20 -20 -20 -20 -20 -20 -20 -20 -20 -20 -20 -20 -20 -20 -20 -20 -20 -20 -20 -20 -20 -20 -20 -20 -20 -20 -20 -20 -20 -20 -20 -20 -20 -20 -20
-20 -20 -20 -20 -20 -20 -20 -20 -20 -20 -20 -20 -20 -20 -20 -20 -20 -20 -20 -20 -20 -20 -20 -20 -20 -20 -20 -20 -20 -20 -20 -20 -20 -20 -20 -20 -20 -20 -20 -20 -20 -20 -20
-20 -20 -20 -20 -20 -20 -20 -20 -20 -20 -20 -20 -20 -20 -20 -20 -20 -20 -20 -20 -20 -20 -20 -20 -20 -20 -20 -20 -20 -20 -20 -20 -20 -20 -20 -20 -20 -20 -20 -20 -20 -20 -20

GFSGL_prec_radar_117.txt.gz
Reflectivity
-14 -14 -20 -20 -20 3 21 -16 20 7 12 29 29 -4 -4 6 23 11 19 -16 -3 -19 -13 7 -15 -5 1 8 -5 -3 -6 -6 20 21 1 20 21 20 24 17 -15 -20 -20
-13 -10 4 -4 -5 -20 -20 -20 -20 -12 28 23 -1 27 28 5 26 21 -8 9 -4 -20 13 12 -13 -11 5 -17 -9 -20 -11 -3 22 21 4 24 29 23 29 25 20 13 22
-2 -16 9 9 -18 -20 -11 -16 -20 -5 -17 17 17 9 9 23 23 17 14 14 11 -20 -0 14 -9 -3 1 -16 -20 -7 0 3 2 18 19 15 22 29 22 22 15 -9 -20
-20 -11 1 -20 -19 -20 -13 -14 -20 -20 -20 -13 8 18 15 7 18 13 16 -20 8 2 10 19 -16 11 5 -20 5 4 -20 -2 1 7 16 22 24 27 27 24 18 -16 -20
-20 -20 -20 -20 -20 -20 -20 -20 -20 -20 -9 15 25 23 19 22 9 7 5 11 25 3 19 16 -12 7 -18 10 6 4 -7 -9 15 17 11 29 25 10 28 12 16 3 11
-10 1 -20 -20 -6 -19 2 -9 -7 -14 -9 -0 -1 18 10 14 23 3 -20 18 29 43 22 16 -19 8 5 -3 9 4 -4 -0 8 -20 15 8 16 27 32 28 22 22 20
-20 -20 -20 -20 -20 -20 8 5 -17 -6 -18 5 -18 -20 -1 4 12 -6 19 11 4 38 39 17 20 -20 12 -20 5 21 21 18 23 -3 14 25 14 26 32 30 30 19 14
-20 -20 -20 -20 -20 -20 -15 -5 -5 19 14 -19 -11 -9 -16 12 21 19 14 20 25 30 33 17 6 15 5 5 -11 -3 2 7 16 3 -12 10 20 18 29 33 30 28 23
-20 -20 -20 -20 -20 -20 -20 -20 -20 -20 -20 -19 -4 11 18 2 19 17 21 30 22 34 38 29 23 18 22 4 12 3 12 24 27 35 36 27 23 24 24 29 35 35 35
-20 -20 -20 -20 -20 -20 -20 -20 -20 -20 -20 -20 -20 -18 11 10 7 1 4 28 34 33 36 35 31 14 28 24 15 5 14 23 23 24 24 19 25 27 18 30 31 31 24
-20 -20 -20 -20 -20 -20 -20 -20 -20 -2 -20 -20 -20 -20 -20 -20 -20 -6 16 19 22 25 30 37 40 34 18 18 29 2 21 15 18 11 7 23 25 -5 10 14 14 31 30
-20 -20 -20 -20 -9 -4 -18 -20 -20 -20 -20 -20 -13 -20 -17 -20 -20 -18 -20 -9 14 21 27 27 27 29 32 20 23 33 22 16 17 18 5 23 34 -11 -4 18 27 12 15
-20 -20 -20 -20 -20 -20 -7 -5 -20 -20 -20 -20 -6 -9 -20 -20 -19 -20 -20 -20 -20 -20 -3 8 13 17 23 23 20 22 23 25 28 27 20 28 24 19 19 26 19 18 21
-20 -20 -20 -20 -20 -20 -20 -20 -18 0 -8 -18 -13 2 -1 2 -16 -20 -5 -20 -20 -20 -14 -5 -13 7 17 18 17 19 21 22 22 25 25 26 27 25 19 21 21 17 17
-20 -20 -20 -20 -20 -20 -20 -5 -2 4 6 0 -0 2 5 3 4 -6 -8 -13 -20 -20 -20 -20 -20 -20 -16 -3 7 15 15 19 20 21 23 24 25 24 19 20 21 20 16
-20 -20 -20 -12 -20 -20 -20 -20 -19 -20 -17 -15 -13 -4 -0 -0 -20 -20 -20 -20 -20 -20 -20 -20 -20 -20 -20 -15 -7 -4 6 16 19 19 20 19 18 18 17 15 16 16 10
-20 -20 -20 -20 -20 -20 -20 -20 -20 -20 -20 -20 -20 -13 -8 -4 -20 -20 -20 -20 -20 -20 -20 -20 -20 -20 -20 -20 -20 -20 -2 9 11 11 14 15 15 14 13 9 6 8 6
-20 -20 -20 -20 -20 -20 -20 -20 -20 -20 -20 -20 -20 -20 -18 -20 -20 -20 -20 -20 -20 -20 -20 -20 -20 -20 -20 -20 -20 -20 -20 -20 -20 -20 -6 2 4 6 5 3 0 -3 -5
-20 -20 -20 -20 -20 -20 -20 -20 -20 -20 -20 -20 -20 -20 -20 -20 -20 -20 -20 -20 -20 -20 -20 -20 -20 -20 -20 -20 -20 -20 -20 -20 -20 -20 -20 -20 -20 -18 -20 -15 -8 -6 -10
-20 -20 -20 -20 -20 -20 -20 -20 -20 -20 -20 -20 -20 -20 -20 -20 -20 -20 -20 -20 -20 -20 -20 -20 -20 -20 -20 -20 -20 -20 -20 -20 -20 -20 -20 -20 -20 -20 -20 -20 -20 -20 -20
-20 -20 -20 -20 -20 -20 -20 -20 -20 -20 -20 -20 -20 -20 -20 -20 -20 -20 -20 -20 -20 -20 -20 -20 -20 -20 -20 -20 -20 -20 -20 -20 -20 -20 -20 -20 -20 -20 -20 -20 -20 -20 -20
-20 -7 1 -6 -20 -20 -20 -20 -20 -20 -20 -20 -20 -20 -20 -20 -20 -20 -20 -20 -20 -20 -20 -20 -20 -20 -20 -20 -20 -20 -20 -20 -20 -20 -20 -20 -20 -20 -20 -20 -20 -20 -20
-20 -20 -3 -19 -20 -20 -20 -20 -7 -20 -20 -20 -20 -20 -20 -20 -20 -20 -20 -20 -20 -20 -20 -20 -20 -20 -20 -20 -20 -20 -20 -20 -20 -20 -20 -20 -20 -20 -20 -20 -20 -20 -20
-20 -19 -19 -17 -20 -20 -20 -20 -20 -20 -20 -20 -20 -20 -20 -20 -20 -20 -20 -20 -20 -20 -20 -20 -20 -20 -20 -20 -20 -20 -20 -20 -20 -20 -20 -20 -20 -20 -20 -20 -20 -20 -20
-20 -20 -20 -18 -17 -20 -20 -20 -20 -20 -20 -20 -20 -20 -20 -20 -20 -20 -20 -20 -20 -20 -20 -20 -20 -20 -20 -20 -20 -20 -20 -20 -20 -20 -20 -20 -20 -20 -20 -20 -20 -20 -20
-20 -20 -20 -20 1 -6 -15 -20 -6 -20 -20 -20 -20 -20 -20 -20 -20 -20 -20 -20 -20 -20 -20 -20 -20 -20 -20 -20 -20 -20 -20 -20 -20 -20 -20 -20 -20 -20 -20 -20 -20 -20 -20

GFSGL_prec_radar_120.txt.gz
Reflectivity
-6 -15 -20 -20 -20 0 -20 -20 21 3 7 16 21 19 2 -15 19 28 33 32 30 8 -9 -15 -1 -14 6 7 13 17 6 -1 10 -14 16 -2 -1 24 26 24 28 3 -20
-19 -20 -20 -20 -20 -17 -12 -20 -20 -19 -17 10 27 5 -7 -20 -17 -10 28 27 -0 19 7 25 -13 -1 -19 -2 4 1 2 3 2 -9 -7 2 -13 24 19 25 29 14 12
21 13 7 4 5 -13 -4 -18 -20 -18 -20 13 23 17 8 13 22 14 -0 21 14 22 9 -0 -14 -20 -20 2 4 8 16 9 -11 -20 12 9 8 -8 24 15 29 19 18
-18 -20 -20 -20 2 -20 -10 -20 -20 -6 7 -20 -20 -20 -12 5 6 11 13 22 7 0 -3 -3 8 -20 -20 -18 5 12 9 4 -20 -8 0 6 -6 4 24 13 28 33 22
-20 -20 -20 -20 -20 -20 -20 -20 -5 -20 -20 -20 -20 -19 -8 -19 -5 -3 7 9 19 14 8 19 17 25 29 22 16 2 2 -20 -19 -5 6 11 -2 -2 9 22 26 30 35
-20 -20 -20 -20 -20 -20 -20 -20 -20 10 -13 -20 -20 -20 -20 -13 20 14 30 -5 8 15 14 18 25 10 37 41 7 -20 -11 -6 15 -3 -5 8 1 -12 -5 27 25 27 26
-20 -20 -20 -20 -20 -20 -13 -9 -18 -14 -20 -20 -20 -20 -20 -9 22 16 14 1 8 17 20 10 0 8 30 35 24 9 17 16 14 1 -19 -2 -12 9 -7 10 21 17 26
-6 -2 -9 -20 -20 -20 -20 -20 -20 0 15 1 -2 -12 -20 -19 -6 6 -13 -20 -19 2 15 17 26 13 18 10 21 21 14 1 9 10 0 2 13 3 13 14 24 20 20
-20 -20 -18 2 -4 -10 -17 -16 -1 -20 4 -16 1 -20 -17 -10 11 -5 7 -5 -20 -16 12 27 25 27 25 23 19 11 28 -4 19 19 27 26 19 19 20 6 25 25 21
2 4 -7 -15 -18 -19 3 -3 4 2 4 4 -18 4 -20 -20 -20 -7 19 26 26 1 6 20 35 33 32 21 26 35 1 20 14 -0 8 13 16 17 23 22 24 25 26
-20 -11 -3 -2 2 3 -1 3 2 4 2 1 3 1 1 -4 -7 -5 -20 -10 -5 -14 2 12 15 29 29 32 33 37 23 18 18 15 26 6 18 5 7 21 18 26 29
-20 -20 -20 -15 -1 3 3 5 5 2 2 3 2 1 2 -1 -11 -9 -20 -15 -13 2 2 6 15 20 20 25 33 35 38 37 16 28 4 12 5 8 6 6 27 28 25
-20 -20 -20 -20 -20 -20 -18 -13 -17 2 -1 1 -3 3 -2 3 4 -20 -16 -13 -12 3 -0 1 -5 12 11 14 23 27 26 27 27 26 24 25 20 22 13 13 19 22 26
-20 -20 -20 -20 -20 -20 -20 -20 -20 -4 -5 -3 -2 1 3 0 2 1 0 2 0 -3 -2 -2 -20 -13 -20 -12 0 8 14 19 21 23 26 26 25 21 22 25 23 25 26
-20 -20 -20 -20 -20 -20 -20 -20 -20 -3 -2 1 1 -0 2 2 4 1 -9 -5 -12 -14 -10 2 -5 -0 -2 1 -0 -1 -1 -2 5 16 17 15 17 15 19 21 21 23 24
-20 -20 -20 -20 -20 -20 -20 -20 -20 -20 -20 -20 -16 -8 0 -4 -20 -18 -20 -20 -20 -20 -9 -4 -3 -3 -1 -1 -1 -1 -1 -2 -0 -2 -2 8 13 11 10 13 14 15 16
-2 -20 -20 -20 -20 -20 -20 -20 -20 -20 -20 -20 -20 -20 -4 -1 -9 -20 -20 -20 -20 -20 -2 1 -0 -2 -8 -20 -20 -19 -8 -19 -19 -3 -2 -2 -3 -2 8 10 11 13 13
-0 -2 -4 -0 1 1 2 3 2 -1 -16 -20 -20 -20 -20 -20 -20 -20 -20 -20 -20 -20 -20 -20 -20 -20 -20 -20 -20 -20 -16 -16 -18 -20 -4 -3 -6 -20 -20 -20 -18 -6 2
-7 -4 -1 2 2 4 3 3 2 1 -1 -3 -20 -20 -20 -20 -20 -20 -20 -3 -4 -12 -20 -20 -1 -3 -11 -11 3 3 1 0 -0 -1 -2 -12 -3 -20 -20 -20 -20 -20 -20
-16 -4 -8 2 3 2 3 3 2 1 1 -0 -1 -20 -20 -20 -20 -8 -1 3 1 -0 2 -2 -0 -1 1 -0 2 3 3 1 1 -3 1 3 1 -20 -20 -20 -20 -20 -20
-4 -2 -19 1 3 3 3 5 4 3 3 1 3 -10 -20 -3 -1 -2 -3 1 2 4 4 1 2 0 -1 -5 -19 2 -1 4 1 2 4 2 3 -1 -19 -20 -20 -20 -20
-20 -8 -7 -3 -3 2 3 3 6 5 4 4 4 1 -20 4 3 1 1 4 4 2 1 3 1 -20 -20 -20 -20 1 -1 2 2 3 3 -1 -0 -1 -6 -20 -20 -20 -20
-12 -1 -4 -15 1 -14 3 4 -9 8 9 7 -8 -3 4 4 5 4 4 5 3 3 0 2 1 -4 -10 -9 -15 -20 -20 -20 -0 -0 2 2 -0 -0 1 -2 -20 -20 -20
-6 0 -1 -1 3 -1 5 6 2 4 6 -9 9 8 5 4 5 4 4 5 4 4 3 2 -2 -20 -20 -6 -3 -20 -20 -20 -20 -1 -16 -0 -2 -6 -2 -20 -20 -20 -20
3 3 2 3 4 5 5 6 4 -17 7 8 8 9 7 7 5 5 5 4 3 4 2 0 1 -1 -20 -20 -20 -20 -20 -20 -20 -20 -20 -18 -16 -20 -20 -20 -20 -20 -20
3 2 3 5 4 5 6 5 6 5 5 8 7 -0 7 -9 -5 5 3 4 3 3 2 2 3 -10 -20 -6 -17 -20 -20 -20 -20 -20 -20 -5 -4 -20 -19 -20 -20 -20 -20